GFSCGP_500_temp_000.txt.gz
Temp
-3 -2 -2 -4 -5 -6 -8 -8 -8 -8 -8 -8 -8 -7 -7 -6 -6 -6 -6 -6 -6 -6 -6 -6 -6 -6 -6 -6 -6 -6 -6 -6 -6 -6 -6 -7 -7 -7 -7 -7 -7 -7 -7 -7
-4 -2 -3 -5 -6 -6 -8 -8 -8 -8 -8 -8 -8 -8 -7 -7 -6 -6 -6 -7 -6 -6 -6 -6 -6 -6 -6 -6 -6 -6 -6 -6 -6 -6 -6 -7 -7 -7 -7 -7 -7 -7 -7 -7
-4 -4 -4 -4 -5 -6 -7 -8 -8 -7 -8 -8 -8 -8 -7 -7 -7 -7 -7 -7 -7 -6 -6 -6 -6 -6 -5 -5 -5 -6 -6 -6 -6 -6 -6 -6 -6 -7 -7 -7 -7 -7 -7 -7
-5 -5 -4 -4 -5 -6 -7 -7 -8 -8 -8 -8 -8 -7 -8 -8 -7 -6 -7 -7 -7 -7 -7 -6 -6 -6 -6 -6 -6 -6 -6 -6 -6 -6 -6 -6 -6 -6 -7 -7 -7 -7 -7 -7
-4 -5 -4 -5 -4 -5 -6 -8 -7 -8 -8 -8 -8 -8 -7 -7 -7 -7 -7 -7 -7 -8 -7 -7 -7 -7 -6 -6 -6 -6 -6 -6 -7 -7 -7 -6 -6 -6 -7 -7 -7 -7 -7 -8
-5 -5 -5 -5 -6 -6 -6 -9 -8 -8 -8 -8 -8 -8 -7 -7 -6 -7 -8 -8 -8 -8 -8 -8 -7 -7 -7 -7 -6 -6 -7 -6 -6 -7 -6 -7 -7 -7 -7 -7 -7 -7 -7 -7
-5 -5 -5 -5 -6 -7 -7 -8 -8 -9 -8 -8 -8 -8 -6 -8 -7 -7 -8 -7 -8 -8 -8 -8 -8 -7 -7 -7 -6 -6 -6 -6 -6 -7 -7 -7 -7 -7 -7 -7 -8 -8 -8 -8
-5 -5 -5 -5 -6 -6 -6 -7 -8 -8 -8 -8 -8 -8 -6 -6 -7 -7 -7 -8 -7 -7 -7 -7 -7 -8 -7 -7 -7 -7 -7 -7 -7 -7 -7 -7 -7 -7 -8 -8 -8 -8 -9 -9
-6 -5 -6 -6 -6 -8 -7 -7 -8 -8 -8 -8 -7 -7 -7 -7 -7 -7 -7 -8 -7 -8 -7 -7 -8 -7 -7 -7 -7 -8 -7 -7 -7 -7 -7 -7 -7 -7 -8 -8 -8 -9 -9 -9
-7 -7 -7 -7 -7 -7 -8 -7 -8 -9 -8 -8 -8 -8 -7 -6 -7 -7 -7 -7 -7 -8 -7 -7 -7 -7 -8 -8 -7 -7 -7 -8 -8 -8 -8 -7 -8 -8 -8 -9 -9 -9 -9 -9
-8 -7 -9 -8 -7 -7 -8 -9 -8 -9 -9 -8 -8 -8 -8 -6 -7 -8 -8 -7 -7 -7 -7 -7 -7 -7 -8 -8 -7 -8 -7 -8 -8 -8 -8 -9 -9 -8 -9 -9 -10 -10 -10 -9
-8 -9 -8 -7 -7 -8 -10 -9 -10 -9 -8 -9 -8 -7 -8 -8 -6 -7 -8 -8 -8 -7 -7 -7 -7 -7 -7 -8 -7 -7 -7 -8 -9 -9 -9 -9 -9 -9 -9 -8 -10 -10 -9 -10
-10 -9 -11 -9 -10 -10 -10 -10 -10 -10 -9 -8 -9 -8 -8 -8 -6 -6 -7 -7 -7 -7 -7 -7 -7 -7 -8 -8 -7 -8 -8 -8 -9 -9 -9 -9 -9 -9 -9 -9 -10 -9 -8 -9
-9 -11 -9 -10 -9 -9 -9 -8 -10 -10 -9 -9 -9 -8 -9 -9 -6 -6 -7 -7 -7 -8 -8 -8 -7 -7 -8 -8 -8 -8 -8 -8 -8 -9 -9 -9 -9 -9 -9 -10 -10 -9 -9 -9
-10 -10 -12 -10 -10 -11 -11 -11 -10 -10 -9 -10 -8 -9 -9 -9 -7 -5 -7 -8 -8 -8 -8 -8 -8 -8 -8 -8 -8 -7 -8 -8 -8 -9 -8 -9 -9 -9 -9 -10 -9 -9 -9 -10
-11 -11 -11 -12 -11 -12 -11 -11 -11 -11 -8 -9 -10 -9 -9 -9 -7 -7 -7 -8 -8 -8 -8 -8 -8 -8 -8 -8 -8 -8 -8 -8 -8 -8 -8 -8 -9 -9 -10 -10 -9 -10 -10 -9
-11 -11 -11 -12 -11 -11 -11 -11 -11 -11 -10 -9 -9 -7 -8 -8 -8 -6 -7 -7 -8 -8 -8 -8 -8 -8 -8 -8 -8 -8 -8 -7 -8 -9 -8 -8 -8 -9 -9 -9 -10 -9 -9 -9
-11 -11 -12 -12 -11 -12 -10 -11 -11 -11 -10 -9 -8 -9 -8 -8 -7 -7 -7 -8 -8 -8 -8 -8 -8 -8 -8 -8 -8 -8 -8 -8 -8 -8 -8 -9 -9 -9 -9 -9 -9 -10 -10 -10
-12 -12 -13 -12 -12 -12 -10 -11 -11 -11 -11 -11 -10 -9 -9 -7 -7 -7 -7 -8 -8 -8 -8 -8 -8 -8 -8 -8 -8 -8 -8 -8 -8 -9 -9 -9 -9 -9 -9 -9 -10 -10 -10 -10
-12 -12 -12 -13 -13 -12 -12 -11 -11 -11 -10 -10 -11 -9 -8 -7 -7 -6 -8 -8 -8 -8 -8 -8 -8 -8 -9 -9 -9 -9 -8 -8 -8 -9 -9 -9 -9 -9 -9 -10 -10 -10 -10 -10
-12 -12 -12 -13 -13 -12 -10 -11 -11 -11 -10 -10 -9 -9 -9 -8 -7 -8 -8 -8 -8 -8 -8 -8 -8 -8 -9 -9 -9 -9 -8 -8 -9 -9 -9 -9 -9 -10 -9 -10 -10 -11 -10 -11
-12 -12 -13 -13 -13 -12 -10 -11 -11 -10 -10 -10 -10 -10 -10 -9 -8 -8 -8 -8 -8 -8 -8 -8 -8 -8 -8 -9 -9 -9 -9 -9 -9 -9 -9 -10 -10 -10 -10 -10 -10 -10 -10 -10
-13 -12 -14 -12 -12 -11 -11 -11 -11 -10 -10 -10 -10 -10 -9 -9 -9 -8 -8 -8 -8 -8 -8 -8 -8 -8 -9 -9 -9 -9 -9 -9 -9 -9 -10 -10 -10 -10 -10 -10 -10 -10 -10 -10
-13 -13 -12 -12 -12 -11 -11 -11 -11 -11 -10 -10 -10 -10 -9 -9 -9 -9 -9 -8 -8 -8 -8 -8 -8 -9 -9 -9 -9 -9 -9 -9 -9 -10 -10 -10 -10 -9 -9 -10 -10 -10 -10 -10
-12 -13 -12 -12 -11 -12 -11 -11 -11 -11 -10 -10 -10 -10 -10 -9 -9 -9 -9 -10 -9 -9 -9 -9 -9 -10 -9 -9 -10 -10 -9 -9 -10 -10 -10 -10 -9 -9 -10 -11 -11 -10 -10 -11
-13 -13 -12 -12 -12 -11 -12 -12 -11 -11 -11 -11 -10 -10 -10 -10 -10 -10 -10 -9 -10 -10 -10 -10 -10 -10 -10 -9 -9 -9 -9 -10 -9 -10 -10 -10 -10 -10 -10 -11 -11 -11 -11 -12

GFSCGP_500_temp_003.txt.gz
Temp
-3 -3 -3 -4 -5 -7 -8 -7 -6 -6 -7 -6 -8 -8 -7 -6 -6 -5 -5 -5 -5 -5 -6 -5 -5 -5 -5 -5 -5 -5 -6 -6 -6 -6 -6 -6 -7 -7 -6 -6 -7 -7 -7 -7
-4 -3 -4 -5 -6 -6 -8 -7 -6 -6 -7 -7 -7 -7 -7 -7 -6 -5 -5 -5 -5 -5 -5 -5 -5 -5 -5 -5 -5 -5 -5 -6 -6 -6 -6 -6 -7 -7 -6 -7 -6 -7 -7 -7
-4 -4 -4 -5 -6 -7 -8 -7 -7 -6 -6 -6 -7 -6 -7 -7 -7 -6 -6 -5 -5 -5 -5 -5 -5 -5 -5 -5 -5 -5 -5 -6 -6 -6 -6 -6 -6 -6 -6 -6 -7 -7 -7 -7
-4 -5 -4 -5 -5 -6 -8 -8 -7 -6 -7 -6 -7 -6 -6 -7 -7 -6 -6 -6 -5 -5 -6 -6 -6 -5 -5 -5 -5 -5 -5 -6 -6 -6 -6 -6 -6 -6 -6 -6 -7 -7 -7 -7
-4 -4 -4 -4 -4 -5 -7 -8 -8 -7 -6 -6 -6 -6 -6 -6 -7 -7 -6 -6 -5 -5 -5 -6 -6 -6 -6 -5 -5 -5 -5 -5 -6 -6 -6 -6 -7 -7 -7 -7 -7 -7 -7 -7
-4 -4 -5 -4 -5 -5 -6 -8 -8 -7 -7 -6 -6 -6 -6 -6 -6 -6 -7 -6 -5 -5 -6 -6 -6 -7 -7 -6 -6 -5 -5 -6 -6 -6 -6 -7 -7 -7 -7 -7 -7 -7 -7 -7
-4 -4 -4 -5 -5 -5 -6 -8 -8 -7 -7 -6 -6 -6 -6 -5 -6 -7 -7 -7 -7 -6 -6 -6 -7 -6 -7 -6 -6 -6 -6 -6 -5 -6 -6 -7 -7 -7 -7 -7 -7 -8 -7 -7
-5 -4 -4 -4 -4 -5 -6 -7 -8 -7 -6 -6 -6 -6 -6 -6 -6 -7 -7 -7 -7 -7 -6 -7 -7 -7 -7 -6 -6 -6 -6 -6 -6 -6 -6 -7 -7 -7 -7 -8 -8 -7 -7 -7
-5 -4 -5 -4 -5 -6 -7 -7 -7 -7 -6 -6 -6 -6 -6 -6 -7 -7 -7 -7 -7 -7 -7 -7 -7 -7 -7 -7 -6 -6 -6 -6 -7 -7 -7 -7 -7 -7 -8 -8 -8 -7 -7 -8
-5 -7 -7 -5 -7 -5 -7 -7 -8 -8 -7 -6 -5 -5 -5 -6 -7 -7 -7 -7 -7 -8 -7 -7 -7 -7 -7 -7 -7 -7 -7 -7 -7 -7 -7 -8 -8 -8 -8 -8 -7 -7 -8 -8
-6 -6 -8 -9 -4 -4 -5 -6 -8 -8 -7 -7 -6 -5 -6 -6 -7 -7 -7 -7 -7 -8 -7 -7 -7 -7 -7 -7 -7 -7 -7 -7 -7 -7 -8 -8 -8 -8 -8 -8 -8 -7 -8 -9
-6 -6 -6 -7 -8 -8 -9 -8 -8 -8 -8 -7 -6 -5 -6 -7 -7 -8 -7 -7 -7 -7 -7 -7 -7 -7 -7 -7 -7 -7 -7 -6 -7 -7 -8 -8 -8 -8 -8 -8 -8 -8 -8 -9
-8 -6 -7 -8 -9 -8 -6 -6 -8 -8 -8 -8 -7 -6 -7 -7 -7 -7 -8 -7 -7 -8 -8 -7 -7 -7 -7 -7 -7 -7 -7 -6 -6 -6 -7 -8 -8 -7 -7 -8 -8 -8 -8 -9
-9 -10 -7 -8 -7 -9 -9 -8 -9 -8 -8 -8 -8 -7 -7 -7 -8 -8 -8 -8 -8 -8 -7 -7 -7 -7 -7 -7 -7 -7 -7 -7 -6 -7 -7 -7 -7 -7 -8 -8 -8 -8 -8 -9
-9 -9 -10 -7 -10 -10 -9 -9 -9 -9 -9 -8 -8 -8 -7 -7 -8 -8 -8 -7 -7 -8 -7 -7 -7 -7 -7 -7 -7 -8 -7 -7 -7 -7 -6 -7 -7 -8 -8 -8 -8 -8 -9 -9
-9 -10 -11 -11 -10 -10 -10 -9 -9 -10 -9 -9 -9 -8 -8 -8 -8 -8 -8 -7 -7 -8 -8 -7 -7 -7 -7 -7 -7 -8 -8 -7 -7 -7 -6 -7 -7 -8 -8 -8 -8 -8 -9 -9
-11 -12 -12 -11 -11 -10 -10 -9 -10 -10 -9 -10 -9 -8 -9 -9 -8 -8 -8 -8 -7 -6 -7 -7 -7 -7 -7 -8 -8 -8 -7 -7 -7 -7 -7 -7 -8 -8 -8 -9 -9 -9 -9 -9
-13 -13 -12 -11 -11 -11 -8 -10 -10 -10 -10 -10 -10 -10 -9 -9 -8 -9 -9 -9 -7 -6 -7 -8 -7 -8 -7 -8 -8 -8 -7 -7 -7 -7 -8 -8 -8 -9 -9 -9 -9 -9 -9 -10
-11 -11 -12 -12 -11 -9 -10 -10 -10 -10 -10 -10 -10 -10 -10 -10 -9 -9 -8 -7 -8 -7 -8 -8 -8 -8 -8 -8 -8 -8 -7 -7 -7 -8 -8 -8 -8 -9 -9 -9 -9 -9 -10 -9
-12 -11 -11 -12 -12 -11 -10 -10 -10 -10 -9 -10 -10 -10 -10 -10 -9 -9 -9 -6 -6 -7 -8 -8 -8 -8 -8 -8 -8 -8 -8 -8 -8 -8 -9 -8 -9 -9 -9 -9 -9 -9 -10 -9
-12 -12 -11 -12 -12 -11 -11 -10 -10 -11 -11 -11 -10 -10 -11 -10 -10 -10 -9 -7 -8 -7 -8 -8 -8 -8 -8 -8 -8 -8 -8 -9 -9 -9 -9 -9 -9 -9 -9 -9 -10 -10 -10 -9
-12 -12 -11 -13 -13 -12 -11 -11 -11 -11 -10 -11 -11 -10 -10 -11 -11 -10 -9 -8 -8 -8 -8 -8 -8 -8 -8 -8 -8 -8 -9 -9 -9 -9 -9 -9 -9 -9 -9 -9 -10 -10 -10 -9
-13 -12 -12 -13 -13 -13 -13 -12 -10 -11 -11 -11 -11 -11 -11 -10 -9 -10 -10 -9 -9 -8 -8 -8 -8 -8 -8 -8 -8 -8 -8 -9 -9 -9 -9 -9 -9 -9 -9 -9 -9 -10 -10 -10
-14 -14 -14 -12 -12 -12 -12 -12 -11 -11 -11 -11 -11 -11 -11 -10 -10 -10 -10 -9 -9 -8 -8 -8 -8 -8 -8 -8 -8 -8 -8 -9 -9 -9 -9 -10 -9 -9 -9 -9 -10 -11 -10 -10
-11 -13 -14 -13 -12 -11 -11 -11 -11 -11 -10 -10 -11 -11 -10 -10 -10 -10 -9 -9 -9 -8 -8 -8 -8 -8 -8 -8 -8 -8 -8 -9 -10 -9 -10 -10 -10 -10 -10 -10 -10 -10 -10 -10
-11 -12 -10 -12 -11 -11 -11 -11 -11 -11 -10 -10 -11 -11 -10 -10 -10 -10 -9 -9 -9 -8 -8 -8 -8 -8 -8 -8 -8 -9 -9 -9 -9 -9 -10 -9 -10 -10 -10 -10 -10 -10 -11 -11

GFSCGP_500_temp_006.txt.gz
Temp
-3 -3 -2 -3 -5 -5 -7 -7 -7 -7 -7 -7 -7 -6 -4 -5 -7 -6 -5 -4 -4 -4 -4 -4 -4 -5 -5 -5 -5 -5 -5 -6 -6 -6 -6 -6 -6 -6 -6 -6 -6 -6 -7 -6
-4 -3 -3 -4 -5 -6 -6 -7 -6 -7 -7 -7 -7 -7 -6 -6 -7 -6 -5 -4 -4 -4 -4 -4 -4 -4 -4 -4 -5 -5 -5 -5 -5 -6 -6 -6 -6 -6 -6 -6 -6 -6 -6 -6
-3 -3 -4 -4 -5 -5 -6 -7 -7 -6 -7 -7 -7 -7 -6 -6 -6 -6 -6 -4 -4 -4 -4 -4 -4 -4 -4 -4 -4 -4 -5 -5 -5 -5 -6 -6 -6 -6 -6 -6 -6 -6 -6 -6
-3 -4 -4 -4 -5 -5 -5 -6 -7 -7 -7 -6 -6 -6 -6 -6 -5 -5 -6 -5 -4 -4 -4 -4 -4 -4 -4 -4 -4 -4 -5 -5 -5 -5 -6 -5 -6 -6 -6 -6 -6 -7 -7 -7
-3 -4 -4 -3 -4 -5 -5 -7 -6 -7 -7 -6 -6 -6 -6 -6 -6 -6 -5 -5 -5 -4 -4 -4 -4 -4 -4 -5 -5 -5 -4 -4 -5 -5 -5 -5 -6 -6 -6 -6 -7 -7 -7 -6
-4 -4 -4 -4 -5 -6 -6 -8 -8 -7 -7 -7 -6 -6 -5 -6 -5 -6 -6 -6 -6 -5 -5 -5 -4 -4 -5 -5 -5 -5 -5 -5 -5 -5 -5 -5 -6 -6 -6 -6 -7 -6 -6 -7
-4 -4 -4 -4 -5 -6 -7 -8 -8 -7 -7 -6 -6 -6 -4 -6 -6 -5 -6 -5 -6 -5 -6 -6 -6 -6 -6 -6 -6 -6 -6 -6 -5 -5 -5 -5 -6 -6 -6 -6 -7 -7 -7 -7
-4 -4 -4 -4 -4 -5 -6 -8 -7 -7 -7 -6 -6 -6 -6 -6 -6 -5 -5 -6 -6 -6 -6 -6 -7 -6 -7 -7 -7 -7 -6 -6 -6 -6 -6 -6 -6 -6 -6 -7 -7 -7 -8 -7
-5 -4 -5 -5 -5 -5 -5 -7 -5 -7 -7 -6 -5 -5 -5 -5 -6 -5 -5 -7 -7 -7 -7 -6 -6 -6 -7 -7 -7 -7 -6 -6 -6 -6 -6 -6 -6 -6 -7 -7 -7 -7 -8 -8
-5 -6 -6 -5 -6 -4 -4 -5 -7 -8 -7 -7 -6 -5 -6 -5 -5 -6 -5 -6 -7 -7 -6 -7 -6 -7 -7 -7 -7 -7 -7 -7 -6 -6 -6 -6 -7 -7 -7 -7 -7 -7 -7 -8
-5 -6 -6 -8 -4 -5 -6 -5 -6 -7 -7 -7 -6 -6 -5 -5 -5 -6 -6 -5 -6 -7 -7 -7 -6 -7 -7 -7 -7 -7 -7 -7 -7 -6 -6 -6 -7 -7 -7 -7 -8 -7 -7 -8
-7 -7 -6 -6 -8 -6 -6 -4 -5 -7 -6 -7 -6 -6 -5 -6 -5 -6 -6 -6 -5 -5 -7 -8 -7 -7 -7 -7 -7 -7 -7 -7 -6 -6 -5 -5 -6 -6 -7 -7 -7 -8 -8 -8
-9 -8 -8 -7 -8 -8 -8 -7 -7 -7 -7 -7 -7 -6 -5 -6 -6 -8 -7 -7 -7 -7 -8 -7 -7 -7 -7 -7 -7 -7 -7 -7 -6 -6 -5 -5 -6 -7 -7 -7 -8 -8 -8 -9
-10 -9 -8 -6 -6 -8 -8 -6 -6 -7 -8 -6 -7 -7 -6 -6 -6 -7 -8 -7 -7 -7 -8 -8 -7 -7 -7 -7 -7 -7 -7 -7 -7 -6 -6 -6 -6 -7 -7 -8 -8 -8 -8 -8
-11 -9 -9 -8 -8 -9 -8 -8 -9 -8 -5 -7 -5 -7 -7 -6 -7 -7 -7 -7 -7 -6 -7 -8 -8 -7 -7 -7 -7 -7 -7 -7 -6 -6 -6 -6 -7 -7 -7 -8 -8 -8 -8 -8
-11 -10 -9 -10 -9 -9 -9 -9 -8 -9 -7 -5 -7 -8 -7 -7 -6 -7 -8 -8 -7 -7 -6 -7 -8 -8 -7 -7 -7 -7 -7 -7 -6 -6 -6 -7 -7 -7 -8 -8 -9 -9 -9 -9
-12 -10 -10 -9 -8 -10 -9 -9 -9 -8 -9 -9 -9 -6 -8 -7 -8 -7 -8 -8 -8 -9 -7 -7 -7 -7 -7 -7 -7 -7 -7 -7 -7 -7 -7 -7 -7 -8 -8 -8 -8 -8 -9 -9
-13 -12 -10 -10 -11 -10 -7 -9 -9 -9 -9 -9 -9 -8 -8 -8 -8 -8 -7 -9 -8 -9 -8 -8 -7 -6 -6 -7 -7 -7 -8 -8 -8 -8 -7 -7 -7 -8 -8 -8 -8 -8 -8 -9
-13 -13 -11 -11 -11 -10 -10 -10 -9 -10 -10 -9 -9 -9 -9 -9 -8 -8 -8 -9 -9 -8 -9 -8 -7 -8 -7 -7 -7 -7 -8 -8 -8 -8 -8 -8 -8 -8 -8 -8 -8 -8 -9 -9
-12 -12 -12 -12 -11 -10 -9 -9 -9 -9 -8 -9 -10 -10 -9 -9 -10 -9 -7 -8 -8 -8 -8 -8 -8 -8 -7 -7 -7 -8 -8 -8 -8 -8 -8 -8 -8 -8 -8 -8 -9 -9 -9 -9
-13 -13 -12 -12 -11 -10 -11 -10 -10 -9 -9 -9 -9 -9 -9 -9 -9 -10 -10 -9 -8 -8 -9 -8 -9 -8 -7 -8 -8 -8 -8 -8 -8 -8 -8 -8 -8 -8 -9 -9 -9 -10 -10 -10
-13 -13 -12 -12 -12 -10 -11 -10 -9 -10 -10 -10 -10 -9 -9 -9 -9 -10 -9 -9 -8 -9 -9 -9 -9 -8 -8 -8 -8 -8 -8 -8 -8 -8 -8 -8 -8 -9 -9 -9 -10 -10 -10 -9
-14 -13 -14 -12 -11 -11 -11 -11 -11 -11 -10 -10 -9 -9 -9 -9 -10 -10 -10 -9 -9 -10 -9 -9 -9 -9 -8 -8 -8 -8 -8 -8 -8 -8 -8 -8 -9 -9 -9 -9 -10 -10 -10 -9
-15 -16 -15 -14 -14 -13 -11 -10 -10 -10 -9 -9 -9 -9 -9 -9 -9 -10 -10 -9 -9 -10 -10 -9 -9 -9 -8 -8 -8 -8 -8 -8 -8 -8 -8 -9 -9 -9 -9 -9 -10 -10 -10 -10
-14 -14 -15 -15 -14 -13 -12 -11 -10 -10 -9 -9 -10 -10 -10 -9 -9 -10 -10 -10 -10 -10 -10 -9 -9 -9 -8 -8 -8 -8 -8 -8 -8 -8 -9 -9 -9 -9 -9 -9 -10 -9 -9 -10
-14 -14 -14 -13 -14 -13 -12 -12 -11 -10 -10 -9 -10 -9 -10 -9 -10 -10 -11 -10 -10 -10 -9 -9 -9 -9 -8 -8 -8 -8 -8 -8 -8 -8 -8 -9 -9 -9 -9 -9 -9 -9 -9 -10

GFSCGP_500_temp_009.txt.gz
Temp
-3 -3 -2 -3 -4 -5 -6 -6 -6 -7 -7 -8 -7 -6 -7 -6 -5 -4 -5 -5 -5 -5 -4 -4 -4 -4 -4 -5 -5 -5 -5 -5 -5 -5 -6 -6 -6 -6 -6 -6 -6 -6 -6 -6
-2 -2 -3 -4 -4 -5 -6 -6 -5 -7 -8 -7 -6 -6 -6 -6 -6 -6 -5 -4 -5 -4 -4 -4 -3 -4 -4 -4 -4 -5 -5 -5 -5 -5 -5 -5 -6 -6 -6 -6 -6 -6 -6 -6
-3 -3 -4 -4 -4 -4 -6 -6 -5 -7 -7 -6 -7 -7 -6 -7 -7 -7 -4 -4 -5 -5 -4 -4 -4 -4 -4 -4 -4 -4 -4 -4 -5 -5 -5 -5 -5 -6 -6 -6 -6 -6 -6 -6
-3 -3 -3 -3 -4 -4 -5 -6 -6 -7 -8 -7 -7 -7 -7 -7 -7 -6 -5 -6 -5 -5 -4 -4 -4 -3 -4 -4 -4 -4 -4 -4 -4 -4 -5 -5 -5 -5 -5 -6 -6 -6 -6 -7
-3 -3 -3 -3 -3 -5 -4 -6 -6 -7 -7 -8 -7 -7 -5 -7 -6 -5 -6 -6 -6 -5 -5 -5 -4 -4 -4 -4 -4 -4 -4 -4 -4 -4 -4 -4 -5 -5 -5 -6 -6 -6 -7 -7
-3 -3 -3 -3 -4 -5 -5 -6 -6 -6 -7 -8 -8 -7 -6 -7 -6 -6 -6 -6 -6 -6 -6 -5 -6 -5 -5 -5 -5 -5 -5 -5 -4 -4 -5 -4 -5 -5 -6 -6 -6 -6 -7 -7
-3 -3 -3 -3 -3 -3 -6 -6 -6 -6 -6 -6 -7 -7 -4 -6 -7 -6 -5 -5 -6 -5 -6 -6 -5 -6 -6 -6 -6 -6 -6 -5 -5 -5 -5 -5 -5 -5 -6 -6 -6 -7 -7 -6
-3 -3 -3 -3 -3 -3 -4 -6 -5 -4 -5 -5 -5 -6 -5 -5 -6 -6 -6 -6 -6 -6 -6 -6 -6 -7 -6 -7 -7 -7 -7 -6 -5 -5 -5 -5 -5 -5 -6 -6 -6 -7 -7 -7
-4 -3 -4 -4 -4 -4 -4 -4 -5 -6 -6 -6 -5 -5 -5 -6 -6 -6 -6 -6 -5 -6 -6 -6 -7 -7 -6 -6 -7 -7 -7 -6 -6 -5 -5 -6 -6 -6 -6 -6 -7 -7 -8 -7
-5 -4 -4 -4 -5 -5 -4 -5 -6 -6 -6 -6 -5 -6 -5 -5 -5 -6 -6 -6 -6 -6 -6 -5 -7 -7 -6 -6 -7 -7 -7 -7 -6 -5 -6 -6 -6 -6 -6 -7 -7 -7 -7 -7
-6 -5 -5 -5 -4 -5 -4 -4 -6 -6 -6 -6 -6 -4 -5 -5 -6 -6 -5 -5 -6 -5 -5 -4 -6 -6 -6 -6 -7 -7 -7 -7 -7 -6 -6 -6 -6 -6 -7 -7 -7 -8 -7 -8
-7 -7 -6 -5 -4 -5 -5 -5 -6 -5 -6 -7 -6 -4 -5 -5 -6 -6 -5 -6 -6 -6 -6 -6 -6 -7 -6 -6 -7 -7 -7 -7 -7 -6 -6 -5 -5 -6 -7 -7 -7 -8 -8 -8
-9 -7 -7 -6 -6 -6 -5 -6 -5 -6 -6 -5 -6 -2 -5 -5 -6 -7 -5 -6 -6 -7 -7 -7 -7 -7 -6 -7 -7 -7 -7 -7 -7 -7 -6 -6 -6 -7 -7 -7 -8 -8 -8 -8
-10 -9 -6 -5 -5 -7 -6 -6 -6 -6 -5 -4 -3 -4 -4 -5 -6 -6 -8 -8 -7 -8 -7 -7 -7 -7 -6 -7 -7 -7 -7 -7 -8 -7 -6 -6 -6 -7 -7 -8 -8 -8 -8 -8
-10 -10 -9 -7 -7 -8 -7 -7 -8 -7 -5 -6 -4 -5 -5 -5 -6 -7 -7 -7 -7 -8 -7 -7 -7 -7 -6 -6 -6 -6 -7 -7 -7 -7 -7 -7 -7 -8 -8 -8 -8 -8 -8 -8
-10 -10 -10 -9 -9 -9 -8 -8 -8 -8 -7 -6 -6 -4 -6 -7 -6 -7 -7 -8 -7 -7 -8 -8 -7 -7 -6 -6 -6 -6 -6 -7 -7 -7 -7 -7 -7 -7 -8 -8 -8 -8 -8 -8
-10 -10 -10 -9 -9 -10 -9 -6 -8 -8 -8 -8 -6 -4 -6 -7 -6 -6 -7 -8 -8 -7 -8 -8 -8 -8 -7 -7 -7 -6 -6 -7 -7 -7 -7 -7 -7 -7 -8 -8 -8 -8 -8 -8
-10 -11 -11 -11 -10 -10 -5 -7 -8 -9 -9 -8 -8 -7 -6 -6 -7 -6 -7 -7 -8 -5 -7 -9 -9 -9 -8 -7 -7 -7 -6 -6 -7 -8 -7 -8 -8 -7 -8 -8 -8 -8 -8 -9
-11 -12 -11 -11 -11 -10 -9 -7 -8 -9 -9 -9 -9 -9 -8 -8 -7 -7 -6 -7 -7 -7 -7 -8 -9 -8 -9 -9 -8 -8 -7 -6 -6 -7 -8 -8 -8 -8 -8 -8 -8 -8 -9 -9
-12 -13 -13 -12 -12 -10 -8 -9 -9 -9 -9 -9 -9 -9 -9 -6 -5 -6 -7 -7 -7 -8 -7 -8 -8 -8 -8 -9 -9 -8 -8 -7 -7 -7 -8 -8 -8 -8 -8 -9 -9 -9 -8 -9
-14 -14 -13 -12 -12 -10 -10 -10 -10 -10 -9 -9 -8 -8 -8 -8 -6 -6 -7 -7 -7 -7 -8 -8 -8 -8 -7 -8 -8 -8 -7 -7 -7 -8 -8 -8 -8 -9 -8 -9 -9 -8 -9 -9
-15 -14 -13 -13 -13 -12 -11 -11 -10 -10 -9 -9 -8 -8 -9 -8 -8 -8 -7 -7 -7 -7 -7 -8 -8 -9 -9 -9 -7 -8 -7 -7 -8 -8 -8 -8 -8 -9 -9 -9 -8 -9 -9 -9
-15 -13 -12 -12 -13 -13 -12 -11 -10 -10 -9 -9 -10 -9 -8 -8 -8 -8 -7 -6 -8 -9 -8 -7 -7 -8 -9 -9 -9 -8 -7 -8 -8 -8 -8 -8 -9 -9 -9 -8 -9 -9 -9 -9
-15 -13 -13 -12 -12 -10 -11 -11 -10 -8 -8 -9 -9 -9 -9 -9 -9 -8 -8 -8 -7 -9 -9 -9 -8 -9 -8 -9 -9 -9 -8 -8 -8 -8 -8 -9 -9 -9 -9 -9 -9 -9 -9 -9
-15 -14 -13 -12 -12 -11 -11 -10 -10 -10 -9 -8 -10 -9 -10 -9 -8 -8 -9 -9 -8 -9 -9 -9 -9 -9 -9 -9 -9 -9 -9 -8 -8 -8 -8 -9 -9 -9 -9 -9 -9 -9 -9 -9
-15 -14 -13 -11 -12 -11 -11 -10 -10 -11 -11 -10 -9 -9 -9 -9 -9 -10 -9 -8 -8 -9 -9 -10 -9 -10 -10 -10 -10 -9 -9 -9 -9 -8 -9 -9 -9 -9 -9 -10 -9 -10 -10 -10

GFSCGP_500_temp_015.txt.gz
Temp
-3 -3 -3 -3 -4 -5 -6 -7 -7 -7 -7 -7 -6 -6 -6 -8 -8 -8 -8 -8 -6 -6 -6 -5 -6 -5 -5 -5 -5 -5 -5 -5 -5 -6 -6 -6 -6 -7 -6 -6 -6 -6 -7 -7
-2 -3 -4 -4 -4 -5 -6 -6 -7 -8 -8 -7 -7 -7 -7 -7 -8 -8 -8 -7 -7 -6 -6 -6 -6 -5 -5 -5 -5 -5 -5 -5 -5 -5 -5 -5 -6 -6 -6 -6 -6 -6 -7 -7
-3 -3 -4 -4 -4 -5 -5 -5 -7 -8 -8 -8 -8 -6 -5 -6 -8 -7 -7 -8 -6 -6 -5 -5 -5 -5 -5 -5 -5 -5 -5 -5 -5 -5 -5 -5 -5 -5 -6 -6 -6 -6 -7 -7
-3 -3 -3 -3 -4 -4 -5 -5 -7 -8 -8 -8 -7 -6 -5 -5 -6 -6 -7 -7 -7 -6 -5 -5 -5 -5 -6 -5 -5 -5 -5 -5 -4 -5 -5 -5 -5 -5 -5 -6 -6 -6 -6 -7
-3 -4 -3 -3 -3 -4 -5 -6 -7 -8 -8 -8 -8 -6 -5 -4 -4 -5 -6 -7 -8 -7 -6 -6 -5 -5 -6 -6 -5 -5 -5 -5 -4 -4 -4 -5 -5 -5 -5 -5 -6 -6 -6 -6
-3 -3 -3 -3 -3 -4 -5 -7 -7 -8 -8 -8 -6 -6 -5 -4 -4 -6 -6 -6 -7 -7 -7 -7 -5 -5 -5 -5 -6 -5 -5 -5 -5 -5 -5 -5 -5 -5 -6 -6 -6 -6 -6 -6
-3 -3 -3 -3 -3 -3 -4 -6 -6 -6 -7 -3 -6 -6 -3 -5 -5 -5 -5 -6 -6 -6 -7 -7 -6 -6 -5 -4 -5 -5 -5 -5 -6 -6 -5 -5 -5 -5 -5 -6 -6 -6 -6 -6
-3 -4 -3 -3 -3 -3 -3 -4 -4 -3 -4 -3 -5 -4 -2 -5 -6 -5 -6 -6 -6 -5 -6 -6 -6 -6 -6 -5 -5 -5 -5 -5 -6 -6 -7 -6 -6 -6 -5 -6 -6 -6 -6 -6
-4 -3 -4 -3 -4 -4 -4 -4 -4 -5 -5 -5 -4 -4 -4 -5 -5 -6 -6 -6 -6 -6 -6 -6 -6 -6 -7 -5 -6 -6 -6 -6 -7 -7 -7 -7 -6 -6 -7 -6 -6 -6 -6 -6
-4 -4 -4 -5 -5 -4 -4 -4 -4 -4 -4 -4 -3 -3 -2 -4 -5 -6 -6 -5 -5 -5 -6 -6 -6 -6 -7 -6 -6 -6 -6 -7 -7 -7 -7 -6 -6 -6 -6 -7 -7 -7 -6 -7
-3 -3 -4 -5 -5 -4 -4 -3 -3 -4 -4 -3 -3 -2 -3 -4 -5 -6 -6 -6 -6 -6 -6 -6 -6 -6 -6 -7 -6 -6 -7 -7 -7 -7 -7 -7 -6 -6 -6 -7 -8 -7 -7 -7
-4 -3 -3 -4 -5 -5 -4 -5 -5 -4 -2 -2 -2 -2 -2 -4 -5 -5 -6 -6 -6 -6 -6 -6 -7 -7 -7 -7 -6 -6 -7 -7 -7 -7 -7 -7 -6 -6 -6 -7 -8 -7 -7 -8
-5 -4 -4 -3 -5 -5 -4 -4 -5 -4 -3 -3 -3 -2 -3 -4 -5 -5 -6 -6 -6 -6 -6 -6 -6 -7 -7 -7 -6 -7 -7 -7 -7 -7 -7 -6 -7 -6 -6 -6 -7 -8 -8 -8
-5 -5 -4 -3 -4 -5 -4 -4 -4 -3 -3 -2 -2 -2 -3 -4 -4 -5 -6 -7 -6 -7 -6 -5 -5 -6 -7 -7 -7 -7 -7 -7 -7 -7 -7 -7 -7 -7 -6 -6 -6 -7 -8 -8
-7 -5 -5 -4 -4 -5 -4 -4 -4 -3 -2 -2 -2 -2 -3 -4 -4 -4 -6 -6 -6 -6 -6 -5 -5 -5 -6 -6 -7 -8 -8 -8 -7 -7 -6 -7 -7 -7 -7 -6 -6 -7 -7 -8
-8 -7 -7 -5 -4 -5 -5 -3 -3 -2 -3 -4 -3 -3 -3 -4 -4 -5 -5 -6 -6 -5 -5 -5 -5 -6 -6 -6 -5 -7 -8 -7 -8 -7 -7 -7 -7 -7 -7 -7 -7 -7 -7 -8
-10 -9 -8 -6 -6 -6 -5 -3 -3 -3 -3 -4 -3 -3 -3 -4 -4 -4 -4 -4 -5 -6 -6 -6 -6 -6 -6 -5 -6 -6 -7 -7 -7 -7 -7 -7 -7 -7 -7 -7 -7 -8 -7 -8
-11 -11 -10 -8 -9 -8 -3 -5 -6 -5 -4 -4 -4 -4 -4 -5 -5 -4 -4 -5 -5 -6 -6 -6 -6 -6 -5 -6 -6 -5 -7 -7 -7 -7 -7 -7 -7 -7 -7 -8 -8 -8 -8 -8
-13 -12 -11 -10 -9 -7 -6 -7 -7 -7 -6 -5 -4 -4 -4 -5 -6 -5 -4 -5 -5 -6 -6 -6 -6 -6 -6 -5 -6 -6 -6 -6 -7 -7 -7 -8 -8 -8 -7 -8 -8 -8 -8 -8
-13 -14 -13 -12 -11 -10 -8 -9 -8 -7 -8 -6 -5 -5 -6 -6 -4 -5 -5 -5 -5 -5 -6 -7 -7 -6 -6 -6 -7 -7 -7 -7 -7 -6 -7 -8 -8 -8 -8 -8 -8 -9 -8 -9
-16 -14 -14 -13 -12 -11 -10 -10 -10 -10 -6 -7 -6 -7 -8 -7 -6 -7 -6 -6 -5 -5 -6 -6 -7 -7 -7 -7 -8 -7 -7 -7 -7 -7 -8 -8 -9 -9 -8 -8 -8 -8 -9 -9
-18 -17 -15 -13 -14 -13 -12 -11 -11 -11 -9 -8 -7 -8 -8 -9 -8 -8 -7 -7 -6 -5 -6 -6 -6 -7 -8 -7 -8 -8 -8 -9 -8 -9 -8 -9 -9 -9 -9 -9 -8 -8 -9 -9
-19 -17 -16 -15 -13 -13 -13 -12 -11 -11 -11 -10 -8 -8 -8 -8 -9 -9 -8 -7 -7 -6 -6 -6 -7 -8 -8 -8 -8 -9 -8 -9 -9 -9 -9 -8 -9 -9 -9 -10 -9 -9 -9 -9
-20 -18 -17 -16 -15 -13 -14 -12 -12 -11 -11 -11 -10 -9 -9 -8 -9 -9 -9 -8 -7 -7 -7 -7 -7 -8 -8 -8 -8 -8 -9 -9 -8 -8 -9 -9 -9 -9 -9 -8 -10 -10 -9 -9
-20 -19 -17 -16 -15 -13 -13 -13 -12 -11 -11 -11 -11 -11 -9 -9 -9 -9 -9 -9 -9 -8 -7 -7 -7 -8 -9 -9 -9 -8 -8 -8 -8 -9 -8 -8 -9 -9 -10 -9 -9 -9 -8 -9
-19 -18 -18 -17 -15 -14 -12 -11 -11 -11 -11 -11 -11 -10 -9 -9 -9 -9 -9 -9 -9 -8 -8 -8 -9 -9 -9 -9 -8 -8 -8 -8 -8 -8 -9 -9 -9 -9 -9 -9 -9 -9 -9 -9

GFSCGP_500_temp_018.txt.gz
Temp
-3 -3 -3 -4 -4 -5 -6 -6 -7 -8 -7 -7 -7 -6 -7 -8 -8 -8 -8 -9 -7 -6 -6 -5 -5 -5 -5 -5 -5 -5 -6 -6 -6 -6 -6 -6 -6 -6 -6 -6 -7 -7 -7 -7
-3 -3 -4 -5 -5 -5 -5 -6 -7 -8 -8 -8 -7 -6 -7 -7 -8 -8 -7 -9 -8 -6 -6 -6 -6 -5 -5 -6 -5 -5 -5 -6 -6 -6 -6 -6 -6 -6 -6 -6 -6 -7 -7 -7
-3 -4 -4 -4 -5 -5 -5 -5 -7 -8 -8 -8 -8 -6 -6 -7 -8 -8 -8 -8 -7 -6 -6 -6 -5 -5 -5 -6 -6 -5 -5 -5 -6 -6 -6 -6 -6 -6 -6 -6 -6 -6 -6 -6
-3 -3 -4 -4 -4 -5 -5 -5 -7 -8 -8 -8 -9 -5 -6 -6 -7 -8 -8 -9 -7 -7 -6 -6 -5 -5 -5 -5 -5 -5 -6 -5 -5 -5 -6 -5 -5 -5 -6 -6 -6 -6 -6 -6
-3 -4 -4 -4 -4 -4 -5 -6 -7 -8 -8 -8 -8 -6 -5 -6 -6 -7 -8 -8 -8 -7 -6 -6 -6 -5 -4 -5 -5 -5 -5 -5 -5 -5 -5 -5 -5 -5 -6 -6 -6 -6 -6 -6
-3 -3 -3 -4 -4 -4 -5 -6 -7 -7 -7 -7 -5 -6 -4 -4 -5 -7 -7 -7 -7 -7 -7 -6 -6 -5 -5 -5 -5 -5 -5 -5 -5 -5 -5 -5 -5 -5 -5 -5 -5 -6 -6 -6
-3 -3 -3 -3 -3 -3 -4 -5 -6 -7 -6 -2 -5 -5 -2 -4 -5 -6 -7 -7 -7 -7 -7 -6 -6 -7 -7 -6 -5 -5 -5 -5 -5 -5 -5 -5 -5 -5 -5 -5 -6 -6 -6 -6
-4 -3 -3 -3 -3 -4 -4 -4 -4 -3 -3 -2 -5 -3 -2 -4 -5 -6 -7 -7 -7 -7 -7 -6 -7 -7 -7 -7 -6 -5 -5 -5 -5 -5 -6 -6 -5 -5 -5 -6 -6 -6 -6 -6
-3 -3 -4 -3 -4 -4 -4 -4 -4 -4 -4 -4 -4 -3 -4 -4 -5 -6 -6 -7 -6 -6 -7 -6 -6 -6 -7 -7 -7 -6 -5 -5 -6 -6 -6 -7 -7 -6 -6 -6 -6 -6 -6 -6
-4 -4 -4 -5 -4 -4 -4 -5 -6 -5 -4 -3 -3 -2 -3 -4 -5 -5 -5 -6 -6 -6 -7 -7 -6 -6 -6 -7 -7 -6 -5 -6 -5 -6 -7 -7 -7 -7 -6 -6 -7 -7 -6 -6
-5 -4 -4 -5 -4 -4 -4 -3 -4 -4 -4 -4 -3 -2 -3 -4 -4 -5 -6 -6 -6 -6 -6 -7 -7 -7 -7 -7 -7 -6 -6 -6 -6 -6 -7 -7 -7 -7 -7 -6 -7 -7 -7 -7
-5 -5 -4 -4 -4 -4 -4 -4 -5 -5 -3 -3 -3 -1 -2 -3 -4 -5 -6 -6 -6 -6 -6 -6 -7 -7 -7 -7 -7 -7 -7 -6 -7 -7 -8 -8 -7 -7 -7 -7 -7 -7 -7 -7
-6 -5 -5 -5 -5 -4 -4 -3 -3 -4 -3 -3 -3 -1 -3 -3 -4 -4 -5 -6 -6 -6 -6 -6 -6 -7 -7 -7 -6 -7 -7 -7 -8 -8 -7 -8 -8 -7 -8 -7 -6 -6 -7 -8
-7 -6 -5 -5 -5 -5 -4 -4 -3 -3 -3 -2 -1 -2 -2 -3 -4 -5 -5 -5 -6 -7 -6 -6 -6 -6 -6 -6 -6 -6 -7 -8 -8 -8 -7 -7 -8 -8 -8 -7 -6 -6 -7 -8
-8 -7 -6 -6 -6 -5 -5 -4 -4 -3 -3 -2 -2 -2 -2 -3 -4 -5 -5 -5 -5 -6 -6 -6 -6 -6 -6 -6 -6 -6 -6 -7 -8 -7 -7 -7 -8 -8 -7 -7 -7 -6 -6 -8
-9 -8 -7 -6 -6 -6 -5 -5 -4 -4 -3 -2 -2 -1 -2 -3 -4 -4 -4 -4 -4 -4 -6 -7 -7 -6 -6 -6 -6 -6 -7 -7 -7 -7 -7 -7 -7 -7 -7 -8 -7 -7 -6 -7
-10 -9 -9 -7 -6 -6 -5 -5 -5 -4 -4 -3 -3 -2 -2 -3 -4 -4 -4 -4 -3 -4 -4 -5 -7 -6 -6 -6 -6 -6 -7 -8 -7 -7 -7 -7 -7 -7 -8 -8 -8 -7 -7 -7
-11 -10 -10 -8 -8 -6 -5 -6 -6 -5 -5 -4 -4 -3 -3 -3 -4 -4 -5 -5 -5 -4 -4 -5 -5 -5 -5 -6 -6 -6 -6 -7 -7 -7 -7 -7 -7 -8 -8 -8 -8 -8 -8 -8
-13 -12 -10 -10 -8 -6 -6 -6 -7 -6 -5 -5 -5 -5 -4 -3 -3 -4 -5 -5 -5 -5 -5 -5 -6 -6 -6 -6 -6 -6 -6 -6 -6 -6 -7 -7 -8 -8 -8 -7 -8 -8 -8 -8
-14 -13 -13 -11 -9 -6 -6 -8 -6 -6 -4 -6 -6 -6 -5 -4 -3 -3 -5 -5 -5 -5 -5 -5 -6 -6 -6 -6 -6 -6 -7 -7 -7 -7 -7 -7 -8 -8 -8 -8 -8 -8 -8 -9
-15 -14 -13 -12 -11 -7 -7 -7 -8 -6 -4 -6 -6 -7 -7 -5 -5 -6 -5 -5 -5 -5 -5 -5 -5 -6 -7 -7 -7 -6 -7 -6 -7 -8 -8 -8 -8 -7 -8 -8 -9 -9 -8 -8
-17 -16 -13 -13 -13 -10 -8 -8 -8 -7 -7 -6 -7 -8 -7 -7 -6 -6 -6 -6 -6 -6 -6 -6 -6 -6 -7 -7 -7 -7 -8 -8 -8 -8 -8 -8 -8 -8 -9 -8 -8 -9 -9 -9
-18 -16 -16 -14 -13 -13 -11 -11 -10 -8 -9 -8 -8 -7 -7 -8 -8 -7 -7 -8 -8 -7 -7 -7 -6 -6 -8 -8 -8 -8 -8 -8 -8 -8 -9 -8 -8 -8 -9 -8 -9 -8 -9 -9
-21 -20 -17 -15 -13 -14 -12 -12 -11 -10 -9 -10 -11 -10 -8 -8 -8 -8 -8 -9 -9 -9 -7 -7 -7 -6 -7 -7 -8 -8 -8 -8 -8 -9 -9 -8 -9 -8 -9 -9 -8 -8 -9 -9
-22 -21 -20 -17 -15 -14 -13 -13 -14 -13 -12 -12 -11 -11 -11 -10 -9 -9 -9 -9 -9 -9 -9 -7 -7 -7 -7 -7 -7 -7 -8 -8 -8 -9 -9 -8 -9 -9 -9 -9 -9 -9 -8 -9
-21 -21 -20 -18 -17 -15 -14 -13 -13 -14 -12 -12 -12 -11 -11 -11 -10 -10 -10 -9 -9 -8 -8 -8 -7 -7 -7 -7 -7 -8 -8 -9 -9 -9 -9 -8 -8 -8 -9 -9 -9 -9 -9 -9

GFSCGP_500_temp_021.txt.gz
Temp
-4 -3 -3 -5 -4 -5 -6 -6 -7 -7 -7 -6 -6 -7 -8 -8 -7 -8 -8 -8 -7 -7 -6 -5 -5 -5 -5 -5 -6 -6 -6 -6 -6 -6 -6 -6 -6 -6 -6 -6 -6 -6 -7 -7
-3 -4 -5 -5 -5 -5 -5 -6 -7 -8 -7 -6 -6 -7 -8 -7 -8 -8 -8 -9 -8 -6 -6 -5 -5 -5 -5 -6 -6 -6 -6 -6 -6 -6 -6 -6 -6 -6 -6 -6 -6 -6 -6 -6
-3 -4 -4 -4 -4 -4 -5 -5 -6 -7 -8 -6 -7 -6 -7 -7 -8 -8 -8 -7 -7 -6 -6 -6 -5 -5 -5 -6 -6 -6 -6 -6 -6 -6 -6 -6 -6 -6 -6 -6 -6 -6 -6 -6
-3 -3 -4 -4 -4 -4 -4 -6 -7 -7 -8 -8 -7 -5 -7 -7 -8 -7 -8 -7 -6 -6 -6 -5 -5 -5 -5 -5 -5 -6 -6 -6 -6 -6 -6 -6 -6 -6 -6 -6 -6 -6 -6 -6
-3 -4 -4 -4 -5 -5 -5 -6 -7 -8 -8 -8 -7 -6 -6 -6 -7 -7 -8 -8 -6 -6 -6 -5 -5 -5 -5 -4 -5 -5 -5 -5 -6 -6 -6 -6 -6 -5 -6 -6 -6 -6 -6 -6
-4 -4 -3 -4 -4 -4 -5 -6 -7 -7 -8 -6 -6 -5 -5 -5 -6 -7 -8 -8 -7 -7 -6 -5 -5 -4 -4 -5 -5 -5 -5 -5 -5 -5 -5 -6 -6 -6 -6 -6 -6 -6 -6 -6
-4 -3 -3 -3 -4 -4 -3 -5 -6 -6 -5 -2 -6 -6 -3 -5 -6 -7 -8 -7 -7 -7 -6 -6 -5 -5 -5 -5 -5 -5 -5 -5 -5 -5 -5 -5 -6 -6 -6 -6 -6 -6 -6 -6
-4 -3 -3 -3 -3 -4 -4 -4 -3 -3 -3 -4 -5 -2 -3 -5 -5 -7 -8 -8 -7 -6 -7 -6 -6 -6 -6 -5 -5 -5 -5 -5 -5 -5 -5 -5 -5 -5 -6 -6 -6 -7 -6 -6
-4 -4 -4 -4 -4 -5 -4 -4 -5 -5 -4 -4 -3 -3 -4 -4 -5 -6 -7 -7 -7 -6 -6 -6 -7 -6 -5 -5 -6 -6 -6 -6 -5 -6 -5 -6 -6 -6 -6 -6 -7 -6 -7 -6
-5 -4 -4 -5 -5 -5 -4 -5 -5 -5 -4 -4 -2 -2 -2 -4 -5 -6 -7 -7 -7 -6 -6 -7 -7 -6 -6 -6 -6 -6 -6 -6 -6 -6 -6 -6 -7 -7 -7 -7 -7 -7 -7 -7
-5 -5 -5 -5 -3 -4 -4 -3 -3 -4 -4 -3 -2 -2 -3 -4 -5 -5 -6 -7 -7 -7 -7 -7 -7 -7 -7 -7 -6 -7 -6 -6 -6 -6 -7 -7 -7 -7 -7 -7 -7 -7 -7 -7
-6 -5 -5 -5 -5 -5 -5 -5 -5 -5 -4 -3 -3 -2 -2 -3 -4 -5 -6 -6 -7 -7 -7 -7 -7 -7 -7 -7 -7 -7 -7 -6 -6 -7 -8 -8 -7 -8 -8 -8 -7 -7 -7 -6
-6 -6 -6 -5 -5 -5 -4 -4 -4 -4 -4 -2 -2 -1 -3 -3 -4 -4 -5 -6 -6 -7 -7 -7 -7 -7 -7 -7 -7 -7 -7 -6 -7 -7 -7 -8 -8 -8 -8 -9 -7 -7 -7 -7
-7 -7 -7 -6 -5 -6 -5 -4 -4 -4 -3 -2 -1 -2 -2 -3 -3 -4 -5 -5 -6 -6 -7 -7 -7 -7 -7 -7 -7 -6 -6 -7 -7 -7 -7 -7 -7 -8 -8 -9 -7 -7 -7 -6
-9 -8 -7 -7 -6 -6 -5 -5 -5 -4 -4 -3 -2 -2 -2 -3 -4 -4 -5 -5 -5 -6 -6 -7 -7 -6 -6 -7 -7 -7 -6 -6 -6 -6 -6 -7 -8 -8 -8 -8 -8 -8 -7 -7
-9 -9 -8 -8 -7 -6 -6 -5 -5 -5 -4 -4 -3 -3 -2 -3 -3 -4 -4 -4 -5 -5 -6 -6 -6 -6 -6 -7 -7 -7 -6 -6 -7 -6 -6 -7 -7 -8 -8 -7 -7 -7 -7 -7
-10 -9 -9 -8 -8 -7 -6 -5 -5 -6 -5 -5 -3 -3 -3 -3 -3 -4 -4 -3 -4 -5 -5 -5 -6 -6 -6 -6 -6 -7 -7 -7 -7 -7 -8 -7 -7 -7 -7 -7 -8 -8 -8 -8
-11 -10 -10 -9 -8 -7 -6 -6 -6 -6 -6 -5 -4 -4 -4 -4 -4 -4 -4 -4 -3 -4 -4 -4 -5 -5 -5 -6 -6 -7 -7 -7 -6 -7 -7 -7 -7 -7 -7 -7 -7 -8 -8 -8
-12 -12 -11 -10 -9 -7 -6 -6 -6 -6 -5 -5 -5 -4 -4 -4 -4 -4 -4 -4 -4 -4 -4 -4 -4 -4 -5 -5 -5 -6 -7 -7 -6 -6 -7 -7 -6 -7 -7 -7 -8 -8 -8 -8
-13 -13 -12 -10 -9 -8 -7 -7 -6 -6 -5 -6 -5 -5 -5 -5 -4 -4 -5 -5 -5 -4 -4 -4 -4 -4 -4 -4 -4 -5 -6 -7 -6 -6 -7 -7 -7 -8 -8 -8 -8 -8 -8 -8
-15 -13 -12 -12 -10 -8 -7 -8 -7 -6 -6 -6 -6 -6 -5 -5 -5 -5 -5 -5 -5 -6 -5 -5 -5 -5 -5 -5 -4 -4 -5 -6 -7 -7 -7 -7 -7 -7 -8 -8 -8 -8 -8 -8
-17 -15 -13 -12 -10 -8 -7 -9 -7 -7 -7 -6 -6 -6 -6 -6 -5 -5 -5 -5 -6 -6 -6 -5 -5 -5 -5 -5 -5 -5 -5 -6 -6 -6 -7 -7 -7 -7 -7 -7 -7 -7 -7 -7
-17 -16 -15 -13 -10 -9 -8 -9 -9 -8 -8 -7 -7 -7 -6 -7 -7 -6 -6 -6 -6 -6 -6 -6 -5 -6 -6 -6 -6 -5 -5 -5 -5 -6 -7 -7 -8 -8 -8 -8 -8 -8 -8 -7
-18 -18 -15 -14 -12 -9 -10 -9 -8 -8 -8 -8 -8 -8 -7 -7 -8 -8 -7 -7 -6 -6 -6 -6 -6 -6 -6 -6 -6 -6 -6 -6 -7 -7 -8 -8 -8 -8 -8 -8 -8 -8 -8 -9
-21 -19 -16 -14 -12 -12 -11 -11 -9 -8 -8 -9 -8 -8 -8 -8 -8 -8 -8 -8 -8 -7 -6 -7 -7 -7 -6 -6 -6 -6 -7 -7 -8 -8 -8 -8 -8 -8 -8 -8 -8 -9 -8 -8
-21 -21 -18 -15 -14 -12 -12 -10 -10 -9 -9 -10 -9 -9 -9 -10 -9 -9 -9 -9 -8 -8 -8 -7 -7 -7 -7 -7 -7 -7 -7 -8 -8 -8 -8 -8 -8 -8 -8 -8 -8 -9 -9 -8

GFSCGP_500_temp_024.txt.gz
Temp
-4 -4 -3 -4 -4 -5 -5 -5 -6 -6 -6 -7 -8 -8 -8 -8 -7 -7 -7 -7 -7 -7 -6 -6 -6 -5 -5 -5 -5 -6 -6 -6 -6 -6 -6 -6 -6 -6 -6 -6 -6 -6 -6 -6
-4 -4 -5 -5 -5 -5 -5 -5 -6 -7 -7 -7 -8 -8 -8 -8 -7 -8 -7 -7 -6 -6 -6 -5 -5 -5 -5 -5 -5 -6 -6 -6 -6 -6 -6 -6 -6 -6 -6 -6 -6 -6 -6 -6
-4 -5 -5 -5 -4 -4 -5 -5 -6 -7 -7 -7 -7 -7 -8 -8 -8 -8 -7 -7 -7 -6 -5 -5 -5 -5 -5 -5 -5 -6 -6 -6 -6 -6 -6 -6 -6 -7 -6 -6 -6 -6 -6 -6
-4 -4 -4 -4 -4 -4 -4 -5 -6 -7 -7 -7 -7 -7 -7 -7 -8 -7 -7 -7 -7 -6 -5 -5 -5 -5 -5 -6 -6 -6 -6 -6 -6 -6 -6 -6 -6 -6 -6 -6 -6 -6 -6 -6
-3 -4 -5 -4 -5 -5 -5 -6 -6 -7 -7 -7 -7 -6 -7 -7 -7 -7 -7 -8 -8 -7 -5 -5 -5 -5 -5 -5 -5 -5 -5 -5 -6 -6 -6 -6 -5 -5 -6 -6 -6 -6 -6 -6
-4 -4 -4 -5 -5 -4 -5 -5 -5 -6 -7 -6 -5 -6 -5 -6 -6 -7 -7 -7 -7 -7 -5 -5 -5 -5 -4 -4 -5 -5 -5 -5 -5 -5 -5 -5 -5 -5 -6 -6 -6 -6 -6 -6
-4 -3 -4 -4 -4 -4 -4 -4 -5 -5 -5 -3 -5 -5 -4 -6 -6 -7 -7 -7 -7 -7 -6 -5 -5 -5 -4 -5 -5 -5 -5 -5 -5 -6 -6 -6 -6 -5 -6 -6 -6 -6 -6 -6
-4 -4 -4 -4 -4 -4 -3 -4 -3 -3 -4 -4 -4 -3 -3 -5 -6 -6 -7 -7 -7 -6 -6 -5 -5 -5 -5 -5 -5 -5 -5 -5 -5 -5 -5 -5 -5 -5 -5 -6 -6 -6 -6 -6
-4 -4 -4 -4 -4 -4 -4 -3 -4 -5 -4 -4 -4 -3 -4 -4 -5 -6 -7 -7 -6 -6 -6 -5 -6 -5 -5 -5 -5 -5 -5 -5 -5 -5 -5 -5 -5 -6 -6 -6 -6 -6 -6 -6
-5 -5 -4 -5 -5 -5 -4 -5 -5 -5 -4 -4 -3 -3 -3 -4 -5 -6 -6 -6 -6 -6 -7 -6 -6 -6 -6 -5 -5 -5 -5 -5 -5 -5 -5 -5 -6 -6 -6 -6 -7 -6 -6 -6
-6 -5 -5 -5 -4 -4 -4 -4 -4 -5 -4 -4 -4 -3 -3 -4 -5 -5 -6 -6 -6 -6 -6 -6 -6 -6 -6 -6 -6 -6 -5 -4 -5 -5 -5 -6 -6 -7 -7 -7 -7 -7 -7 -7
-6 -6 -6 -5 -5 -5 -5 -5 -5 -4 -3 -3 -3 -6 -2 -4 -5 -5 -6 -6 -7 -7 -7 -7 -7 -7 -6 -6 -6 -6 -6 -6 -6 -6 -6 -6 -6 -7 -7 -7 -7 -7 -7 -7
-6 -6 -7 -6 -6 -5 -5 -5 -4 -5 -5 -4 -4 -3 -2 -3 -4 -5 -5 -6 -6 -5 -6 -7 -7 -7 -7 -7 -6 -6 -6 -6 -6 -6 -6 -6 -6 -7 -7 -7 -7 -7 -7 -7
-7 -7 -7 -6 -6 -6 -5 -4 -5 -5 -4 -3 -3 -4 -2 -3 -4 -4 -5 -6 -6 -6 -6 -7 -6 -6 -6 -6 -7 -6 -7 -7 -6 -6 -6 -6 -7 -7 -8 -8 -8 -6 -7 -7
-9 -8 -7 -7 -6 -6 -5 -5 -5 -4 -4 -3 -4 -3 -3 -3 -4 -5 -4 -5 -6 -6 -6 -7 -7 -6 -7 -7 -7 -7 -7 -7 -6 -6 -6 -6 -7 -7 -7 -8 -8 -7 -7 -7
-10 -9 -8 -7 -7 -6 -5 -5 -5 -5 -4 -4 -4 -3 -3 -3 -4 -4 -5 -5 -5 -5 -6 -6 -6 -7 -7 -7 -7 -7 -7 -7 -6 -6 -6 -7 -7 -6 -7 -8 -8 -7 -7 -7
-10 -10 -8 -8 -8 -8 -6 -5 -5 -5 -5 -5 -4 -4 -5 -4 -4 -5 -5 -5 -5 -5 -5 -6 -6 -5 -6 -6 -6 -7 -7 -6 -6 -6 -6 -6 -7 -7 -6 -7 -8 -8 -8 -8
-11 -10 -10 -10 -8 -8 -6 -7 -7 -7 -6 -6 -5 -5 -4 -4 -4 -5 -5 -5 -4 -4 -5 -5 -5 -5 -5 -5 -6 -6 -6 -6 -6 -6 -7 -6 -7 -7 -7 -7 -7 -7 -7 -7
-12 -11 -11 -10 -9 -9 -8 -7 -7 -7 -6 -6 -5 -5 -5 -4 -4 -5 -5 -5 -5 -5 -5 -5 -5 -4 -5 -5 -6 -6 -6 -6 -6 -6 -6 -7 -7 -7 -7 -7 -7 -7 -7 -7
-14 -13 -11 -11 -10 -9 -9 -8 -7 -6 -7 -7 -6 -6 -6 -5 -5 -5 -6 -5 -5 -5 -5 -4 -5 -5 -5 -5 -6 -6 -6 -6 -6 -7 -7 -7 -7 -7 -7 -7 -7 -7 -7 -7
-16 -14 -12 -12 -10 -10 -10 -9 -7 -8 -9 -7 -7 -6 -6 -5 -5 -4 -5 -5 -5 -5 -5 -5 -4 -4 -4 -4 -4 -4 -5 -5 -6 -6 -7 -7 -7 -6 -7 -7 -6 -7 -7 -7
-17 -15 -14 -13 -11 -10 -9 -9 -8 -8 -8 -7 -6 -6 -6 -5 -5 -5 -5 -5 -5 -5 -5 -5 -5 -4 -4 -4 -4 -4 -5 -5 -5 -6 -6 -6 -6 -6 -7 -7 -7 -7 -7 -7
-18 -16 -16 -14 -12 -10 -11 -10 -8 -8 -8 -7 -7 -6 -6 -6 -6 -6 -5 -5 -5 -5 -6 -5 -5 -5 -5 -4 -4 -4 -5 -5 -5 -6 -6 -6 -6 -6 -6 -7 -7 -7 -7 -7
-18 -17 -15 -14 -11 -9 -8 -8 -9 -8 -9 -8 -8 -7 -7 -7 -6 -6 -6 -6 -5 -5 -5 -5 -6 -5 -5 -5 -5 -5 -5 -5 -5 -6 -6 -6 -7 -7 -7 -7 -7 -7 -7 -8
-18 -16 -15 -14 -12 -11 -10 -9 -9 -10 -9 -8 -8 -7 -7 -7 -7 -7 -7 -6 -6 -6 -6 -6 -6 -6 -6 -6 -6 -6 -6 -6 -5 -5 -5 -6 -6 -7 -7 -7 -7 -7 -8 -8
-19 -18 -15 -14 -14 -13 -11 -11 -9 -7 -8 -8 -8 -8 -8 -8 -8 -7 -7 -7 -7 -7 -7 -6 -6 -7 -7 -6 -6 -6 -6 -6 -6 -6 -6 -6 -6 -6 -6 -7 -7 -7 -7 -7

GFSCGP_500_temp_027.txt.gz
Temp
-4 -4 -3 -4 -4 -5 -6 -9 -8 -8 -8 -8 -8 -7 -8 -7 -9 -9 -7 -7 -6 -6 -6 -6 -6 -6 -5 -5 -6 -5 -5 -6 -6 -6 -6 -6 -6 -6 -6 -6 -6 -6 -6 -7
-4 -3 -4 -5 -5 -5 -6 -6 -8 -8 -8 -8 -8 -8 -8 -7 -8 -9 -9 -7 -6 -6 -6 -6 -6 -6 -5 -5 -5 -5 -6 -5 -6 -5 -5 -5 -6 -6 -6 -6 -6 -6 -6 -6
-4 -4 -5 -5 -4 -4 -5 -5 -7 -8 -8 -8 -8 -8 -8 -8 -8 -9 -8 -7 -6 -6 -6 -5 -5 -5 -5 -5 -5 -5 -5 -5 -5 -5 -5 -5 -6 -6 -6 -5 -5 -6 -6 -6
-4 -5 -5 -4 -4 -4 -5 -5 -6 -9 -9 -8 -8 -8 -8 -8 -8 -8 -7 -7 -6 -6 -6 -5 -5 -5 -5 -5 -5 -5 -5 -5 -5 -5 -5 -6 -5 -5 -5 -6 -6 -6 -6 -6
-3 -4 -4 -4 -4 -5 -4 -5 -6 -7 -9 -9 -8 -8 -7 -8 -8 -8 -8 -7 -7 -6 -6 -6 -5 -5 -5 -5 -5 -5 -5 -5 -5 -6 -6 -5 -5 -5 -6 -6 -6 -5 -6 -6
-5 -5 -5 -5 -5 -5 -5 -5 -5 -6 -7 -7 -7 -8 -7 -7 -7 -7 -8 -8 -7 -6 -6 -6 -5 -5 -4 -5 -4 -4 -4 -4 -5 -5 -5 -5 -5 -5 -6 -5 -5 -5 -6 -6
-4 -4 -5 -5 -5 -5 -5 -5 -5 -5 -5 -3 -6 -5 -6 -7 -7 -7 -8 -8 -8 -7 -6 -6 -5 -5 -4 -5 -4 -4 -4 -4 -5 -5 -5 -4 -5 -5 -5 -5 -5 -5 -6 -6
-5 -5 -4 -4 -4 -4 -4 -5 -4 -3 -4 -5 -5 -5 -4 -7 -8 -7 -8 -8 -8 -7 -6 -5 -5 -5 -4 -4 -5 -5 -5 -5 -5 -5 -5 -4 -4 -4 -4 -5 -5 -5 -5 -5
-5 -5 -5 -5 -5 -5 -4 -4 -4 -7 -7 -6 -6 -5 -7 -7 -8 -7 -7 -8 -8 -7 -6 -5 -5 -5 -4 -4 -5 -5 -5 -5 -5 -5 -4 -4 -4 -4 -4 -4 -5 -5 -5 -5
-7 -9 -6 -5 -5 -5 -5 -5 -5 -6 -7 -6 -6 -6 -6 -5 -5 -6 -5 -6 -6 -7 -6 -6 -5 -5 -5 -5 -5 -5 -4 -4 -4 -4 -4 -4 -4 -4 -4 -5 -5 -5 -5 -5
-7 -10 -9 -8 -4 -4 -4 -5 -5 -5 -5 -6 -6 -6 -6 -7 -5 -5 -5 -6 -6 -6 -6 -5 -5 -5 -5 -5 -5 -5 -4 -4 -4 -4 -4 -5 -5 -5 -5 -5 -6 -6 -6 -7
-7 -9 -8 -5 -5 -5 -5 -5 -4 -4 -4 -6 -6 -6 -6 -7 -5 -5 -5 -6 -6 -6 -6 -6 -6 -6 -6 -6 -6 -6 -6 -5 -5 -5 -5 -5 -5 -5 -5 -6 -6 -6 -6 -7
-11 -8 -8 -10 -9 -6 -5 -5 -5 -5 -6 -6 -6 -7 -5 -5 -5 -5 -5 -5 -6 -6 -6 -6 -6 -6 -6 -6 -6 -6 -5 -5 -5 -5 -5 -5 -5 -5 -6 -6 -6 -7 -7 -7
-7 -6 -6 -8 -6 -7 -5 -5 -5 -5 -5 -6 -6 -7 -6 -4 -5 -5 -5 -6 -6 -6 -6 -5 -6 -5 -5 -6 -6 -6 -5 -5 -5 -4 -5 -5 -6 -6 -6 -6 -6 -6 -7 -7
-9 -8 -7 -8 -10 -10 -7 -6 -5 -5 -5 -5 -7 -7 -8 -5 -5 -5 -5 -5 -5 -5 -5 -5 -6 -6 -5 -5 -5 -5 -5 -5 -5 -5 -5 -5 -6 -6 -6 -6 -7 -7 -7 -7
-10 -9 -9 -9 -10 -10 -9 -10 -6 -7 -5 -5 -7 -8 -8 -7 -5 -5 -5 -5 -5 -5 -5 -5 -6 -6 -6 -6 -6 -6 -6 -6 -6 -5 -5 -6 -6 -6 -6 -7 -7 -7 -7 -7
-10 -10 -10 -9 -9 -9 -8 -7 -7 -10 -7 -6 -6 -7 -9 -8 -4 -4 -5 -5 -5 -5 -5 -5 -5 -5 -5 -6 -6 -6 -6 -6 -6 -6 -6 -6 -6 -6 -6 -7 -7 -7 -6 -7
-11 -11 -10 -10 -10 -10 -7 -8 -7 -7 -9 -8 -8 -7 -7 -5 -4 -5 -5 -5 -5 -6 -6 -6 -6 -6 -6 -6 -6 -6 -6 -6 -6 -7 -6 -6 -6 -6 -6 -7 -7 -6 -6 -6
-13 -12 -11 -10 -10 -10 -9 -10 -9 -8 -7 -7 -6 -6 -5 -5 -5 -5 -6 -6 -5 -5 -6 -6 -6 -6 -6 -6 -5 -5 -5 -6 -6 -7 -7 -6 -6 -6 -6 -6 -7 -7 -6 -6
-15 -13 -12 -11 -12 -13 -13 -13 -9 -8 -8 -7 -7 -7 -6 -5 -5 -5 -6 -5 -5 -4 -4 -5 -5 -5 -5 -5 -6 -6 -6 -6 -6 -7 -7 -6 -6 -6 -6 -6 -7 -7 -7 -6
-16 -15 -14 -12 -12 -13 -14 -13 -10 -10 -11 -9 -7 -7 -6 -5 -5 -4 -4 -5 -5 -5 -5 -4 -4 -4 -4 -5 -5 -5 -6 -6 -6 -6 -6 -6 -6 -6 -6 -6 -6 -6 -6 -6
-17 -16 -15 -14 -13 -14 -14 -14 -13 -12 -10 -8 -6 -5 -5 -4 -5 -5 -5 -5 -5 -5 -5 -5 -4 -4 -4 -4 -4 -5 -5 -6 -5 -5 -6 -6 -6 -7 -6 -6 -6 -6 -7 -7
-20 -18 -17 -16 -14 -14 -14 -13 -12 -10 -9 -7 -6 -5 -5 -5 -5 -6 -6 -5 -5 -5 -5 -5 -5 -5 -4 -4 -5 -4 -4 -5 -5 -4 -5 -5 -6 -6 -6 -7 -7 -7 -6 -6
-20 -19 -17 -16 -15 -14 -13 -12 -10 -8 -8 -7 -7 -7 -6 -6 -6 -6 -6 -6 -5 -5 -6 -6 -5 -5 -5 -5 -4 -4 -4 -4 -4 -4 -5 -5 -6 -6 -6 -6 -6 -6 -6 -6
-19 -18 -17 -16 -15 -14 -11 -11 -10 -9 -8 -9 -8 -7 -7 -6 -7 -7 -6 -6 -6 -6 -6 -6 -6 -5 -5 -5 -5 -5 -5 -5 -5 -5 -5 -5 -5 -5 -6 -6 -6 -6 -6 -7
-20 -17 -16 -16 -16 -15 -14 -12 -12 -11 -10 -9 -9 -8 -8 -8 -7 -7 -7 -7 -7 -6 -6 -6 -6 -6 -5 -5 -5 -5 -5 -5 -5 -5 -5 -5 -5 -5 -5 -6 -6 -6 -6 -7

GFSCGP_500_temp_030.txt.gz
Temp
-4 -4 -3 -4 -4 -4 -5 -6 -6 -8 -7 -7 -7 -7 -6 -6 -6 -5 -5 -5 -5 -5 -5 -6 -6 -6 -5 -5 -5 -5 -5 -5 -5 -5 -5 -5 -5 -5 -5 -6 -6 -6 -5 -5
-4 -3 -4 -4 -5 -5 -5 -5 -8 -8 -8 -7 -7 -6 -6 -7 -6 -5 -6 -5 -5 -5 -6 -6 -6 -6 -5 -5 -5 -5 -5 -5 -5 -5 -5 -5 -5 -5 -5 -5 -5 -5 -5 -5
-4 -4 -4 -4 -4 -4 -5 -5 -6 -8 -8 -7 -7 -7 -7 -7 -7 -7 -5 -5 -4 -5 -5 -6 -6 -5 -5 -5 -5 -5 -5 -5 -5 -5 -5 -5 -5 -5 -5 -5 -5 -5 -5 -5
-5 -5 -4 -5 -4 -4 -4 -5 -6 -8 -8 -7 -7 -7 -7 -7 -7 -6 -6 -7 -5 -5 -5 -6 -5 -5 -5 -5 -5 -5 -5 -5 -5 -5 -5 -5 -5 -5 -5 -5 -5 -5 -5 -5
-4 -4 -4 -5 -4 -4 -4 -5 -5 -7 -8 -8 -7 -7 -7 -7 -7 -7 -6 -7 -6 -4 -5 -5 -5 -5 -5 -5 -4 -4 -5 -4 -4 -4 -4 -4 -4 -5 -5 -5 -4 -5 -5 -6
-5 -5 -5 -5 -5 -5 -6 -6 -7 -6 -9 -8 -7 -7 -7 -7 -6 -7 -7 -7 -6 -6 -5 -6 -5 -5 -5 -4 -4 -4 -4 -4 -4 -4 -4 -4 -4 -4 -5 -4 -4 -5 -5 -5
-6 -5 -5 -5 -6 -6 -5 -6 -7 -7 -6 -5 -7 -8 -6 -7 -7 -7 -8 -7 -7 -7 -6 -6 -6 -5 -5 -4 -4 -4 -4 -4 -4 -4 -4 -4 -4 -4 -4 -4 -4 -5 -5 -5
-5 -5 -5 -5 -5 -5 -4 -5 -4 -4 -5 -6 -7 -5 -4 -7 -7 -6 -7 -7 -7 -7 -7 -5 -5 -5 -5 -4 -4 -4 -5 -5 -4 -5 -5 -4 -4 -4 -4 -4 -4 -4 -4 -5
-6 -5 -6 -5 -5 -6 -5 -4 -5 -6 -7 -8 -7 -6 -6 -6 -6 -7 -7 -7 -7 -7 -7 -6 -6 -5 -5 -5 -4 -4 -4 -4 -4 -4 -4 -3 -3 -4 -4 -4 -4 -4 -4 -4
-7 -10 -7 -7 -7 -6 -5 -6 -6 -7 -7 -7 -6 -6 -5 -6 -5 -7 -7 -7 -7 -7 -7 -6 -6 -5 -5 -5 -4 -4 -4 -4 -4 -4 -4 -3 -3 -3 -4 -4 -5 -5 -4 -5
-8 -9 -9 -9 -7 -5 -6 -7 -7 -6 -6 -7 -6 -5 -5 -5 -6 -6 -7 -6 -7 -7 -7 -7 -6 -5 -5 -5 -4 -4 -4 -4 -4 -4 -4 -4 -4 -4 -4 -5 -5 -5 -5 -6
-9 -9 -10 -9 -9 -8 -6 -6 -5 -5 -5 -6 -6 -5 -5 -5 -6 -6 -6 -7 -7 -8 -7 -7 -6 -6 -5 -5 -5 -4 -4 -4 -4 -4 -4 -4 -4 -4 -5 -5 -5 -5 -6 -6
-13 -10 -9 -9 -9 -9 -7 -6 -6 -7 -6 -5 -6 -6 -6 -6 -6 -6 -5 -7 -7 -7 -8 -8 -6 -6 -5 -5 -5 -5 -5 -5 -4 -4 -4 -4 -4 -5 -5 -5 -5 -5 -6 -6
-11 -9 -9 -9 -7 -8 -9 -9 -8 -8 -5 -6 -6 -6 -6 -6 -6 -6 -5 -6 -6 -6 -7 -7 -7 -6 -5 -5 -5 -5 -5 -5 -5 -5 -5 -4 -5 -5 -5 -5 -6 -6 -6 -7
-12 -10 -10 -10 -10 -9 -8 -7 -7 -5 -6 -6 -7 -7 -7 -7 -6 -6 -6 -6 -7 -7 -8 -8 -7 -6 -5 -5 -5 -5 -6 -5 -5 -5 -5 -5 -6 -6 -6 -6 -6 -6 -6 -7
-11 -10 -11 -11 -9 -10 -10 -9 -7 -9 -8 -8 -7 -7 -7 -7 -5 -6 -5 -5 -5 -5 -6 -7 -7 -6 -5 -5 -5 -5 -5 -5 -5 -5 -5 -6 -6 -6 -6 -6 -6 -6 -6 -6
-12 -12 -11 -9 -9 -9 -10 -10 -9 -9 -9 -9 -7 -7 -7 -8 -7 -6 -6 -5 -5 -5 -5 -5 -5 -5 -6 -5 -5 -6 -6 -6 -5 -5 -5 -6 -6 -6 -6 -6 -6 -6 -6 -6
-13 -10 -10 -10 -10 -10 -10 -10 -10 -10 -9 -9 -8 -8 -9 -9 -9 -7 -4 -5 -5 -5 -5 -6 -6 -6 -6 -6 -5 -5 -6 -6 -6 -6 -6 -6 -6 -6 -6 -6 -6 -6 -6 -6
-14 -12 -11 -11 -10 -10 -11 -10 -10 -10 -10 -9 -9 -8 -9 -9 -9 -8 -5 -5 -5 -5 -5 -5 -6 -6 -6 -6 -6 -6 -6 -6 -5 -5 -6 -6 -6 -6 -6 -6 -6 -6 -7 -7
-14 -14 -12 -12 -11 -11 -11 -11 -10 -11 -10 -10 -10 -10 -8 -9 -9 -8 -5 -5 -5 -4 -4 -4 -4 -4 -5 -5 -6 -6 -5 -5 -6 -6 -7 -7 -6 -7 -7 -7 -6 -6 -6 -7
-15 -14 -14 -13 -11 -11 -11 -11 -11 -11 -11 -10 -10 -10 -10 -9 -8 -4 -4 -6 -5 -5 -5 -5 -5 -5 -4 -4 -4 -4 -5 -5 -5 -6 -6 -7 -7 -7 -7 -7 -7 -6 -6 -6
-17 -16 -15 -15 -13 -12 -12 -11 -12 -11 -10 -10 -10 -8 -6 -6 -5 -4 -4 -5 -5 -6 -6 -5 -5 -5 -5 -5 -4 -4 -5 -5 -5 -5 -6 -6 -6 -7 -7 -7 -7 -6 -6 -6
-18 -18 -16 -16 -14 -13 -13 -12 -12 -12 -12 -11 -10 -8 -6 -5 -5 -4 -5 -6 -6 -6 -6 -5 -5 -4 -4 -4 -4 -4 -4 -4 -5 -5 -5 -6 -6 -6 -6 -6 -6 -6 -6 -6
-19 -19 -18 -16 -15 -14 -14 -14 -13 -12 -11 -11 -9 -8 -7 -5 -5 -5 -6 -6 -6 -6 -5 -5 -5 -5 -4 -4 -4 -4 -4 -4 -4 -4 -4 -4 -4 -4 -5 -5 -6 -6 -6 -6
-20 -19 -18 -17 -16 -15 -13 -13 -11 -12 -11 -9 -9 -7 -6 -6 -7 -7 -6 -6 -6 -6 -6 -6 -5 -5 -5 -5 -5 -5 -5 -5 -4 -4 -5 -4 -4 -4 -4 -5 -5 -5 -6 -6
-19 -18 -17 -17 -17 -16 -14 -13 -12 -10 -11 -10 -9 -7 -8 -8 -7 -7 -7 -6 -6 -6 -6 -6 -6 -5 -5 -5 -5 -5 -5 -5 -5 -5 -5 -5 -5 -4 -4 -5 -5 -5 -5 -5

GFSCGP_500_temp_033.txt.gz
Temp
-4 -4 -3 -3 -4 -4 -4 -5 -6 -5 -7 -7 -7 -7 -8 -8 -7 -7 -7 -5 -7 -6 -6 -5 -5 -5 -6 -5 -5 -5 -5 -5 -5 -5 -5 -5 -5 -5 -5 -6 -6 -6 -6 -6
-4 -3 -4 -5 -5 -5 -5 -5 -5 -6 -7 -8 -7 -8 -8 -7 -6 -7 -6 -6 -6 -6 -6 -6 -5 -6 -6 -6 -5 -5 -5 -5 -5 -5 -5 -5 -5 -5 -5 -5 -6 -5 -6 -6
-4 -4 -5 -5 -5 -4 -5 -5 -5 -5 -7 -8 -8 -8 -7 -7 -6 -7 -7 -5 -5 -7 -5 -6 -6 -6 -6 -6 -5 -5 -5 -4 -5 -4 -4 -5 -5 -5 -5 -5 -5 -5 -5 -6
-5 -5 -5 -5 -5 -5 -4 -5 -5 -6 -8 -8 -8 -8 -8 -7 -7 -6 -6 -6 -5 -5 -5 -5 -6 -5 -5 -6 -5 -5 -5 -4 -4 -4 -4 -4 -4 -4 -5 -5 -5 -5 -6 -6
-4 -5 -5 -5 -4 -4 -4 -5 -5 -6 -7 -8 -8 -8 -6 -7 -7 -7 -7 -7 -5 -6 -6 -5 -5 -5 -5 -5 -5 -4 -4 -4 -4 -4 -4 -4 -4 -4 -5 -4 -5 -5 -5 -5
-6 -6 -6 -5 -5 -5 -5 -6 -6 -7 -7 -7 -7 -8 -7 -7 -7 -7 -7 -7 -6 -6 -6 -6 -4 -5 -5 -5 -5 -4 -4 -4 -4 -4 -4 -4 -4 -4 -4 -4 -5 -5 -5 -5
-7 -6 -6 -6 -6 -6 -6 -7 -6 -6 -7 -5 -6 -7 -6 -7 -7 -7 -7 -7 -7 -6 -6 -6 -6 -5 -5 -5 -4 -4 -4 -4 -4 -4 -4 -4 -4 -4 -4 -4 -4 -5 -5 -5
-6 -6 -5 -6 -6 -5 -5 -5 -4 -4 -5 -5 -6 -4 -4 -6 -7 -7 -7 -7 -7 -7 -5 -5 -7 -5 -5 -5 -4 -4 -4 -4 -4 -4 -4 -4 -4 -4 -4 -4 -4 -4 -4 -4
-8 -6 -8 -7 -7 -6 -6 -6 -6 -6 -6 -7 -6 -5 -6 -5 -6 -7 -7 -7 -7 -6 -6 -5 -6 -6 -5 -5 -5 -4 -4 -4 -4 -4 -4 -4 -4 -4 -4 -4 -4 -4 -4 -4
-10 -11 -9 -8 -8 -7 -6 -8 -7 -7 -7 -6 -6 -5 -4 -5 -5 -6 -5 -7 -7 -7 -6 -6 -6 -6 -5 -5 -5 -5 -4 -4 -4 -4 -4 -4 -4 -4 -4 -4 -4 -4 -5 -5
-10 -11 -8 -10 -9 -6 -8 -9 -8 -7 -7 -7 -6 -5 -5 -5 -6 -6 -5 -6 -7 -7 -7 -5 -6 -7 -7 -5 -5 -5 -4 -4 -4 -4 -4 -4 -4 -4 -4 -4 -4 -4 -5 -5
-12 -11 -10 -8 -8 -9 -9 -8 -6 -6 -6 -6 -5 -5 -6 -6 -5 -6 -6 -5 -7 -7 -7 -6 -6 -6 -7 -5 -5 -5 -4 -4 -4 -4 -4 -4 -4 -4 -4 -4 -4 -4 -4 -5
-13 -11 -10 -9 -10 -11 -10 -8 -8 -7 -7 -6 -6 -6 -6 -6 -5 -6 -6 -7 -7 -7 -8 -7 -7 -6 -7 -6 -5 -4 -4 -4 -5 -4 -4 -4 -4 -4 -4 -4 -4 -5 -5 -5
-11 -11 -10 -9 -8 -9 -10 -10 -9 -8 -7 -6 -5 -7 -7 -6 -6 -6 -6 -6 -7 -7 -8 -7 -7 -5 -7 -6 -5 -4 -4 -4 -4 -4 -4 -4 -4 -4 -5 -5 -5 -5 -6 -5
-12 -10 -10 -9 -9 -10 -10 -10 -9 -8 -7 -6 -6 -7 -7 -7 -6 -6 -6 -6 -7 -8 -8 -7 -7 -5 -6 -7 -6 -5 -4 -4 -4 -5 -5 -4 -4 -5 -5 -5 -5 -6 -6 -6
-12 -11 -10 -10 -9 -10 -10 -10 -9 -8 -7 -6 -6 -7 -8 -7 -7 -7 -7 -7 -6 -7 -8 -8 -8 -7 -5 -6 -6 -5 -5 -5 -4 -5 -5 -5 -5 -5 -6 -6 -6 -6 -6 -6
-13 -12 -10 -10 -10 -10 -10 -9 -10 -9 -8 -7 -6 -7 -8 -8 -7 -7 -7 -6 -6 -6 -7 -8 -8 -7 -5 -5 -6 -6 -5 -6 -6 -6 -6 -6 -6 -6 -6 -6 -6 -6 -6 -6
-13 -13 -10 -10 -10 -9 -8 -11 -11 -10 -9 -8 -7 -8 -8 -8 -8 -7 -7 -6 -6 -6 -6 -6 -6 -5 -5 -5 -5 -6 -6 -6 -6 -6 -6 -6 -6 -7 -7 -7 -6 -6 -7 -6
-13 -13 -11 -11 -11 -8 -10 -10 -10 -10 -10 -9 -8 -9 -9 -9 -9 -8 -6 -6 -5 -5 -5 -5 -5 -6 -6 -6 -6 -6 -7 -6 -6 -6 -6 -6 -6 -7 -7 -7 -7 -7 -7 -7
-14 -13 -12 -11 -11 -10 -10 -10 -10 -11 -10 -9 -9 -10 -10 -9 -9 -8 -6 -5 -4 -4 -5 -5 -5 -5 -5 -6 -6 -5 -6 -6 -6 -5 -6 -6 -7 -7 -7 -7 -7 -7 -7 -7
-14 -13 -13 -13 -12 -10 -10 -10 -10 -10 -10 -10 -9 -10 -10 -8 -9 -7 -5 -4 -5 -5 -5 -6 -6 -6 -6 -6 -6 -6 -6 -5 -6 -6 -6 -7 -7 -7 -7 -7 -7 -7 -7 -7
-15 -14 -14 -12 -12 -11 -10 -10 -10 -11 -11 -11 -10 -11 -9 -7 -5 -6 -6 -4 -5 -5 -5 -5 -5 -5 -5 -6 -6 -6 -6 -6 -6 -6 -7 -7 -7 -7 -7 -7 -7 -7 -7 -7
-17 -15 -14 -12 -13 -11 -11 -10 -10 -11 -10 -11 -10 -10 -8 -6 -5 -4 -4 -4 -5 -5 -4 -4 -4 -5 -5 -4 -5 -5 -5 -5 -5 -5 -6 -7 -7 -7 -7 -7 -7 -7 -7 -7
-19 -16 -14 -13 -14 -12 -12 -12 -10 -10 -11 -11 -11 -10 -6 -6 -5 -5 -5 -4 -4 -6 -6 -6 -5 -5 -4 -5 -5 -5 -5 -5 -5 -5 -5 -5 -6 -6 -6 -6 -5 -5 -6 -6
-18 -18 -16 -15 -14 -12 -12 -12 -11 -10 -11 -11 -10 -9 -7 -6 -6 -6 -6 -6 -5 -6 -7 -6 -6 -5 -5 -5 -5 -5 -5 -5 -5 -5 -5 -5 -5 -5 -5 -5 -5 -4 -4 -4
-19 -18 -16 -15 -14 -12 -12 -12 -12 -11 -10 -10 -9 -8 -8 -7 -7 -7 -7 -7 -7 -7 -7 -7 -6 -6 -6 -5 -5 -5 -5 -5 -5 -5 -5 -5 -5 -5 -4 -4 -4 -4 -4 -4

GFSCGP_500_temp_036.txt.gz
Temp
-5 -4 -3 -4 -4 -4 -5 -5 -4 -5 -6 -6 -7 -8 -8 -7 -6 -6 -7 -7 -6 -6 -4 -6 -6 -7 -7 -6 -6 -6 -5 -5 -6 -6 -6 -5 -5 -5 -5 -5 -5 -5 -6 -5
-5 -3 -5 -5 -5 -5 -5 -5 -4 -7 -6 -6 -8 -8 -9 -7 -6 -6 -7 -5 -6 -6 -5 -5 -5 -7 -7 -6 -6 -5 -5 -5 -5 -5 -5 -5 -5 -5 -5 -5 -5 -5 -5 -5
-5 -4 -5 -5 -5 -5 -5 -5 -5 -5 -7 -7 -7 -8 -8 -7 -7 -8 -7 -6 -6 -6 -6 -4 -5 -6 -6 -6 -6 -6 -5 -5 -5 -5 -5 -5 -5 -5 -5 -5 -5 -5 -5 -6
-6 -6 -6 -6 -6 -6 -5 -5 -6 -6 -7 -7 -8 -8 -8 -7 -7 -6 -7 -6 -7 -7 -6 -5 -5 -6 -6 -5 -5 -5 -5 -5 -5 -5 -5 -5 -5 -5 -5 -5 -5 -5 -6 -6
-5 -6 -5 -5 -5 -6 -5 -6 -6 -6 -8 -7 -8 -8 -8 -7 -7 -6 -6 -6 -7 -6 -7 -6 -5 -5 -5 -5 -5 -5 -5 -5 -4 -5 -5 -4 -4 -4 -5 -5 -5 -5 -5 -6
-6 -7 -7 -6 -6 -6 -6 -6 -7 -7 -8 -8 -7 -7 -7 -6 -6 -6 -7 -6 -6 -7 -8 -7 -5 -5 -5 -5 -5 -5 -5 -5 -4 -4 -4 -4 -4 -5 -5 -5 -5 -5 -5 -5
-8 -7 -6 -7 -7 -7 -6 -7 -7 -8 -9 -8 -6 -8 -5 -6 -6 -7 -7 -6 -6 -7 -7 -7 -6 -6 -6 -5 -5 -5 -5 -5 -5 -4 -4 -4 -4 -4 -4 -4 -5 -5 -5 -5
-9 -9 -7 -8 -7 -7 -6 -6 -6 -5 -6 -5 -6 -6 -4 -6 -7 -8 -7 -7 -7 -7 -7 -7 -7 -6 -6 -5 -5 -5 -5 -5 -5 -4 -4 -4 -4 -4 -4 -4 -4 -5 -5 -5
-10 -8 -8 -8 -8 -8 -8 -6 -6 -6 -6 -6 -5 -6 -6 -6 -6 -6 -7 -8 -7 -6 -6 -7 -7 -7 -6 -5 -5 -4 -5 -5 -5 -5 -4 -4 -4 -4 -5 -4 -4 -4 -4 -5
-10 -8 -9 -8 -10 -8 -6 -7 -6 -6 -6 -6 -5 -5 -4 -6 -5 -6 -6 -7 -5 -6 -6 -7 -7 -7 -6 -5 -5 -4 -4 -5 -5 -4 -4 -4 -5 -5 -4 -4 -4 -4 -4 -4
-10 -8 -8 -11 -10 -7 -7 -8 -8 -9 -7 -6 -5 -4 -5 -6 -6 -7 -7 -7 -6 -6 -7 -7 -7 -8 -8 -5 -5 -4 -4 -4 -4 -4 -4 -4 -4 -4 -4 -4 -4 -4 -4 -5
-11 -8 -9 -10 -7 -9 -9 -8 -9 -8 -6 -6 -5 -5 -6 -6 -7 -7 -7 -7 -6 -5 -6 -6 -6 -7 -7 -6 -5 -5 -5 -4 -5 -5 -5 -5 -4 -4 -4 -4 -4 -4 -4 -5
-14 -10 -9 -9 -10 -11 -10 -9 -7 -7 -8 -6 -6 -6 -6 -6 -6 -6 -6 -7 -7 -7 -6 -5 -7 -8 -7 -7 -5 -5 -5 -5 -5 -5 -5 -5 -4 -4 -4 -4 -4 -4 -5 -5
-14 -10 -9 -9 -10 -10 -9 -9 -9 -8 -7 -6 -5 -7 -6 -6 -6 -6 -6 -6 -7 -7 -6 -6 -8 -7 -7 -8 -6 -5 -5 -4 -4 -5 -5 -5 -5 -5 -4 -5 -5 -5 -5 -5
-13 -11 -10 -9 -9 -10 -9 -10 -10 -9 -7 -6 -6 -6 -7 -6 -6 -6 -6 -6 -7 -7 -7 -7 -7 -7 -7 -8 -7 -6 -5 -5 -5 -5 -5 -5 -5 -5 -5 -5 -5 -5 -5 -4
-14 -13 -10 -9 -10 -10 -10 -9 -10 -10 -8 -7 -7 -7 -7 -6 -6 -6 -6 -6 -7 -7 -7 -8 -7 -7 -7 -7 -8 -7 -6 -5 -5 -5 -5 -5 -5 -5 -6 -6 -6 -6 -6 -5
-14 -13 -11 -11 -11 -11 -11 -11 -11 -10 -9 -8 -7 -7 -8 -8 -7 -7 -7 -7 -7 -7 -7 -7 -7 -7 -7 -7 -7 -8 -7 -6 -6 -6 -6 -6 -6 -6 -7 -7 -6 -6 -6 -6
-14 -13 -12 -12 -12 -11 -11 -11 -11 -10 -10 -10 -8 -8 -9 -8 -8 -8 -8 -7 -7 -7 -7 -7 -7 -7 -8 -8 -7 -7 -8 -7 -7 -8 -8 -7 -7 -7 -7 -7 -7 -7 -7 -7
-14 -13 -13 -13 -12 -11 -11 -11 -10 -10 -10 -9 -9 -9 -9 -9 -8 -8 -8 -8 -7 -7 -6 -6 -5 -6 -6 -6 -6 -7 -7 -7 -7 -8 -8 -8 -7 -7 -7 -7 -7 -7 -7 -7
-14 -13 -13 -13 -12 -12 -11 -11 -11 -10 -10 -10 -9 -9 -9 -9 -9 -8 -8 -8 -7 -7 -6 -5 -5 -5 -6 -6 -6 -6 -7 -7 -7 -7 -7 -7 -8 -8 -7 -7 -7 -7 -7 -7
-13 -13 -13 -12 -12 -12 -10 -10 -10 -11 -10 -10 -10 -9 -9 -9 -9 -9 -9 -7 -8 -6 -6 -6 -5 -5 -6 -6 -6 -6 -6 -7 -7 -7 -7 -8 -8 -8 -8 -8 -8 -7 -7 -7
-13 -13 -13 -12 -12 -11 -10 -10 -10 -10 -10 -10 -10 -9 -9 -8 -8 -9 -8 -8 -8 -8 -7 -7 -7 -6 -6 -6 -6 -6 -6 -6 -7 -7 -7 -7 -7 -7 -8 -7 -7 -7 -7 -7
-15 -13 -13 -12 -12 -11 -10 -10 -10 -10 -9 -10 -10 -9 -9 -8 -7 -9 -8 -8 -7 -8 -8 -7 -7 -6 -6 -6 -6 -5 -5 -6 -6 -6 -6 -7 -7 -8 -7 -7 -7 -7 -7 -8
-17 -14 -13 -12 -11 -12 -10 -9 -10 -11 -9 -10 -10 -8 -8 -8 -7 -7 -8 -8 -7 -7 -7 -6 -7 -7 -7 -6 -6 -5 -5 -5 -5 -6 -6 -6 -6 -7 -7 -7 -7 -7 -7 -7
-18 -16 -13 -13 -12 -12 -11 -11 -10 -10 -10 -10 -9 -7 -7 -8 -8 -8 -8 -9 -9 -6 -7 -7 -7 -7 -7 -7 -7 -6 -5 -5 -5 -5 -6 -6 -6 -6 -6 -6 -6 -6 -6 -6
-17 -16 -14 -13 -13 -12 -12 -11 -11 -10 -10 -11 -9 -7 -7 -8 -8 -8 -8 -9 -9 -7 -6 -7 -7 -7 -6 -7 -7 -7 -6 -6 -5 -5 -5 -5 -5 -6 -6 -6 -6 -5 -5 -5

GFSCGP_500_temp_039.txt.gz
Temp
-5 -4 -4 -5 -5 -5 -5 -5 -5 -7 -8 -6 -5 -5 -5 -5 -5 -6 -7 -7 -7 -6 -6 -6 -6 -6 -6 -6 -6 -5 -5 -5 -6 -6 -6 -6 -6 -5 -6 -6 -6 -6 -6 -6
-5 -4 -5 -6 -6 -6 -6 -5 -5 -7 -8 -6 -6 -6 -6 -5 -6 -7 -7 -7 -7 -7 -7 -6 -6 -6 -6 -7 -6 -5 -6 -6 -6 -6 -5 -5 -5 -6 -6 -6 -6 -6 -6 -6
-5 -5 -6 -6 -6 -6 -6 -5 -6 -6 -9 -7 -8 -7 -6 -6 -7 -7 -6 -7 -7 -7 -7 -6 -6 -6 -5 -6 -6 -5 -5 -6 -5 -5 -5 -5 -5 -6 -6 -6 -6 -6 -6 -6
-6 -6 -6 -6 -6 -6 -6 -6 -6 -7 -9 -8 -8 -7 -6 -5 -5 -6 -6 -7 -7 -7 -7 -7 -7 -6 -5 -6 -5 -5 -5 -5 -5 -5 -5 -5 -5 -5 -5 -6 -5 -6 -6 -6
-6 -6 -6 -7 -6 -7 -6 -7 -7 -8 -9 -9 -8 -7 -7 -5 -4 -6 -6 -7 -7 -7 -7 -7 -7 -7 -6 -5 -5 -5 -5 -5 -5 -5 -5 -4 -5 -5 -5 -5 -5 -6 -6 -6
-7 -7 -7 -6 -8 -8 -7 -8 -8 -9 -9 -9 -8 -8 -6 -4 -4 -5 -6 -8 -7 -7 -8 -8 -8 -7 -6 -5 -5 -5 -5 -5 -5 -5 -4 -5 -4 -5 -5 -5 -5 -5 -6 -6
-8 -7 -6 -7 -8 -9 -8 -7 -8 -8 -9 -5 -6 -8 -4 -4 -4 -5 -6 -7 -7 -7 -8 -8 -8 -7 -6 -5 -5 -5 -5 -5 -5 -4 -4 -4 -5 -5 -5 -5 -5 -5 -5 -6
-9 -8 -6 -7 -7 -9 -9 -7 -6 -6 -6 -4 -6 -5 -3 -4 -4 -5 -6 -7 -8 -8 -8 -8 -8 -7 -6 -5 -5 -5 -5 -5 -5 -5 -4 -4 -4 -5 -5 -5 -5 -5 -5 -5
-11 -8 -8 -9 -8 -9 -9 -7 -7 -7 -6 -5 -5 -5 -4 -4 -5 -5 -6 -7 -7 -8 -8 -8 -8 -7 -6 -5 -5 -5 -5 -4 -4 -5 -4 -4 -4 -4 -5 -5 -5 -5 -5 -5
-13 -9 -8 -8 -11 -10 -9 -9 -8 -7 -6 -5 -5 -5 -4 -5 -5 -5 -5 -5 -6 -8 -8 -8 -8 -8 -7 -6 -5 -5 -5 -5 -5 -4 -4 -4 -4 -4 -4 -4 -5 -5 -5 -5
-14 -10 -10 -10 -11 -9 -9 -7 -8 -9 -7 -5 -4 -4 -4 -5 -6 -6 -5 -6 -6 -7 -7 -8 -8 -8 -8 -6 -5 -5 -5 -5 -4 -4 -4 -5 -5 -4 -4 -5 -5 -5 -5 -5
-16 -12 -12 -11 -9 -9 -10 -9 -9 -8 -6 -5 -4 -3 -4 -5 -7 -7 -6 -7 -7 -6 -6 -7 -8 -8 -8 -7 -6 -5 -5 -4 -4 -4 -5 -5 -5 -5 -5 -5 -5 -4 -4 -4
-16 -13 -12 -12 -11 -10 -11 -10 -8 -7 -8 -6 -5 -5 -6 -5 -6 -8 -8 -8 -8 -7 -7 -7 -8 -8 -8 -8 -6 -5 -5 -5 -5 -5 -5 -5 -5 -5 -5 -5 -5 -5 -4 -4
-16 -14 -13 -12 -11 -11 -10 -10 -9 -9 -8 -6 -5 -7 -6 -6 -6 -7 -8 -8 -7 -6 -7 -8 -7 -8 -8 -8 -7 -6 -5 -5 -4 -5 -5 -5 -5 -5 -5 -5 -5 -5 -5 -4
-16 -14 -12 -13 -12 -11 -9 -9 -9 -9 -8 -7 -6 -7 -7 -7 -7 -8 -8 -8 -6 -5 -6 -7 -7 -7 -8 -8 -8 -6 -5 -5 -5 -5 -5 -5 -5 -5 -5 -5 -5 -5 -5 -5
-16 -15 -12 -12 -12 -12 -10 -10 -9 -9 -9 -9 -7 -7 -7 -8 -7 -7 -7 -6 -6 -5 -6 -7 -7 -7 -7 -8 -8 -7 -6 -5 -5 -5 -5 -5 -5 -5 -6 -6 -6 -6 -6 -5
-16 -15 -13 -12 -13 -12 -12 -11 -10 -10 -10 -9 -7 -7 -8 -7 -7 -6 -6 -6 -6 -5 -7 -8 -7 -8 -7 -7 -8 -9 -7 -6 -6 -6 -6 -6 -6 -6 -6 -7 -6 -6 -6 -6
-17 -15 -14 -13 -13 -12 -11 -11 -11 -11 -9 -8 -7 -7 -8 -7 -6 -6 -6 -7 -7 -7 -7 -8 -8 -8 -7 -8 -8 -9 -8 -7 -7 -6 -7 -7 -7 -7 -7 -7 -7 -7 -6 -7
-16 -15 -14 -14 -14 -13 -12 -12 -11 -10 -9 -8 -7 -8 -8 -7 -7 -7 -7 -7 -7 -7 -7 -8 -8 -8 -8 -8 -8 -8 -8 -8 -8 -7 -8 -8 -8 -8 -7 -7 -8 -8 -7 -7
-15 -15 -15 -14 -14 -13 -12 -11 -11 -11 -10 -9 -8 -8 -8 -8 -7 -7 -7 -8 -7 -8 -8 -8 -8 -7 -8 -8 -8 -8 -8 -8 -8 -8 -8 -8 -8 -8 -8 -8 -8 -8 -8 -7
-15 -14 -14 -14 -13 -13 -12 -12 -12 -12 -10 -9 -9 -9 -9 -8 -8 -8 -7 -8 -8 -8 -7 -7 -7 -8 -8 -8 -8 -8 -7 -8 -8 -8 -8 -9 -8 -8 -9 -9 -8 -8 -8 -7
-15 -14 -14 -14 -13 -13 -12 -12 -12 -11 -10 -9 -8 -8 -9 -9 -8 -8 -9 -8 -8 -8 -8 -7 -7 -7 -8 -8 -9 -8 -8 -8 -8 -8 -8 -8 -8 -8 -8 -8 -8 -8 -8 -8
-15 -14 -14 -14 -13 -12 -12 -12 -11 -10 -9 -9 -9 -8 -8 -9 -9 -8 -8 -9 -8 -8 -8 -7 -7 -7 -7 -7 -9 -9 -8 -8 -8 -9 -9 -8 -8 -8 -8 -8 -8 -8 -8 -8
-16 -14 -13 -14 -13 -12 -12 -11 -11 -11 -9 -9 -9 -8 -8 -9 -9 -9 -9 -9 -9 -8 -8 -8 -8 -7 -7 -7 -7 -7 -7 -7 -8 -8 -8 -9 -9 -8 -8 -8 -8 -8 -8 -8
-16 -15 -13 -14 -13 -13 -12 -11 -11 -11 -9 -9 -8 -8 -8 -9 -9 -9 -9 -9 -9 -9 -9 -9 -9 -9 -8 -8 -7 -6 -6 -6 -6 -7 -7 -7 -8 -8 -8 -8 -8 -8 -7 -7
-16 -15 -13 -14 -13 -13 -12 -12 -12 -10 -9 -9 -8 -7 -7 -9 -9 -9 -9 -9 -9 -10 -9 -9 -10 -10 -9 -9 -8 -7 -7 -7 -6 -6 -6 -6 -7 -7 -7 -7 -7 -7 -7 -7

GFSCGP_500_temp_042.txt.gz
Temp
-6 -5 -5 -5 -6 -6 -6 -6 -6 -7 -7 -7 -7 -7 -5 -6 -6 -6 -6 -6 -6 -7 -7 -7 -6 -7 -7 -6 -6 -6 -5 -5 -6 -6 -6 -6 -6 -6 -6 -6 -6 -7 -7 -7
-6 -5 -6 -6 -6 -6 -6 -6 -6 -7 -7 -7 -7 -7 -6 -5 -7 -6 -6 -6 -6 -6 -7 -7 -6 -6 -7 -7 -7 -6 -5 -5 -6 -6 -6 -6 -5 -5 -6 -5 -6 -6 -6 -7
-6 -6 -6 -7 -7 -6 -6 -5 -7 -8 -8 -9 -8 -7 -7 -6 -6 -6 -5 -5 -6 -6 -7 -6 -6 -6 -6 -6 -6 -6 -6 -5 -6 -5 -5 -5 -5 -6 -6 -6 -6 -6 -6 -6
-7 -7 -6 -7 -7 -7 -6 -6 -7 -8 -9 -9 -8 -6 -7 -7 -6 -6 -5 -5 -6 -6 -7 -7 -6 -6 -6 -6 -6 -6 -6 -5 -5 -5 -5 -6 -6 -5 -5 -5 -6 -6 -6 -6
-7 -7 -7 -6 -7 -8 -7 -7 -7 -8 -9 -9 -9 -8 -6 -6 -6 -6 -6 -5 -6 -7 -7 -7 -6 -6 -6 -6 -6 -6 -6 -5 -5 -5 -6 -6 -5 -5 -6 -5 -6 -6 -6 -6
-8 -8 -7 -6 -8 -8 -9 -8 -8 -9 -9 -9 -8 -8 -4 -5 -5 -6 -7 -6 -7 -7 -7 -7 -7 -6 -6 -5 -6 -5 -5 -5 -5 -5 -5 -5 -5 -5 -5 -6 -6 -6 -6 -6
-10 -9 -8 -8 -8 -8 -9 -8 -9 -9 -9 -4 -7 -8 -3 -4 -6 -6 -7 -7 -7 -7 -7 -8 -7 -7 -6 -6 -5 -5 -5 -5 -5 -5 -5 -5 -5 -5 -5 -5 -5 -5 -6 -5
-12 -11 -10 -9 -8 -8 -8 -8 -8 -8 -7 -5 -6 -5 -3 -4 -5 -6 -7 -7 -8 -8 -8 -8 -8 -7 -6 -6 -6 -6 -5 -5 -5 -5 -5 -5 -5 -5 -5 -5 -5 -5 -5 -6
-14 -11 -11 -11 -11 -10 -9 -8 -8 -9 -7 -6 -5 -5 -5 -4 -5 -6 -7 -7 -7 -7 -8 -8 -8 -7 -6 -6 -6 -6 -6 -5 -5 -5 -6 -5 -5 -5 -5 -5 -5 -5 -5 -6
-15 -13 -13 -12 -12 -11 -9 -9 -10 -9 -7 -6 -5 -5 -4 -4 -4 -6 -7 -7 -7 -8 -7 -8 -8 -8 -6 -6 -6 -6 -6 -5 -6 -5 -5 -5 -5 -5 -5 -5 -5 -5 -5 -5
-15 -15 -12 -12 -13 -12 -10 -10 -9 -9 -8 -6 -5 -4 -4 -5 -5 -5 -7 -7 -7 -8 -7 -8 -8 -8 -8 -6 -6 -6 -5 -5 -5 -4 -4 -4 -5 -5 -5 -5 -5 -5 -5 -5
-17 -15 -13 -13 -13 -12 -12 -10 -9 -9 -6 -6 -6 -5 -5 -5 -5 -6 -7 -7 -7 -7 -7 -8 -8 -8 -8 -7 -6 -6 -6 -5 -5 -5 -4 -4 -4 -4 -4 -5 -5 -5 -5 -5
-21 -18 -15 -13 -14 -14 -13 -11 -10 -9 -9 -7 -7 -4 -6 -5 -5 -6 -6 -8 -7 -7 -8 -8 -8 -8 -8 -8 -7 -6 -6 -5 -5 -5 -4 -4 -4 -4 -5 -5 -5 -5 -4 -5
-22 -20 -16 -14 -14 -14 -13 -12 -11 -9 -9 -7 -6 -6 -6 -6 -6 -6 -7 -8 -8 -8 -8 -7 -8 -8 -7 -8 -8 -7 -6 -5 -5 -5 -5 -5 -4 -5 -5 -5 -5 -5 -5 -5
-23 -22 -20 -16 -15 -14 -13 -12 -11 -9 -8 -7 -7 -5 -7 -8 -6 -6 -7 -7 -7 -7 -7 -7 -8 -8 -8 -7 -8 -7 -6 -6 -5 -5 -5 -5 -5 -5 -5 -5 -5 -5 -5 -5
-24 -21 -19 -16 -15 -14 -13 -12 -11 -9 -8 -8 -7 -6 -9 -8 -8 -6 -6 -7 -7 -7 -7 -7 -8 -8 -9 -8 -7 -7 -6 -6 -5 -5 -5 -5 -6 -6 -5 -5 -5 -5 -5 -5
-23 -20 -19 -16 -16 -15 -14 -12 -12 -10 -9 -8 -7 -7 -9 -8 -9 -8 -7 -6 -6 -5 -5 -6 -7 -8 -8 -8 -8 -7 -6 -6 -6 -6 -6 -5 -5 -5 -5 -5 -5 -6 -6 -5
-22 -20 -19 -17 -16 -15 -14 -12 -12 -11 -10 -9 -7 -8 -9 -8 -9 -9 -9 -6 -5 -6 -6 -6 -7 -8 -8 -9 -8 -8 -7 -6 -6 -6 -6 -6 -6 -6 -6 -6 -6 -6 -6 -6
-20 -19 -17 -17 -15 -15 -14 -14 -13 -12 -11 -9 -8 -8 -9 -9 -8 -8 -8 -6 -7 -7 -6 -6 -7 -8 -8 -8 -8 -8 -8 -7 -6 -7 -6 -6 -6 -6 -6 -7 -7 -7 -7 -7
-20 -18 -16 -16 -15 -14 -13 -13 -12 -12 -11 -10 -8 -8 -8 -8 -8 -7 -7 -7 -7 -7 -7 -7 -7 -8 -8 -9 -8 -8 -8 -8 -7 -7 -7 -7 -7 -7 -7 -7 -8 -8 -7 -7
-18 -17 -15 -15 -15 -14 -13 -13 -12 -12 -11 -10 -8 -8 -8 -8 -7 -7 -7 -7 -7 -7 -7 -8 -8 -8 -9 -8 -9 -9 -9 -8 -8 -9 -8 -8 -8 -8 -8 -8 -8 -8 -8 -7
-17 -16 -16 -15 -15 -15 -14 -13 -13 -12 -11 -10 -8 -8 -8 -8 -7 -7 -7 -7 -8 -8 -8 -8 -8 -8 -8 -8 -9 -9 -9 -8 -9 -9 -9 -9 -9 -9 -9 -8 -8 -8 -9 -8
-18 -16 -15 -15 -14 -14 -14 -13 -12 -12 -11 -10 -9 -8 -8 -8 -8 -7 -8 -8 -8 -8 -8 -8 -8 -8 -8 -8 -9 -9 -8 -8 -8 -9 -9 -9 -8 -9 -9 -8 -8 -9 -9 -8
-16 -15 -15 -15 -14 -14 -14 -13 -12 -12 -11 -10 -9 -8 -8 -8 -8 -8 -8 -8 -8 -8 -8 -8 -8 -8 -8 -9 -9 -9 -9 -9 -9 -9 -9 -9 -9 -8 -8 -8 -8 -8 -9 -9
-16 -16 -15 -15 -14 -13 -14 -13 -13 -12 -11 -10 -9 -9 -8 -8 -8 -8 -8 -8 -8 -8 -8 -8 -9 -8 -8 -9 -9 -9 -9 -9 -9 -9 -9 -10 -8 -9 -9 -9 -9 -9 -9 -9
-15 -15 -14 -13 -14 -14 -13 -13 -13 -12 -12 -10 -10 -9 -9 -9 -8 -8 -8 -8 -8 -8 -8 -9 -9 -9 -9 -9 -9 -10 -10 -9 -9 -9 -9 -9 -9 -9 -9 -9 -9 -9 -9 -9

GFSCGP_500_temp_045.txt.gz
Temp
-6 -6 -5 -7 -6 -6 -7 -6 -5 -6 -6 -7 -8 -8 -7 -6 -5 -5 -5 -5 -6 -6 -6 -7 -7 -6 -6 -6 -6 -6 -5 -6 -6 -6 -6 -7 -6 -6 -6 -6 -6 -6 -6 -6
-6 -6 -6 -7 -6 -7 -7 -7 -6 -7 -6 -6 -7 -7 -8 -7 -6 -6 -5 -6 -6 -5 -6 -6 -7 -7 -7 -6 -6 -6 -5 -6 -6 -6 -6 -6 -6 -6 -6 -6 -5 -6 -6 -6
-6 -6 -6 -7 -7 -7 -7 -7 -7 -8 -7 -6 -7 -7 -7 -7 -7 -5 -5 -4 -4 -5 -5 -5 -6 -7 -7 -6 -6 -6 -5 -6 -6 -6 -5 -6 -6 -6 -6 -6 -5 -5 -6 -6
-7 -6 -7 -6 -7 -7 -7 -7 -8 -9 -8 -8 -7 -7 -7 -7 -8 -6 -5 -5 -5 -5 -5 -5 -6 -6 -7 -6 -6 -6 -6 -5 -6 -6 -5 -6 -6 -6 -5 -5 -5 -5 -5 -6
-8 -8 -6 -6 -7 -8 -8 -7 -7 -9 -9 -9 -8 -7 -7 -7 -7 -7 -7 -6 -6 -5 -5 -5 -5 -6 -7 -6 -6 -6 -5 -5 -5 -5 -6 -6 -6 -6 -5 -5 -5 -5 -5 -5
-9 -9 -8 -7 -8 -8 -9 -8 -8 -8 -9 -9 -7 -7 -5 -6 -6 -8 -8 -7 -7 -6 -5 -4 -5 -5 -6 -6 -6 -5 -5 -5 -5 -5 -5 -6 -6 -6 -6 -6 -5 -6 -6 -5
-11 -10 -9 -9 -8 -9 -9 -8 -9 -9 -8 -5 -6 -7 -3 -6 -6 -7 -8 -8 -7 -7 -6 -5 -5 -6 -6 -6 -5 -5 -5 -5 -5 -6 -6 -5 -5 -6 -6 -6 -5 -5 -6 -5
-14 -13 -11 -10 -9 -10 -10 -9 -8 -8 -7 -6 -6 -4 -2 -5 -6 -7 -7 -8 -8 -7 -7 -6 -5 -5 -6 -6 -6 -5 -5 -5 -5 -6 -6 -6 -5 -6 -6 -5 -5 -6 -5 -5
-14 -14 -13 -12 -11 -11 -10 -9 -9 -9 -7 -7 -6 -6 -4 -4 -6 -7 -7 -8 -8 -8 -7 -6 -5 -5 -5 -6 -5 -6 -6 -5 -5 -6 -6 -6 -5 -6 -6 -6 -6 -6 -5 -6
-15 -14 -14 -14 -14 -12 -12 -10 -11 -10 -8 -6 -6 -6 -5 -4 -6 -7 -7 -8 -8 -8 -8 -7 -6 -5 -5 -6 -6 -6 -6 -5 -5 -5 -6 -5 -6 -6 -6 -5 -6 -6 -5 -5
-16 -15 -14 -14 -15 -14 -12 -13 -11 -10 -8 -7 -7 -6 -5 -4 -5 -6 -7 -7 -8 -8 -8 -8 -7 -6 -5 -6 -5 -5 -5 -5 -5 -5 -5 -5 -5 -5 -5 -5 -5 -5 -5 -5
-17 -16 -15 -15 -15 -15 -15 -12 -12 -12 -9 -8 -8 -7 -5 -5 -5 -6 -7 -8 -8 -8 -8 -8 -7 -7 -6 -6 -6 -5 -5 -5 -5 -5 -5 -5 -5 -5 -5 -5 -5 -5 -5 -5
-18 -17 -16 -15 -15 -15 -15 -14 -13 -11 -10 -9 -8 -6 -6 -5 -6 -6 -7 -8 -8 -8 -8 -8 -8 -8 -7 -6 -6 -6 -6 -5 -6 -5 -5 -5 -4 -5 -5 -5 -5 -5 -5 -5
-20 -19 -18 -17 -16 -16 -16 -15 -14 -13 -12 -9 -8 -8 -6 -6 -6 -6 -6 -7 -7 -8 -8 -8 -8 -8 -8 -7 -6 -6 -6 -6 -6 -6 -5 -5 -5 -5 -5 -5 -4 -5 -5 -5
-21 -21 -20 -18 -17 -17 -16 -15 -14 -13 -11 -10 -9 -8 -7 -7 -6 -7 -6 -7 -8 -8 -8 -8 -8 -8 -8 -8 -7 -6 -6 -6 -6 -6 -5 -5 -5 -5 -5 -5 -4 -5 -5 -5
-23 -23 -22 -21 -20 -18 -16 -14 -14 -12 -11 -10 -9 -8 -7 -7 -7 -6 -6 -7 -7 -8 -8 -8 -8 -8 -8 -8 -8 -7 -6 -6 -6 -5 -5 -5 -5 -5 -5 -5 -5 -5 -5 -5
-24 -25 -24 -24 -23 -21 -16 -14 -13 -12 -11 -10 -9 -8 -8 -7 -8 -6 -6 -7 -7 -7 -8 -8 -8 -8 -8 -8 -8 -8 -7 -6 -6 -5 -5 -5 -5 -6 -6 -6 -5 -5 -5 -5
-24 -25 -24 -23 -21 -21 -16 -15 -14 -12 -10 -10 -10 -8 -8 -8 -8 -7 -6 -6 -7 -7 -7 -7 -8 -8 -8 -8 -8 -9 -8 -7 -6 -6 -6 -5 -5 -6 -6 -6 -5 -5 -5 -5
-25 -24 -23 -21 -20 -19 -17 -16 -14 -12 -11 -10 -10 -8 -8 -9 -9 -8 -7 -6 -6 -6 -7 -7 -7 -7 -8 -8 -8 -9 -8 -8 -7 -6 -6 -6 -6 -6 -6 -6 -6 -6 -6 -6
-24 -22 -22 -20 -18 -16 -17 -16 -14 -12 -12 -11 -10 -8 -9 -10 -9 -8 -7 -7 -6 -6 -6 -6 -7 -7 -8 -8 -8 -8 -9 -8 -8 -6 -6 -6 -6 -6 -6 -6 -6 -6 -6 -6
-20 -20 -19 -19 -16 -16 -16 -15 -14 -14 -12 -11 -10 -9 -10 -10 -9 -9 -8 -9 -8 -6 -6 -7 -7 -7 -8 -8 -8 -8 -9 -9 -9 -7 -6 -6 -6 -6 -6 -7 -7 -7 -7 -7
-20 -20 -19 -17 -16 -15 -16 -15 -15 -14 -13 -11 -10 -9 -10 -9 -10 -9 -9 -9 -7 -7 -7 -7 -6 -7 -7 -8 -9 -8 -8 -9 -9 -8 -7 -7 -7 -7 -7 -7 -7 -7 -7 -7
-19 -18 -17 -16 -17 -14 -15 -15 -14 -14 -13 -11 -9 -9 -10 -9 -10 -9 -9 -8 -7 -7 -8 -8 -7 -7 -8 -8 -8 -8 -9 -8 -9 -8 -8 -7 -7 -7 -8 -8 -8 -8 -8 -8
-18 -17 -16 -16 -15 -15 -15 -14 -14 -14 -13 -11 -9 -10 -9 -10 -9 -9 -8 -8 -7 -8 -8 -8 -8 -8 -8 -8 -8 -8 -8 -7 -8 -8 -9 -8 -8 -8 -8 -8 -8 -8 -8 -8
-17 -17 -16 -16 -15 -14 -15 -14 -13 -14 -13 -11 -10 -10 -10 -9 -9 -9 -8 -8 -8 -8 -8 -8 -8 -8 -9 -8 -8 -8 -8 -9 -9 -9 -9 -9 -8 -8 -9 -9 -9 -9 -8 -9
-17 -16 -16 -15 -15 -15 -15 -14 -13 -13 -12 -12 -11 -10 -10 -9 -9 -9 -8 -8 -8 -8 -8 -8 -8 -8 -8 -8 -8 -8 -9 -9 -9 -9 -9 -9 -9 -9 -9 -8 -9 -9 -9 -9

GFSCGP_500_temp_048.txt.gz
Temp
-6 -6 -6 -6 -6 -6 -6 -6 -6 -6 -7 -7 -7 -7 -7 -7 -6 -5 -5 -5 -5 -6 -6 -6 -6 -5 -6 -6 -6 -5 -5 -5 -6 -6 -6 -6 -6 -6 -6 -6 -6 -6 -6 -6
-6 -6 -6 -6 -6 -6 -7 -7 -6 -6 -6 -6 -7 -7 -8 -7 -7 -6 -5 -4 -4 -4 -6 -6 -6 -6 -6 -6 -6 -6 -5 -5 -6 -6 -6 -6 -6 -6 -6 -6 -6 -6 -6 -6
-6 -6 -6 -6 -6 -6 -7 -7 -7 -7 -6 -6 -7 -7 -8 -7 -8 -7 -6 -5 -4 -4 -5 -6 -7 -6 -6 -6 -6 -6 -5 -5 -5 -5 -5 -6 -6 -6 -6 -5 -5 -5 -5 -6
-7 -7 -6 -6 -6 -6 -7 -7 -7 -7 -7 -7 -8 -7 -7 -7 -8 -7 -7 -6 -5 -4 -4 -5 -5 -6 -7 -6 -6 -6 -5 -5 -5 -5 -5 -6 -6 -5 -5 -5 -5 -5 -5 -5
-7 -7 -7 -7 -6 -6 -7 -7 -8 -7 -7 -8 -7 -7 -8 -8 -7 -7 -7 -7 -6 -5 -5 -5 -5 -6 -6 -6 -6 -6 -5 -5 -5 -5 -5 -6 -6 -5 -5 -5 -5 -5 -5 -5
-9 -7 -7 -7 -7 -7 -7 -8 -8 -8 -8 -7 -7 -7 -6 -8 -7 -7 -8 -7 -7 -6 -5 -5 -5 -4 -5 -6 -6 -5 -5 -5 -5 -5 -5 -5 -6 -5 -5 -5 -5 -5 -5 -5
-11 -9 -9 -9 -8 -8 -8 -8 -8 -9 -8 -6 -6 -6 -5 -7 -9 -7 -7 -7 -7 -7 -6 -6 -5 -5 -5 -5 -5 -5 -5 -5 -5 -5 -5 -5 -5 -5 -5 -5 -5 -5 -5 -5
-13 -12 -11 -9 -9 -9 -8 -8 -8 -8 -8 -6 -7 -5 -4 -6 -6 -7 -8 -8 -8 -8 -7 -6 -6 -5 -5 -5 -5 -5 -5 -5 -5 -5 -5 -5 -5 -5 -5 -5 -5 -5 -5 -5
-14 -14 -13 -11 -11 -11 -8 -9 -7 -9 -11 -8 -9 -6 -7 -5 -6 -7 -7 -8 -8 -7 -8 -7 -6 -6 -5 -5 -5 -5 -5 -5 -5 -5 -5 -5 -5 -5 -5 -5 -5 -5 -5 -5
-14 -15 -14 -13 -13 -12 -12 -9 -11 -10 -10 -8 -10 -7 -8 -6 -5 -6 -8 -8 -8 -8 -8 -7 -7 -6 -5 -5 -5 -5 -5 -5 -5 -5 -5 -5 -5 -5 -5 -5 -5 -5 -5 -6
-15 -15 -14 -14 -14 -14 -14 -13 -13 -14 -11 -9 -8 -8 -8 -6 -5 -6 -7 -7 -8 -8 -8 -8 -7 -7 -6 -6 -5 -5 -5 -5 -5 -5 -5 -5 -5 -5 -5 -5 -5 -5 -5 -6
-16 -15 -15 -14 -14 -14 -14 -13 -13 -14 -11 -8 -10 -11 -11 -7 -5 -5 -7 -7 -8 -8 -8 -8 -8 -8 -7 -6 -6 -5 -5 -5 -5 -5 -5 -5 -5 -5 -5 -5 -5 -5 -5 -5
-16 -16 -16 -15 -15 -15 -15 -15 -14 -13 -11 -12 -11 -9 -10 -8 -5 -5 -6 -7 -8 -8 -8 -8 -8 -8 -7 -7 -6 -6 -5 -5 -5 -5 -5 -5 -4 -4 -5 -5 -5 -4 -5 -5
-18 -17 -17 -16 -17 -18 -17 -16 -15 -15 -14 -11 -9 -12 -12 -8 -7 -6 -6 -7 -8 -8 -8 -8 -7 -8 -7 -7 -7 -6 -6 -6 -5 -5 -5 -5 -5 -4 -5 -5 -5 -5 -5 -5
-19 -18 -18 -17 -17 -17 -17 -16 -15 -15 -13 -10 -10 -14 -11 -8 -8 -7 -7 -7 -7 -8 -8 -8 -8 -8 -8 -8 -8 -7 -6 -5 -5 -5 -5 -5 -5 -5 -5 -5 -5 -5 -5 -5
-21 -20 -21 -19 -18 -18 -17 -17 -15 -15 -15 -12 -10 -10 -9 -8 -8 -7 -7 -6 -7 -8 -8 -8 -8 -8 -8 -8 -8 -8 -7 -6 -5 -5 -5 -5 -5 -5 -5 -5 -5 -5 -5 -5
-22 -22 -22 -21 -20 -19 -18 -16 -16 -15 -15 -14 -11 -10 -12 -7 -7 -8 -7 -7 -6 -7 -8 -7 -8 -8 -8 -8 -8 -8 -8 -7 -6 -6 -5 -5 -5 -5 -5 -5 -5 -5 -5 -5
-22 -23 -23 -22 -22 -23 -17 -16 -16 -15 -15 -14 -13 -12 -12 -9 -7 -8 -7 -7 -7 -7 -7 -7 -7 -8 -8 -8 -8 -8 -8 -8 -7 -6 -6 -5 -5 -5 -5 -5 -5 -5 -5 -5
-23 -23 -23 -23 -23 -22 -18 -16 -16 -15 -14 -14 -13 -12 -12 -9 -8 -8 -8 -7 -7 -7 -7 -7 -7 -8 -8 -8 -8 -8 -8 -8 -8 -7 -6 -5 -5 -5 -5 -5 -5 -5 -5 -5
-24 -24 -24 -23 -23 -21 -20 -17 -16 -16 -15 -14 -13 -12 -12 -9 -8 -8 -9 -8 -7 -7 -7 -7 -7 -7 -7 -8 -8 -8 -8 -8 -8 -7 -7 -6 -6 -5 -5 -5 -5 -6 -6 -6
-23 -23 -23 -23 -22 -20 -19 -16 -17 -17 -15 -13 -12 -12 -10 -10 -9 -8 -8 -8 -7 -7 -7 -7 -7 -7 -7 -8 -8 -8 -8 -8 -8 -8 -8 -7 -6 -6 -5 -5 -5 -6 -6 -6
-21 -21 -21 -21 -21 -19 -18 -16 -17 -17 -14 -13 -12 -12 -10 -10 -9 -9 -8 -8 -8 -8 -7 -7 -7 -7 -7 -8 -8 -8 -8 -8 -8 -8 -8 -7 -7 -6 -6 -5 -6 -6 -6 -6
-20 -20 -20 -20 -19 -18 -16 -17 -15 -16 -15 -14 -13 -11 -9 -9 -9 -9 -8 -7 -8 -8 -7 -6 -7 -7 -7 -7 -8 -8 -8 -8 -8 -8 -8 -8 -7 -6 -6 -6 -6 -6 -6 -6
-20 -20 -20 -19 -18 -17 -16 -16 -14 -15 -15 -14 -13 -11 -9 -10 -10 -9 -9 -8 -9 -9 -7 -7 -6 -6 -6 -7 -7 -8 -8 -8 -7 -8 -8 -7 -7 -7 -7 -6 -6 -6 -7 -7
-19 -19 -18 -18 -18 -17 -16 -15 -13 -15 -14 -14 -12 -10 -10 -10 -10 -9 -9 -9 -9 -9 -8 -7 -7 -7 -7 -7 -7 -8 -8 -7 -7 -9 -8 -7 -8 -8 -8 -8 -8 -8 -8 -8
-17 -17 -17 -17 -16 -16 -15 -14 -14 -14 -13 -13 -12 -11 -11 -11 -10 -10 -9 -9 -9 -8 -8 -8 -7 -6 -6 -7 -7 -7 -8 -8 -8 -8 -8 -8 -8 -8 -8 -9 -9 -9 -9 -9

GFSCGP_500_temp_051.txt.gz
Temp
-6 -6 -5 -6 -6 -7 -7 -8 -6 -9 -7 -6 -5 -6 -4 -6 -5 -5 -5 -5 -5 -6 -6 -6 -6 -6 -5 -5 -5 -5 -5 -5 -5 -6 -6 -6 -6 -6 -6 -6 -6 -7 -6 -6
-6 -6 -6 -6 -6 -6 -6 -7 -7 -9 -8 -6 -6 -6 -7 -6 -5 -5 -5 -5 -4 -5 -6 -6 -6 -6 -5 -5 -5 -5 -5 -5 -5 -5 -5 -5 -6 -6 -6 -6 -6 -6 -6 -6
-7 -6 -7 -7 -6 -6 -6 -7 -7 -7 -8 -6 -6 -6 -6 -5 -5 -5 -6 -5 -5 -4 -5 -6 -6 -6 -6 -5 -5 -5 -5 -5 -5 -5 -5 -5 -5 -6 -6 -6 -6 -6 -6 -6
-6 -7 -6 -7 -6 -6 -7 -7 -7 -6 -7 -6 -6 -6 -6 -5 -6 -5 -5 -6 -6 -5 -5 -5 -6 -6 -6 -5 -5 -5 -5 -5 -5 -5 -5 -5 -5 -5 -5 -5 -6 -5 -5 -5
-7 -7 -7 -6 -7 -7 -6 -7 -7 -7 -6 -6 -7 -8 -5 -6 -5 -5 -5 -6 -6 -6 -5 -5 -5 -6 -6 -5 -6 -5 -5 -5 -5 -5 -5 -5 -5 -5 -5 -6 -5 -5 -5 -5
-8 -7 -7 -7 -7 -7 -7 -7 -7 -7 -7 -7 -6 -8 -8 -6 -7 -6 -6 -6 -6 -6 -6 -5 -5 -4 -5 -5 -5 -5 -5 -5 -5 -5 -5 -5 -5 -5 -5 -5 -5 -5 -5 -5
-9 -8 -7 -8 -7 -7 -7 -8 -7 -8 -8 -6 -5 -6 -7 -8 -6 -6 -7 -6 -6 -6 -6 -6 -5 -5 -5 -5 -5 -5 -5 -5 -5 -5 -5 -5 -5 -5 -5 -5 -5 -5 -4 -5
-13 -11 -10 -9 -8 -9 -7 -8 -9 -9 -9 -6 -6 -6 -5 -7 -8 -7 -5 -6 -5 -6 -7 -6 -6 -6 -5 -5 -6 -5 -5 -5 -5 -5 -5 -5 -5 -5 -5 -5 -5 -5 -5 -5
-15 -14 -10 -9 -9 -10 -10 -10 -7 -11 -10 -9 -8 -7 -6 -7 -7 -7 -6 -7 -5 -5 -6 -6 -6 -6 -6 -5 -5 -6 -6 -5 -5 -5 -5 -5 -5 -5 -5 -5 -5 -5 -5 -5
-15 -14 -14 -12 -10 -10 -11 -9 -11 -11 -11 -10 -9 -8 -8 -8 -6 -7 -6 -5 -5 -5 -6 -7 -6 -6 -6 -6 -5 -5 -5 -5 -5 -5 -5 -5 -5 -5 -5 -5 -4 -4 -5 -5
-15 -14 -15 -14 -12 -12 -12 -11 -11 -12 -12 -11 -10 -8 -8 -9 -9 -7 -6 -7 -7 -7 -6 -7 -7 -6 -7 -7 -6 -5 -5 -5 -5 -5 -5 -5 -5 -5 -5 -5 -4 -4 -5 -5
-15 -14 -15 -14 -14 -14 -13 -15 -14 -13 -11 -12 -11 -9 -9 -9 -10 -8 -7 -6 -7 -7 -8 -7 -7 -7 -7 -7 -6 -6 -5 -5 -5 -5 -5 -5 -5 -5 -5 -5 -5 -5 -5 -5
-15 -15 -15 -15 -14 -14 -14 -14 -13 -14 -14 -12 -11 -11 -10 -10 -10 -10 -7 -6 -7 -7 -8 -8 -8 -7 -7 -7 -6 -6 -6 -5 -5 -5 -5 -4 -4 -4 -5 -4 -4 -4 -4 -5
-16 -16 -16 -15 -17 -17 -17 -15 -16 -16 -15 -14 -13 -11 -11 -11 -11 -11 -8 -7 -7 -8 -8 -8 -8 -7 -7 -7 -7 -7 -7 -6 -6 -5 -5 -4 -4 -4 -4 -5 -4 -4 -5 -5
-18 -17 -17 -16 -17 -17 -16 -15 -15 -15 -14 -16 -14 -12 -11 -11 -10 -11 -10 -7 -7 -8 -8 -9 -8 -8 -7 -7 -7 -7 -7 -6 -6 -5 -5 -5 -5 -5 -4 -4 -4 -4 -4 -5
-20 -19 -18 -17 -17 -18 -17 -16 -15 -15 -14 -15 -13 -13 -11 -11 -10 -10 -10 -11 -7 -7 -7 -8 -8 -8 -7 -7 -7 -7 -7 -7 -6 -6 -5 -5 -5 -5 -5 -5 -4 -4 -5 -5
-21 -21 -20 -19 -19 -18 -18 -17 -16 -15 -15 -14 -14 -12 -11 -11 -10 -11 -9 -10 -7 -8 -8 -7 -7 -8 -7 -7 -7 -7 -8 -8 -7 -6 -6 -6 -5 -5 -5 -5 -5 -5 -4 -5
-22 -21 -21 -20 -20 -21 -20 -18 -18 -17 -16 -16 -14 -14 -13 -12 -11 -12 -10 -11 -9 -7 -6 -7 -7 -7 -7 -7 -7 -7 -8 -7 -7 -7 -6 -6 -6 -5 -5 -5 -4 -4 -4 -4
-22 -22 -22 -21 -21 -20 -20 -22 -18 -17 -16 -16 -14 -14 -13 -13 -13 -12 -9 -8 -7 -7 -7 -7 -7 -7 -7 -7 -7 -7 -7 -7 -8 -7 -6 -6 -6 -6 -5 -5 -5 -5 -5 -4
-22 -23 -23 -22 -22 -21 -20 -21 -22 -18 -16 -16 -15 -14 -14 -14 -14 -12 -10 -7 -8 -8 -8 -7 -8 -8 -8 -8 -8 -7 -7 -7 -7 -7 -7 -7 -6 -6 -6 -6 -5 -5 -5 -5
-22 -22 -22 -22 -22 -22 -22 -22 -21 -19 -16 -16 -16 -15 -14 -14 -13 -13 -9 -9 -8 -8 -8 -8 -7 -7 -8 -8 -7 -7 -7 -7 -8 -8 -8 -7 -7 -6 -6 -5 -5 -5 -5 -5
-21 -21 -21 -22 -22 -22 -22 -22 -22 -19 -16 -16 -16 -16 -15 -14 -14 -11 -8 -8 -8 -8 -8 -8 -7 -7 -8 -7 -7 -7 -8 -8 -8 -8 -8 -7 -7 -7 -6 -6 -5 -5 -5 -5
-20 -21 -21 -21 -21 -21 -20 -20 -21 -19 -18 -16 -16 -15 -15 -15 -14 -10 -8 -8 -9 -8 -8 -8 -8 -7 -7 -7 -7 -7 -8 -8 -8 -8 -8 -7 -8 -7 -7 -6 -6 -5 -5 -5
-20 -20 -20 -20 -20 -20 -19 -19 -19 -18 -16 -15 -14 -15 -15 -14 -13 -11 -9 -10 -10 -9 -8 -8 -8 -7 -7 -7 -7 -8 -8 -8 -8 -8 -8 -8 -8 -7 -6 -6 -6 -6 -6 -6
-19 -20 -19 -19 -19 -19 -19 -19 -17 -17 -16 -14 -16 -15 -14 -13 -11 -10 -9 -10 -10 -10 -8 -8 -7 -7 -6 -6 -6 -7 -7 -8 -8 -8 -8 -7 -8 -7 -7 -6 -6 -6 -6 -6
-19 -19 -19 -18 -18 -18 -18 -18 -17 -16 -16 -15 -15 -14 -14 -12 -10 -10 -10 -10 -10 -10 -9 -8 -7 -7 -6 -6 -6 -6 -7 -7 -8 -8 -8 -7 -7 -7 -7 -7 -7 -7 -7 -7

GFSCGP_500_temp_054.txt.gz
Temp
-6 -6 -5 -6 -6 -6 -6 -8 -8 -5 -8 -7 -6 -6 -5 -5 -5 -4 -4 -3 -3 -3 -4 -5 -5 -5 -5 -5 -4 -4 -4 -5 -5 -5 -5 -5 -6 -6 -6 -6 -6 -6 -6 -6
-6 -6 -6 -6 -6 -7 -6 -6 -6 -8 -8 -8 -7 -6 -6 -5 -5 -4 -4 -3 -3 -3 -4 -5 -5 -5 -5 -5 -5 -4 -4 -5 -5 -5 -5 -5 -6 -6 -6 -6 -6 -6 -6 -6
-6 -6 -7 -7 -6 -6 -6 -6 -6 -8 -8 -8 -8 -7 -5 -5 -5 -3 -5 -4 -3 -4 -4 -4 -5 -5 -5 -5 -5 -4 -4 -5 -5 -5 -5 -5 -5 -5 -6 -6 -6 -6 -6 -5
-6 -7 -6 -7 -6 -7 -7 -7 -6 -6 -8 -8 -8 -8 -5 -5 -4 -4 -7 -5 -4 -4 -4 -4 -5 -6 -6 -5 -5 -5 -4 -5 -5 -5 -5 -5 -5 -5 -5 -5 -5 -6 -5 -5
-7 -7 -7 -6 -7 -7 -6 -7 -7 -7 -6 -8 -8 -7 -6 -7 -5 -3 -4 -6 -5 -5 -4 -5 -5 -6 -6 -5 -5 -5 -5 -4 -5 -5 -5 -5 -5 -5 -5 -5 -5 -5 -5 -5
-7 -8 -7 -7 -6 -7 -7 -7 -7 -7 -7 -6 -5 -5 -5 -7 -7 -5 -6 -6 -7 -5 -4 -4 -5 -5 -5 -5 -5 -4 -4 -4 -4 -4 -5 -5 -5 -5 -5 -4 -4 -4 -5 -5
-9 -9 -7 -7 -7 -7 -7 -7 -7 -7 -7 -5 -5 -5 -4 -6 -7 -7 -6 -5 -4 -6 -4 -3 -3 -5 -5 -5 -5 -5 -4 -4 -4 -4 -4 -5 -5 -5 -5 -4 -4 -4 -4 -4
-10 -10 -10 -9 -8 -7 -7 -7 -8 -7 -7 -5 -6 -5 -4 -5 -7 -7 -6 -4 -5 -6 -5 -4 -4 -4 -5 -5 -5 -5 -5 -5 -4 -4 -4 -4 -4 -5 -5 -5 -5 -4 -4 -4
-12 -12 -13 -11 -10 -10 -9 -11 -7 -9 -10 -9 -8 -7 -6 -5 -7 -7 -6 -5 -6 -5 -7 -5 -5 -5 -4 -5 -5 -5 -6 -5 -5 -4 -4 -5 -4 -4 -5 -5 -5 -5 -4 -4
-13 -11 -13 -14 -13 -10 -11 -9 -12 -11 -10 -9 -9 -9 -8 -7 -6 -7 -7 -6 -4 -5 -6 -6 -6 -6 -6 -5 -5 -5 -5 -5 -5 -5 -4 -4 -5 -4 -5 -5 -5 -5 -5 -5
-14 -14 -13 -15 -12 -12 -10 -10 -10 -10 -12 -9 -10 -9 -8 -7 -7 -7 -7 -7 -6 -6 -5 -6 -5 -8 -7 -6 -4 -5 -5 -5 -5 -5 -5 -4 -4 -4 -4 -5 -4 -4 -5 -5
-14 -15 -14 -14 -14 -14 -12 -12 -13 -12 -11 -10 -11 -9 -8 -8 -8 -8 -8 -8 -8 -7 -7 -6 -7 -6 -8 -6 -5 -5 -5 -5 -5 -5 -5 -4 -5 -4 -4 -4 -4 -4 -4 -5
-14 -14 -14 -14 -14 -15 -14 -13 -13 -14 -13 -11 -10 -10 -8 -9 -9 -10 -9 -9 -8 -9 -9 -7 -6 -5 -6 -6 -5 -5 -6 -5 -5 -5 -5 -5 -4 -5 -4 -5 -4 -4 -5 -5
-14 -16 -15 -14 -16 -16 -17 -15 -14 -15 -14 -13 -11 -11 -9 -10 -10 -10 -10 -10 -9 -10 -9 -8 -7 -6 -6 -6 -5 -5 -5 -6 -6 -5 -5 -5 -4 -5 -5 -5 -4 -4 -4 -5
-18 -17 -16 -15 -16 -17 -15 -15 -14 -15 -13 -14 -12 -12 -10 -11 -11 -10 -10 -10 -10 -9 -9 -8 -8 -6 -4 -6 -6 -5 -5 -6 -6 -5 -5 -5 -5 -5 -5 -5 -5 -4 -4 -5
-20 -19 -18 -16 -17 -17 -16 -15 -15 -14 -14 -14 -13 -12 -10 -11 -9 -10 -10 -10 -10 -8 -10 -9 -8 -8 -6 -4 -5 -5 -6 -6 -6 -6 -6 -5 -5 -5 -5 -5 -5 -5 -5 -5
-21 -20 -20 -18 -18 -17 -18 -16 -16 -15 -14 -13 -13 -11 -10 -11 -9 -10 -10 -11 -10 -8 -7 -10 -8 -6 -4 -5 -4 -6 -6 -6 -7 -7 -6 -6 -5 -5 -5 -5 -5 -5 -5 -5
-21 -21 -21 -19 -20 -20 -17 -17 -17 -17 -15 -14 -14 -13 -12 -11 -10 -10 -10 -10 -10 -9 -7 -8 -8 -6 -6 -4 -6 -6 -7 -7 -7 -7 -7 -6 -5 -5 -5 -5 -5 -5 -5 -5
-21 -21 -21 -21 -21 -20 -19 -18 -18 -19 -18 -17 -16 -15 -13 -12 -11 -10 -11 -10 -10 -9 -8 -7 -6 -5 -5 -6 -5 -5 -7 -7 -7 -7 -7 -7 -6 -6 -5 -5 -5 -5 -5 -5
-21 -21 -21 -21 -21 -21 -20 -20 -20 -19 -17 -17 -16 -15 -13 -13 -12 -10 -10 -11 -11 -10 -9 -6 -6 -6 -5 -6 -7 -7 -6 -6 -7 -7 -7 -7 -7 -6 -6 -6 -6 -5 -5 -5
-21 -21 -21 -21 -21 -20 -20 -20 -21 -21 -18 -17 -16 -14 -13 -13 -12 -11 -12 -10 -10 -7 -8 -7 -6 -7 -7 -6 -7 -7 -6 -7 -7 -7 -8 -7 -8 -7 -7 -6 -6 -6 -5 -5
-21 -21 -20 -20 -21 -20 -20 -20 -20 -20 -20 -18 -17 -16 -15 -14 -13 -13 -13 -15 -11 -9 -10 -9 -7 -7 -7 -7 -7 -7 -7 -7 -7 -7 -7 -7 -7 -7 -7 -7 -6 -6 -5 -5
-21 -21 -21 -21 -21 -20 -20 -20 -20 -20 -20 -20 -18 -17 -16 -15 -13 -13 -14 -14 -10 -12 -11 -9 -8 -8 -7 -7 -7 -7 -7 -8 -8 -7 -7 -7 -7 -7 -7 -7 -7 -6 -6 -5
-21 -20 -20 -20 -20 -20 -19 -20 -19 -20 -20 -20 -19 -17 -18 -16 -15 -14 -14 -12 -12 -12 -11 -10 -10 -8 -7 -7 -7 -8 -8 -8 -8 -8 -8 -8 -7 -7 -7 -7 -7 -6 -6 -6
-20 -20 -20 -20 -19 -19 -19 -19 -19 -19 -19 -21 -20 -19 -18 -17 -15 -14 -14 -14 -13 -12 -11 -10 -10 -9 -8 -7 -7 -7 -8 -8 -7 -7 -8 -8 -8 -7 -8 -7 -7 -7 -6 -6
-20 -20 -19 -19 -19 -19 -19 -18 -19 -18 -18 -18 -18 -18 -17 -17 -15 -15 -14 -14 -14 -12 -10 -10 -11 -10 -8 -8 -7 -7 -7 -7 -8 -7 -8 -8 -8 -8 -7 -7 -7 -7 -6 -6

GFSCGP_500_temp_057.txt.gz
Temp
-6 -6 -5 -6 -6 -6 -6 -5 -5 -6 -8 -7 -6 -6 -6 -6 -6 -6 -6 -4 -5 -5 -5 -5 -5 -5 -5 -6 -5 -5 -4 -5 -5 -5 -5 -6 -6 -6 -6 -6 -6 -6 -6 -6
-6 -6 -6 -6 -6 -6 -6 -5 -5 -5 -7 -9 -9 -7 -6 -6 -6 -5 -6 -5 -5 -5 -5 -5 -5 -5 -5 -5 -5 -5 -5 -5 -5 -5 -5 -5 -6 -5 -6 -6 -6 -6 -6 -6
-6 -7 -7 -7 -7 -6 -6 -6 -6 -5 -8 -9 -9 -8 -8 -7 -6 -6 -4 -5 -5 -6 -5 -6 -5 -6 -5 -5 -5 -5 -5 -5 -5 -5 -5 -5 -6 -5 -5 -6 -6 -5 -5 -5
-7 -7 -7 -7 -7 -7 -7 -6 -7 -6 -6 -7 -9 -9 -8 -8 -7 -6 -6 -6 -5 -5 -5 -5 -5 -6 -6 -5 -5 -5 -4 -5 -5 -5 -5 -5 -5 -5 -5 -5 -5 -5 -5 -5
-7 -7 -7 -7 -7 -7 -7 -7 -7 -7 -7 -6 -7 -9 -9 -8 -8 -7 -6 -6 -5 -5 -5 -5 -6 -6 -6 -6 -5 -5 -5 -5 -5 -5 -4 -5 -5 -5 -5 -5 -5 -4 -5 -4
-8 -7 -8 -7 -7 -7 -7 -8 -7 -6 -7 -6 -6 -7 -7 -8 -8 -7 -7 -5 -6 -5 -4 -6 -5 -5 -5 -6 -6 -5 -4 -4 -5 -5 -5 -4 -4 -5 -5 -4 -5 -5 -4 -4
-9 -9 -8 -8 -7 -7 -7 -7 -7 -7 -6 -4 -6 -7 -5 -6 -7 -7 -6 -7 -7 -6 -5 -5 -5 -5 -5 -6 -6 -6 -5 -4 -4 -4 -5 -4 -4 -5 -5 -4 -4 -4 -4 -5
-10 -10 -10 -9 -8 -7 -7 -7 -7 -6 -6 -5 -7 -6 -5 -6 -8 -8 -8 -7 -7 -6 -6 -6 -5 -7 -5 -6 -6 -6 -6 -5 -4 -4 -4 -4 -4 -4 -4 -4 -4 -4 -4 -4
-11 -10 -10 -10 -10 -10 -9 -7 -7 -7 -6 -8 -8 -7 -7 -7 -8 -8 -7 -7 -7 -6 -6 -6 -5 -8 -7 -6 -6 -6 -6 -6 -5 -4 -4 -4 -4 -4 -4 -4 -4 -4 -4 -4
-11 -11 -12 -12 -12 -10 -11 -10 -10 -9 -7 -8 -6 -6 -7 -8 -8 -8 -7 -7 -7 -6 -7 -7 -7 -7 -7 -7 -7 -6 -6 -5 -5 -5 -4 -4 -4 -4 -4 -4 -4 -4 -4 -4
-12 -12 -13 -13 -12 -13 -11 -10 -10 -10 -8 -8 -8 -5 -7 -9 -9 -9 -8 -8 -8 -8 -8 -6 -7 -7 -7 -7 -7 -7 -6 -6 -5 -5 -4 -4 -4 -4 -4 -4 -4 -4 -4 -5
-13 -12 -13 -13 -13 -12 -12 -12 -12 -11 -9 -8 -8 -5 -8 -9 -9 -8 -9 -9 -9 -9 -9 -7 -5 -7 -6 -6 -6 -7 -7 -6 -5 -5 -5 -4 -4 -4 -4 -4 -4 -4 -4 -5
-14 -14 -13 -14 -15 -15 -13 -14 -13 -13 -11 -9 -10 -6 -8 -9 -10 -10 -9 -9 -9 -9 -9 -9 -6 -5 -7 -7 -7 -6 -7 -7 -6 -5 -5 -5 -4 -4 -4 -4 -4 -4 -4 -4
-14 -15 -15 -14 -15 -15 -15 -14 -13 -14 -13 -11 -11 -8 -8 -9 -10 -11 -10 -9 -10 -10 -10 -10 -10 -4 -6 -6 -7 -6 -6 -6 -6 -6 -5 -5 -5 -4 -4 -4 -4 -4 -4 -4
-17 -15 -16 -15 -16 -16 -15 -15 -15 -13 -12 -11 -10 -9 -9 -9 -11 -11 -10 -10 -10 -10 -9 -8 -7 -5 -7 -8 -7 -6 -6 -6 -6 -6 -6 -5 -5 -5 -4 -4 -4 -4 -4 -4
-19 -18 -18 -16 -16 -16 -16 -15 -15 -14 -12 -11 -11 -10 -10 -10 -11 -11 -10 -11 -11 -11 -10 -8 -7 -6 -3 -5 -7 -6 -5 -6 -7 -7 -6 -6 -5 -4 -4 -4 -5 -5 -4 -4
-19 -20 -20 -18 -19 -18 -17 -16 -15 -15 -13 -13 -13 -12 -12 -10 -9 -11 -11 -11 -11 -11 -10 -9 -7 -6 -5 -4 -7 -7 -7 -7 -8 -8 -7 -6 -6 -5 -4 -4 -5 -4 -5 -5
-19 -20 -20 -20 -21 -20 -16 -17 -17 -16 -15 -13 -14 -14 -13 -10 -9 -10 -11 -11 -10 -11 -11 -10 -9 -8 -7 -5 -6 -6 -6 -5 -9 -9 -8 -7 -6 -6 -5 -4 -4 -5 -5 -5
-19 -20 -20 -20 -21 -20 -19 -17 -17 -17 -16 -16 -15 -14 -14 -12 -10 -9 -11 -11 -11 -10 -11 -9 -9 -8 -7 -6 -5 -7 -5 -7 -6 -8 -8 -7 -7 -6 -5 -5 -5 -5 -5 -5
-20 -20 -20 -20 -21 -20 -19 -20 -20 -19 -16 -17 -17 -16 -13 -13 -11 -11 -10 -10 -11 -10 -11 -9 -8 -7 -8 -8 -8 -7 -6 -6 -7 -7 -8 -8 -8 -6 -6 -6 -5 -5 -5 -5
-20 -20 -20 -21 -21 -20 -20 -20 -20 -20 -16 -16 -16 -15 -12 -12 -12 -11 -10 -11 -11 -10 -10 -10 -10 -8 -7 -8 -9 -7 -6 -7 -7 -7 -7 -8 -8 -8 -7 -6 -6 -5 -5 -5
-20 -20 -20 -20 -20 -21 -20 -20 -20 -20 -19 -17 -17 -16 -14 -13 -12 -12 -11 -11 -11 -10 -9 -11 -10 -9 -7 -8 -7 -6 -6 -5 -6 -7 -8 -8 -8 -8 -8 -7 -6 -6 -5 -5
-19 -19 -20 -20 -20 -20 -19 -20 -20 -19 -18 -19 -18 -17 -15 -14 -12 -12 -12 -11 -12 -11 -9 -10 -10 -10 -9 -9 -8 -6 -7 -8 -6 -7 -8 -8 -8 -8 -8 -8 -7 -6 -6 -5
-20 -20 -20 -20 -20 -19 -20 -19 -19 -19 -18 -19 -19 -17 -16 -14 -13 -12 -13 -12 -11 -12 -10 -10 -10 -10 -9 -9 -9 -8 -7 -7 -6 -7 -8 -8 -7 -8 -8 -8 -8 -7 -7 -6
-19 -20 -20 -20 -20 -20 -19 -19 -18 -18 -18 -18 -18 -18 -17 -16 -15 -13 -13 -13 -12 -11 -10 -10 -10 -10 -9 -10 -10 -8 -7 -7 -7 -6 -7 -7 -7 -7 -8 -8 -8 -7 -7 -7
-19 -19 -19 -19 -20 -19 -19 -19 -19 -19 -18 -18 -19 -19 -19 -19 -18 -15 -13 -12 -12 -12 -11 -10 -10 -11 -9 -9 -10 -9 -8 -8 -7 -6 -6 -7 -8 -8 -8 -8 -8 -7 -7 -7

GFSCGP_500_temp_060.txt.gz
Temp
-6 -6 -6 -6 -6 -6 -6 -5 -5 -6 -7 -8 -8 -7 -7 -6 -6 -6 -6 -5 -5 -5 -4 -4 -6 -6 -5 -6 -6 -6 -5 -5 -6 -6 -6 -7 -6 -6 -6 -6 -6 -5 -5 -5
-6 -6 -7 -7 -7 -7 -6 -5 -6 -6 -7 -6 -7 -6 -7 -7 -7 -7 -7 -6 -5 -5 -4 -5 -5 -5 -5 -6 -6 -6 -5 -5 -6 -6 -6 -6 -6 -5 -7 -5 -5 -5 -5 -5
-7 -7 -7 -7 -7 -7 -6 -6 -6 -7 -7 -7 -6 -5 -7 -7 -8 -7 -6 -5 -5 -5 -3 -5 -6 -7 -6 -5 -6 -6 -6 -6 -6 -6 -6 -6 -6 -6 -6 -6 -6 -5 -5 -5
-7 -8 -7 -7 -7 -7 -7 -7 -7 -7 -7 -8 -8 -7 -6 -8 -8 -7 -7 -6 -5 -5 -4 -4 -6 -6 -6 -6 -6 -6 -6 -6 -6 -6 -7 -6 -6 -6 -6 -6 -6 -5 -5 -5
-7 -8 -7 -7 -7 -7 -7 -7 -8 -7 -7 -8 -9 -8 -8 -7 -8 -8 -7 -8 -6 -6 -5 -5 -6 -6 -6 -6 -6 -6 -6 -6 -6 -6 -6 -6 -6 -6 -6 -6 -6 -6 -5 -5
-8 -8 -7 -7 -7 -8 -8 -7 -8 -8 -7 -7 -8 -8 -8 -8 -6 -7 -7 -8 -6 -6 -6 -6 -6 -6 -6 -6 -6 -5 -6 -6 -6 -6 -6 -6 -6 -6 -6 -6 -6 -5 -5 -5
-9 -9 -8 -8 -7 -7 -7 -7 -7 -7 -8 -7 -8 -8 -7 -8 -7 -7 -7 -8 -7 -7 -7 -6 -5 -6 -5 -6 -6 -6 -6 -6 -6 -6 -6 -5 -6 -6 -6 -5 -5 -5 -5 -5
-9 -9 -9 -8 -8 -8 -7 -7 -7 -6 -6 -7 -8 -9 -8 -8 -9 -8 -8 -8 -6 -7 -6 -7 -6 -7 -6 -6 -7 -6 -6 -6 -6 -6 -6 -6 -6 -6 -6 -5 -5 -5 -5 -5
-9 -9 -9 -9 -8 -8 -8 -8 -8 -7 -7 -7 -8 -8 -9 -9 -9 -9 -8 -8 -7 -7 -7 -7 -6 -6 -5 -5 -6 -6 -6 -6 -6 -6 -6 -5 -5 -5 -6 -5 -6 -5 -5 -5
-10 -10 -10 -10 -9 -9 -10 -10 -11 -9 -8 -8 -7 -8 -9 -9 -9 -8 -8 -8 -8 -7 -7 -7 -7 -6 -6 -6 -5 -6 -7 -6 -6 -6 -6 -5 -5 -5 -5 -5 -5 -5 -5 -5
-11 -11 -11 -12 -11 -11 -10 -10 -10 -9 -9 -9 -8 -9 -9 -9 -9 -9 -8 -8 -8 -8 -8 -7 -7 -7 -7 -7 -7 -6 -6 -6 -6 -6 -6 -5 -5 -5 -5 -5 -5 -5 -5 -5
-14 -12 -13 -13 -13 -13 -12 -11 -9 -9 -10 -9 -9 -9 -9 -10 -9 -9 -8 -7 -8 -8 -9 -8 -7 -6 -6 -6 -6 -6 -6 -6 -6 -6 -6 -6 -5 -5 -5 -5 -5 -5 -5 -5
-13 -14 -14 -14 -14 -14 -13 -12 -11 -10 -10 -10 -10 -10 -10 -11 -10 -10 -8 -8 -8 -8 -9 -9 -7 -6 -5 -6 -6 -7 -7 -6 -6 -6 -6 -6 -5 -5 -5 -5 -5 -5 -5 -5
-14 -14 -14 -14 -15 -15 -14 -14 -12 -11 -11 -9 -11 -13 -10 -11 -11 -9 -9 -8 -8 -9 -9 -7 -8 -8 -7 -6 -5 -7 -7 -7 -7 -6 -6 -6 -6 -6 -6 -6 -5 -5 -5 -5
-15 -15 -15 -14 -15 -15 -15 -15 -14 -13 -12 -11 -11 -13 -11 -10 -10 -9 -9 -8 -8 -8 -8 -8 -9 -6 -7 -6 -4 -6 -7 -7 -7 -7 -6 -6 -6 -6 -6 -6 -5 -5 -5 -5
-15 -16 -16 -16 -15 -15 -15 -16 -15 -14 -14 -13 -12 -13 -10 -11 -10 -10 -10 -9 -8 -9 -9 -8 -7 -6 -7 -7 -7 -5 -6 -6 -6 -7 -7 -7 -6 -6 -6 -6 -6 -6 -5 -5
-16 -16 -16 -16 -16 -16 -15 -15 -16 -16 -15 -14 -13 -13 -11 -11 -11 -10 -10 -10 -9 -9 -10 -9 -8 -7 -6 -7 -5 -5 -6 -7 -7 -7 -9 -8 -7 -6 -6 -6 -6 -6 -6 -6
-16 -16 -17 -17 -18 -17 -15 -15 -16 -16 -16 -16 -15 -14 -12 -10 -12 -11 -11 -10 -10 -9 -10 -10 -8 -8 -7 -6 -7 -7 -6 -6 -6 -6 -8 -8 -7 -7 -6 -6 -6 -6 -6 -6
-18 -18 -18 -18 -19 -19 -19 -19 -18 -16 -16 -16 -16 -15 -14 -11 -12 -12 -11 -11 -10 -10 -10 -10 -8 -8 -8 -8 -6 -6 -6 -6 -5 -6 -7 -7 -7 -7 -6 -6 -6 -6 -6 -6
-18 -19 -19 -19 -19 -19 -20 -20 -20 -19 -16 -16 -16 -15 -14 -12 -12 -12 -12 -11 -11 -10 -10 -10 -9 -7 -7 -8 -8 -8 -7 -7 -6 -7 -7 -7 -8 -7 -6 -6 -6 -6 -6 -6
-18 -18 -19 -19 -19 -19 -20 -21 -21 -21 -17 -17 -16 -16 -15 -13 -13 -12 -12 -12 -11 -11 -10 -10 -10 -8 -7 -8 -9 -8 -7 -8 -8 -8 -8 -8 -8 -7 -7 -7 -7 -7 -7 -6
-19 -19 -19 -19 -20 -20 -20 -20 -20 -20 -19 -18 -17 -16 -16 -14 -13 -13 -13 -12 -12 -11 -11 -10 -10 -10 -8 -9 -10 -9 -7 -7 -8 -7 -8 -9 -8 -7 -7 -7 -7 -7 -7 -6
-19 -19 -19 -19 -20 -20 -19 -20 -20 -20 -19 -19 -18 -17 -15 -14 -13 -13 -13 -12 -12 -13 -11 -11 -11 -11 -10 -10 -9 -8 -7 -7 -8 -6 -7 -9 -8 -8 -8 -7 -7 -6 -7 -7
-19 -19 -19 -19 -19 -19 -19 -19 -19 -19 -19 -19 -19 -17 -16 -15 -14 -13 -13 -13 -11 -12 -12 -11 -10 -11 -10 -10 -10 -9 -7 -8 -9 -9 -9 -8 -7 -8 -8 -8 -7 -7 -7 -7
-19 -19 -20 -20 -20 -20 -19 -19 -18 -18 -18 -18 -18 -18 -17 -16 -15 -15 -13 -12 -12 -12 -12 -11 -11 -10 -11 -11 -11 -9 -9 -7 -8 -9 -8 -8 -8 -7 -8 -8 -8 -8 -8 -7
-18 -18 -19 -19 -19 -19 -20 -19 -19 -18 -17 -17 -17 -17 -17 -17 -16 -15 -14 -12 -12 -12 -12 -12 -11 -11 -10 -11 -10 -10 -10 -8 -9 -8 -9 -7 -8 -8 -8 -8 -9 -8 -8 -8

GFSCGP_500_temp_063.txt.gz
Temp
-7 -7 -7 -7 -7 -7 -7 -7 -8 -8 -7 -6 -5 -6 -6 -5 -7 -6 -6 -6 -5 -6 -5 -6 -6 -5 -5 -6 -6 -6 -5 -6 -6 -7 -7 -7 -7 -7 -7 -6 -6 -6 -6 -6
-7 -7 -7 -7 -7 -7 -7 -7 -7 -8 -7 -7 -6 -6 -6 -6 -6 -6 -6 -6 -6 -5 -5 -6 -6 -6 -5 -5 -6 -6 -5 -6 -6 -7 -7 -7 -7 -7 -7 -6 -6 -6 -6 -6
-7 -8 -8 -8 -7 -7 -7 -8 -8 -9 -8 -7 -6 -6 -6 -6 -5 -6 -6 -6 -5 -4 -5 -6 -6 -6 -6 -5 -5 -6 -5 -6 -6 -6 -7 -7 -8 -7 -6 -7 -7 -6 -6 -6
-8 -8 -8 -8 -8 -7 -7 -9 -9 -9 -8 -8 -7 -6 -6 -6 -6 -6 -6 -6 -5 -4 -5 -6 -6 -6 -6 -5 -5 -5 -5 -6 -6 -6 -7 -7 -7 -7 -6 -6 -6 -6 -6 -6
-8 -8 -8 -8 -8 -8 -9 -8 -9 -10 -9 -8 -8 -6 -6 -6 -6 -6 -6 -6 -6 -4 -4 -6 -7 -6 -5 -5 -5 -5 -5 -6 -7 -6 -7 -7 -7 -7 -6 -6 -6 -6 -6 -6
-8 -8 -8 -8 -8 -8 -9 -8 -8 -9 -9 -8 -8 -7 -7 -6 -6 -7 -7 -7 -6 -6 -6 -6 -7 -6 -6 -6 -5 -5 -5 -6 -6 -7 -6 -6 -7 -7 -7 -6 -6 -6 -6 -6
-9 -9 -8 -8 -9 -8 -8 -9 -9 -8 -8 -8 -9 -9 -8 -8 -7 -7 -7 -6 -6 -6 -6 -5 -6 -6 -6 -6 -6 -5 -5 -6 -6 -7 -6 -6 -6 -7 -7 -6 -6 -6 -6 -6
-9 -9 -9 -9 -8 -9 -9 -9 -8 -8 -8 -8 -9 -9 -9 -8 -8 -7 -8 -7 -6 -7 -5 -6 -6 -6 -6 -6 -6 -6 -5 -6 -6 -6 -6 -6 -6 -6 -7 -6 -6 -6 -6 -6
-10 -10 -9 -9 -9 -9 -9 -9 -9 -9 -9 -9 -9 -10 -9 -9 -8 -8 -8 -7 -7 -7 -6 -6 -6 -6 -6 -6 -7 -7 -6 -6 -6 -6 -6 -6 -6 -6 -6 -6 -6 -7 -6 -6
-10 -11 -10 -10 -10 -10 -10 -10 -9 -9 -9 -8 -8 -9 -10 -9 -9 -8 -8 -7 -7 -8 -8 -7 -6 -7 -7 -7 -7 -7 -6 -6 -6 -6 -6 -6 -6 -6 -6 -6 -6 -6 -6 -6
-11 -11 -12 -12 -11 -11 -10 -10 -10 -9 -9 -9 -9 -9 -9 -9 -9 -9 -8 -7 -7 -7 -9 -8 -7 -7 -7 -7 -7 -7 -6 -6 -6 -6 -6 -6 -6 -6 -5 -5 -5 -6 -6 -6
-13 -13 -13 -13 -13 -12 -12 -11 -11 -10 -10 -10 -10 -9 -9 -10 -9 -9 -8 -8 -7 -8 -8 -8 -7 -7 -8 -7 -7 -7 -7 -7 -6 -6 -6 -6 -6 -6 -6 -5 -5 -5 -5 -5
-15 -14 -14 -15 -14 -13 -12 -12 -12 -12 -12 -11 -10 -9 -9 -9 -10 -9 -9 -8 -8 -7 -7 -7 -7 -7 -7 -7 -7 -6 -6 -7 -6 -7 -6 -7 -6 -6 -6 -6 -6 -5 -5 -5
-15 -14 -14 -15 -15 -15 -14 -14 -13 -13 -13 -12 -11 -9 -9 -8 -9 -10 -9 -8 -8 -8 -8 -7 -6 -7 -7 -7 -6 -6 -6 -6 -6 -6 -6 -6 -6 -6 -6 -6 -6 -6 -5 -5
-15 -14 -14 -14 -15 -15 -15 -15 -14 -14 -14 -13 -12 -10 -10 -9 -8 -9 -10 -9 -8 -8 -9 -7 -6 -7 -7 -6 -6 -6 -6 -6 -6 -6 -5 -6 -6 -6 -6 -6 -6 -6 -6 -6
-14 -14 -15 -15 -14 -15 -15 -15 -15 -15 -14 -14 -13 -12 -12 -11 -10 -9 -9 -10 -9 -8 -8 -7 -7 -6 -6 -6 -6 -5 -6 -6 -6 -6 -6 -6 -6 -6 -6 -6 -6 -6 -6 -6
-15 -15 -15 -15 -15 -15 -15 -15 -15 -15 -15 -14 -14 -13 -11 -12 -12 -11 -10 -10 -10 -9 -8 -8 -8 -7 -7 -7 -6 -6 -6 -8 -7 -7 -6 -7 -6 -6 -6 -6 -6 -6 -6 -6
-16 -16 -15 -15 -16 -15 -15 -15 -15 -16 -16 -15 -14 -14 -13 -13 -12 -12 -11 -10 -10 -9 -9 -8 -8 -8 -8 -8 -7 -8 -7 -8 -7 -7 -7 -6 -7 -6 -6 -6 -5 -6 -6 -6
-16 -16 -16 -15 -15 -16 -16 -16 -16 -16 -15 -16 -15 -15 -14 -14 -13 -12 -12 -11 -11 -10 -9 -8 -8 -8 -8 -8 -8 -8 -7 -8 -7 -7 -7 -6 -6 -7 -6 -6 -6 -6 -6 -5
-16 -16 -16 -16 -16 -16 -17 -17 -17 -17 -17 -16 -16 -16 -15 -14 -13 -13 -12 -13 -12 -11 -10 -9 -8 -8 -7 -7 -7 -8 -8 -7 -7 -7 -7 -6 -7 -7 -6 -6 -6 -6 -6 -5
-17 -17 -17 -17 -16 -16 -17 -17 -18 -18 -17 -17 -17 -16 -16 -15 -14 -14 -13 -13 -13 -12 -10 -9 -9 -9 -8 -8 -7 -8 -8 -8 -7 -7 -7 -7 -7 -7 -7 -7 -6 -6 -6 -5
-17 -17 -17 -17 -17 -17 -18 -18 -19 -19 -19 -19 -19 -18 -17 -16 -15 -14 -14 -13 -13 -12 -12 -10 -10 -10 -8 -8 -7 -8 -7 -8 -8 -8 -8 -7 -7 -7 -7 -7 -6 -6 -6 -5
-18 -18 -17 -17 -18 -18 -18 -18 -19 -19 -19 -20 -19 -20 -18 -16 -17 -15 -15 -14 -13 -12 -12 -11 -11 -11 -10 -9 -8 -8 -8 -8 -7 -9 -8 -8 -8 -8 -8 -8 -7 -7 -6 -6
-18 -18 -18 -18 -18 -18 -18 -19 -19 -19 -19 -19 -19 -19 -19 -17 -17 -16 -16 -15 -13 -13 -12 -12 -11 -11 -11 -9 -8 -8 -8 -8 -8 -7 -8 -9 -8 -8 -8 -9 -9 -8 -7 -7
-18 -18 -18 -18 -18 -18 -19 -19 -19 -19 -19 -19 -19 -19 -19 -18 -18 -17 -16 -16 -15 -13 -13 -13 -11 -10 -10 -11 -10 -9 -8 -8 -8 -8 -7 -7 -8 -8 -9 -9 -8 -8 -8 -8
-19 -19 -19 -18 -19 -18 -19 -19 -19 -19 -20 -19 -19 -18 -17 -18 -18 -18 -17 -16 -16 -14 -13 -13 -13 -11 -10 -10 -10 -10 -9 -9 -8 -8 -9 -8 -8 -8 -8 -8 -9 -9 -8 -8

GFSCGP_500_temp_066.txt.gz
Temp
-8 -7 -7 -8 -7 -7 -7 -7 -7 -7 -7 -7 -7 -6 -6 -4 -5 -6 -6 -6 -6 -5 -7 -6 -6 -6 -6 -5 -5 -5 -6 -6 -6 -6 -7 -7 -6 -6 -6 -7 -7 -7 -7 -7
-8 -8 -8 -8 -8 -8 -8 -8 -8 -7 -7 -7 -7 -6 -6 -5 -5 -4 -6 -7 -6 -5 -6 -7 -6 -6 -6 -6 -5 -5 -6 -6 -6 -6 -6 -7 -7 -6 -7 -7 -7 -7 -6 -6
-8 -8 -8 -8 -8 -8 -8 -8 -8 -8 -7 -7 -7 -7 -6 -5 -6 -6 -5 -6 -5 -5 -6 -7 -7 -6 -6 -5 -5 -5 -5 -5 -6 -6 -7 -7 -7 -7 -7 -7 -6 -7 -6 -6
-9 -8 -8 -8 -8 -8 -8 -8 -9 -9 -7 -7 -7 -7 -6 -6 -6 -6 -5 -5 -6 -6 -6 -6 -6 -6 -6 -6 -6 -5 -5 -5 -6 -6 -7 -6 -6 -7 -7 -7 -6 -7 -6 -6
-8 -9 -8 -8 -8 -9 -9 -9 -8 -9 -8 -7 -7 -7 -7 -6 -6 -6 -6 -6 -5 -6 -5 -5 -6 -6 -6 -6 -6 -6 -5 -6 -6 -6 -6 -6 -6 -7 -7 -7 -6 -6 -6 -6
-9 -9 -9 -9 -9 -9 -10 -9 -9 -8 -9 -8 -7 -7 -7 -7 -7 -7 -7 -6 -6 -7 -7 -7 -6 -5 -5 -5 -6 -6 -5 -6 -6 -6 -6 -6 -6 -6 -7 -7 -6 -6 -6 -6
-10 -9 -9 -9 -9 -9 -9 -9 -9 -9 -9 -9 -9 -8 -8 -7 -7 -7 -7 -6 -6 -7 -7 -8 -6 -6 -6 -6 -6 -6 -5 -6 -6 -6 -6 -6 -6 -6 -6 -6 -6 -6 -6 -6
-10 -10 -10 -9 -9 -9 -9 -9 -9 -9 -9 -9 -10 -9 -8 -8 -7 -7 -7 -6 -6 -6 -6 -7 -6 -6 -6 -6 -6 -6 -6 -6 -6 -6 -6 -6 -6 -6 -6 -6 -6 -6 -6 -6
-11 -11 -10 -10 -9 -9 -9 -9 -10 -9 -10 -10 -10 -10 -8 -8 -8 -8 -8 -7 -7 -8 -6 -6 -6 -6 -7 -6 -6 -6 -6 -6 -6 -7 -6 -6 -6 -6 -7 -6 -6 -6 -6 -6
-11 -11 -11 -11 -10 -10 -10 -10 -10 -10 -10 -9 -9 -9 -9 -8 -8 -8 -8 -7 -7 -8 -7 -7 -6 -6 -7 -7 -7 -7 -6 -6 -6 -7 -7 -6 -7 -6 -6 -6 -6 -6 -6 -6
-12 -12 -12 -11 -11 -11 -11 -10 -11 -11 -10 -10 -10 -9 -9 -8 -8 -8 -8 -8 -7 -8 -8 -8 -7 -7 -7 -7 -7 -7 -7 -6 -6 -7 -7 -6 -6 -6 -6 -6 -6 -6 -6 -6
-14 -14 -13 -13 -12 -12 -11 -11 -11 -11 -10 -10 -10 -10 -9 -9 -8 -8 -8 -8 -8 -8 -8 -8 -7 -8 -6 -6 -7 -7 -7 -6 -6 -6 -7 -7 -6 -6 -6 -6 -6 -6 -6 -6
-15 -15 -15 -14 -13 -12 -12 -12 -12 -11 -11 -10 -10 -9 -9 -9 -9 -8 -8 -8 -8 -8 -8 -9 -8 -8 -7 -6 -6 -6 -7 -7 -6 -6 -6 -6 -6 -6 -6 -6 -6 -6 -6 -6
-16 -16 -15 -14 -14 -13 -13 -12 -12 -12 -11 -10 -10 -9 -9 -9 -9 -9 -8 -7 -8 -8 -8 -8 -8 -7 -7 -7 -7 -7 -7 -7 -6 -6 -6 -5 -5 -6 -6 -6 -6 -6 -6 -6
-15 -15 -15 -14 -14 -14 -13 -13 -13 -12 -12 -11 -11 -11 -10 -9 -9 -9 -9 -8 -8 -8 -8 -8 -7 -8 -7 -7 -7 -7 -8 -7 -7 -6 -6 -6 -5 -5 -5 -5 -5 -5 -5 -5
-15 -14 -14 -14 -14 -14 -14 -14 -14 -14 -13 -12 -11 -11 -10 -10 -9 -9 -10 -10 -9 -8 -9 -8 -8 -7 -8 -7 -7 -7 -8 -8 -7 -7 -6 -6 -6 -5 -5 -5 -5 -5 -5 -5
-15 -15 -15 -15 -15 -15 -15 -15 -15 -14 -14 -14 -13 -13 -12 -12 -10 -10 -10 -10 -10 -9 -9 -9 -8 -7 -7 -8 -7 -7 -7 -8 -8 -7 -7 -6 -6 -6 -6 -5 -5 -5 -5 -5
-15 -15 -15 -15 -15 -15 -14 -15 -15 -15 -15 -15 -14 -14 -13 -13 -12 -11 -10 -10 -10 -10 -9 -9 -9 -8 -8 -7 -8 -8 -8 -8 -8 -7 -7 -7 -7 -6 -6 -5 -5 -5 -5 -5
-15 -15 -15 -15 -16 -15 -15 -15 -15 -15 -15 -15 -15 -15 -14 -14 -13 -13 -12 -11 -11 -10 -10 -9 -9 -9 -9 -8 -8 -8 -7 -7 -7 -8 -7 -7 -7 -7 -6 -6 -5 -6 -5 -5
-16 -16 -16 -16 -16 -16 -16 -16 -16 -15 -15 -15 -15 -15 -15 -15 -14 -14 -13 -13 -12 -11 -10 -10 -10 -10 -9 -9 -8 -8 -8 -8 -7 -8 -7 -7 -7 -8 -7 -7 -6 -6 -6 -6
-16 -16 -16 -16 -16 -17 -17 -16 -16 -15 -15 -16 -16 -15 -15 -15 -14 -14 -14 -13 -13 -12 -12 -11 -10 -10 -10 -9 -9 -8 -9 -9 -8 -8 -7 -8 -8 -8 -8 -7 -7 -7 -6 -6
-16 -16 -16 -16 -16 -17 -17 -16 -16 -16 -15 -16 -16 -16 -16 -15 -15 -14 -15 -14 -14 -13 -12 -12 -11 -10 -10 -10 -9 -8 -9 -9 -8 -8 -8 -8 -8 -8 -8 -8 -8 -7 -7 -6
-17 -17 -17 -17 -17 -17 -17 -17 -17 -17 -17 -17 -17 -17 -16 -16 -16 -15 -14 -15 -14 -13 -13 -13 -12 -11 -11 -10 -10 -9 -9 -8 -8 -8 -8 -8 -8 -8 -8 -8 -8 -7 -7 -7
-18 -18 -18 -17 -18 -18 -18 -18 -18 -18 -18 -18 -18 -17 -17 -17 -17 -17 -17 -15 -15 -13 -13 -13 -13 -12 -11 -12 -10 -10 -10 -9 -8 -8 -8 -8 -8 -8 -8 -8 -9 -8 -8 -8
-18 -18 -18 -18 -18 -18 -18 -18 -18 -18 -18 -18 -18 -18 -18 -18 -17 -17 -17 -17 -16 -15 -14 -13 -13 -13 -12 -12 -11 -11 -10 -9 -9 -8 -8 -8 -8 -8 -9 -9 -8 -8 -8 -8
-18 -18 -18 -18 -18 -19 -19 -18 -18 -18 -19 -18 -18 -19 -19 -18 -18 -17 -17 -17 -18 -16 -15 -14 -13 -13 -12 -12 -12 -11 -11 -10 -9 -8 -8 -8 -8 -9 -9 -8 -8 -9 -9 -9

GFSCGP_500_temp_069.txt.gz
Temp
-7 -7 -7 -8 -7 -7 -7 -7 -7 -7 -7 -8 -7 -7 -7 -6 -5 -5 -5 -5 -6 -6 -5 -5 -6 -6 -5 -5 -5 -6 -6 -6 -6 -6 -6 -6 -6 -6 -5 -5 -6 -6 -6 -6
-8 -8 -8 -8 -8 -8 -8 -7 -7 -7 -7 -7 -8 -8 -8 -7 -6 -5 -5 -5 -6 -6 -6 -5 -6 -6 -6 -6 -6 -6 -6 -6 -5 -6 -6 -6 -7 -6 -5 -6 -6 -6 -6 -6
-8 -9 -8 -8 -8 -8 -8 -8 -7 -7 -7 -7 -7 -8 -8 -7 -7 -6 -6 -6 -5 -5 -5 -5 -6 -6 -6 -6 -6 -6 -6 -6 -6 -6 -6 -6 -7 -7 -6 -6 -7 -6 -6 -6
-9 -9 -9 -8 -8 -8 -9 -8 -8 -7 -7 -7 -7 -8 -8 -7 -7 -6 -7 -7 -7 -6 -5 -5 -5 -6 -6 -6 -6 -5 -5 -5 -6 -6 -6 -6 -6 -6 -6 -6 -7 -7 -7 -6
-9 -9 -9 -8 -9 -9 -9 -9 -8 -8 -7 -6 -7 -8 -8 -8 -8 -8 -8 -7 -6 -6 -6 -5 -6 -6 -6 -5 -5 -6 -5 -5 -6 -6 -6 -6 -6 -7 -6 -6 -6 -6 -6 -6
-10 -10 -9 -9 -9 -9 -9 -9 -9 -8 -8 -7 -7 -7 -8 -8 -8 -8 -7 -7 -6 -6 -6 -6 -5 -5 -6 -5 -5 -5 -5 -6 -6 -6 -6 -6 -6 -6 -6 -6 -6 -6 -6 -6
-10 -10 -10 -9 -9 -9 -9 -9 -9 -9 -8 -7 -7 -8 -8 -8 -8 -8 -7 -7 -6 -6 -6 -6 -7 -7 -6 -6 -5 -5 -6 -6 -6 -6 -6 -6 -7 -7 -6 -6 -6 -6 -6 -6
-10 -10 -10 -9 -9 -9 -9 -9 -9 -9 -8 -8 -8 -8 -8 -8 -8 -8 -8 -8 -7 -6 -6 -6 -6 -7 -7 -6 -6 -6 -6 -6 -6 -6 -6 -6 -7 -7 -7 -7 -6 -6 -6 -6
-11 -11 -10 -10 -10 -10 -9 -9 -9 -9 -9 -9 -8 -8 -8 -8 -8 -8 -9 -8 -7 -8 -8 -7 -6 -6 -7 -7 -6 -6 -7 -7 -6 -7 -7 -7 -7 -7 -7 -7 -7 -7 -6 -6
-12 -12 -11 -11 -10 -10 -10 -10 -10 -9 -9 -9 -9 -9 -8 -8 -9 -8 -9 -8 -7 -8 -8 -8 -7 -6 -7 -7 -7 -6 -6 -7 -7 -6 -7 -7 -7 -6 -7 -7 -7 -7 -6 -7
-14 -13 -12 -11 -11 -11 -10 -10 -10 -10 -9 -10 -9 -9 -8 -8 -8 -9 -8 -8 -8 -8 -8 -8 -8 -7 -6 -6 -7 -7 -6 -7 -7 -7 -6 -6 -6 -6 -6 -7 -7 -7 -6 -6
-16 -15 -13 -12 -12 -11 -11 -10 -10 -10 -10 -10 -9 -9 -9 -8 -8 -8 -9 -8 -8 -9 -9 -8 -8 -8 -7 -7 -7 -6 -6 -6 -6 -6 -6 -6 -6 -6 -6 -6 -6 -6 -6 -6
-17 -16 -15 -14 -13 -12 -12 -11 -11 -10 -10 -10 -10 -9 -9 -9 -8 -8 -9 -9 -8 -9 -9 -9 -8 -8 -8 -7 -6 -6 -7 -6 -6 -6 -6 -6 -6 -6 -6 -6 -6 -6 -6 -6
-15 -15 -15 -14 -14 -13 -12 -12 -11 -11 -10 -10 -10 -9 -9 -9 -9 -8 -8 -8 -9 -8 -9 -9 -9 -8 -8 -7 -9 -7 -7 -7 -7 -7 -6 -6 -5 -5 -6 -6 -6 -6 -6 -5
-16 -15 -15 -14 -14 -13 -13 -12 -12 -12 -11 -11 -10 -10 -10 -9 -10 -9 -9 -8 -8 -8 -8 -8 -9 -9 -9 -8 -8 -8 -7 -6 -6 -7 -7 -7 -7 -6 -6 -5 -6 -6 -5 -5
-16 -15 -15 -15 -14 -14 -14 -14 -13 -12 -12 -11 -11 -11 -10 -10 -10 -10 -9 -9 -8 -8 -8 -8 -8 -8 -9 -9 -8 -8 -8 -8 -7 -7 -7 -7 -7 -6 -6 -6 -6 -5 -5 -5
-15 -15 -15 -15 -15 -15 -14 -14 -14 -13 -13 -13 -12 -12 -12 -11 -11 -10 -10 -10 -9 -9 -8 -8 -8 -8 -8 -8 -8 -8 -8 -8 -8 -8 -8 -7 -7 -7 -6 -6 -6 -5 -5 -5
-15 -15 -15 -15 -15 -15 -14 -15 -14 -14 -14 -14 -14 -13 -12 -12 -12 -12 -11 -10 -10 -9 -9 -9 -9 -9 -8 -8 -8 -8 -8 -8 -7 -7 -8 -8 -7 -7 -7 -7 -6 -6 -5 -5
-16 -16 -16 -15 -15 -15 -15 -15 -15 -15 -14 -14 -14 -14 -14 -14 -14 -13 -13 -12 -11 -11 -10 -9 -9 -9 -9 -8 -9 -8 -8 -8 -8 -8 -7 -8 -7 -7 -7 -7 -7 -6 -6 -5
-16 -16 -16 -15 -15 -15 -15 -15 -15 -15 -15 -15 -15 -14 -14 -14 -14 -14 -14 -13 -12 -11 -11 -10 -10 -9 -10 -9 -9 -9 -9 -8 -9 -8 -7 -8 -7 -7 -8 -7 -7 -7 -6 -6
-16 -16 -16 -15 -15 -15 -15 -15 -15 -15 -14 -15 -15 -15 -15 -15 -14 -14 -13 -13 -13 -12 -11 -11 -11 -10 -10 -10 -9 -9 -9 -9 -9 -9 -9 -8 -8 -8 -7 -8 -7 -7 -7 -6
-16 -16 -16 -16 -16 -16 -16 -16 -15 -15 -15 -15 -15 -14 -14 -14 -14 -14 -15 -14 -13 -13 -12 -12 -11 -11 -10 -10 -10 -10 -9 -9 -9 -9 -9 -9 -9 -8 -8 -8 -8 -8 -7 -7
-17 -17 -17 -17 -17 -17 -16 -16 -16 -16 -15 -15 -15 -15 -15 -15 -15 -15 -15 -15 -15 -14 -13 -12 -12 -11 -11 -10 -10 -10 -10 -10 -9 -9 -9 -9 -9 -9 -8 -9 -8 -8 -7 -7
-18 -18 -18 -17 -18 -17 -17 -17 -17 -17 -17 -16 -16 -16 -16 -15 -15 -15 -15 -15 -15 -15 -14 -13 -12 -12 -12 -12 -11 -10 -10 -10 -10 -9 -9 -9 -9 -9 -9 -9 -9 -8 -8 -8
-18 -18 -18 -18 -18 -18 -18 -18 -18 -18 -18 -17 -18 -17 -17 -17 -16 -16 -16 -15 -15 -15 -15 -15 -13 -12 -12 -12 -12 -11 -10 -10 -10 -10 -9 -9 -9 -9 -9 -9 -9 -9 -9 -8
-19 -19 -19 -18 -18 -18 -18 -18 -18 -18 -18 -18 -18 -17 -17 -17 -17 -16 -16 -16 -15 -15 -15 -15 -15 -14 -12 -12 -12 -12 -12 -11 -11 -10 -10 -9 -9 -9 -9 -9 -9 -9 -9 -9

GFSCGP_500_temp_072.txt.gz
Temp
-8 -7 -7 -7 -7 -6 -7 -7 -7 -7 -7 -8 -7 -7 -6 -6 -6 -6 -5 -5 -6 -5 -5 -5 -6 -6 -6 -6 -5 -6 -6 -6 -6 -6 -6 -6 -6 -6 -6 -5 -5 -6 -6 -7
-8 -8 -8 -7 -7 -7 -7 -7 -7 -7 -7 -8 -7 -7 -7 -6 -6 -7 -6 -5 -6 -5 -6 -6 -6 -6 -6 -5 -5 -6 -6 -6 -6 -6 -6 -6 -6 -6 -6 -5 -5 -5 -6 -6
-9 -9 -8 -8 -7 -7 -7 -7 -7 -8 -7 -8 -8 -7 -8 -7 -7 -7 -6 -6 -6 -5 -5 -5 -6 -6 -6 -6 -6 -6 -6 -6 -6 -6 -7 -6 -6 -6 -5 -5 -5 -5 -5 -6
-9 -9 -9 -8 -8 -7 -8 -8 -7 -7 -7 -8 -8 -9 -8 -8 -8 -7 -7 -7 -6 -6 -6 -5 -6 -6 -6 -6 -5 -5 -6 -6 -6 -6 -7 -6 -6 -6 -6 -6 -5 -5 -5 -6
-9 -9 -9 -8 -8 -8 -9 -8 -7 -7 -7 -7 -8 -8 -8 -8 -8 -7 -7 -7 -6 -6 -6 -6 -6 -6 -6 -6 -6 -6 -6 -6 -6 -6 -6 -6 -6 -6 -6 -6 -5 -5 -5 -6
-10 -9 -9 -9 -9 -9 -8 -8 -8 -7 -8 -7 -8 -8 -9 -8 -8 -7 -7 -7 -7 -7 -6 -6 -5 -6 -6 -6 -6 -6 -5 -6 -6 -6 -6 -6 -6 -6 -6 -6 -6 -5 -5 -6
-10 -10 -10 -9 -9 -9 -8 -8 -8 -8 -8 -8 -9 -8 -9 -8 -8 -8 -8 -8 -8 -7 -6 -6 -5 -5 -6 -6 -6 -6 -6 -5 -6 -6 -6 -6 -7 -6 -6 -6 -6 -6 -5 -6
-11 -10 -10 -10 -10 -9 -9 -9 -10 -10 -9 -10 -8 -8 -8 -7 -8 -8 -8 -8 -8 -8 -7 -6 -6 -6 -7 -6 -6 -7 -6 -5 -6 -6 -6 -6 -7 -6 -6 -6 -6 -6 -6 -6
-12 -12 -10 -10 -9 -9 -9 -9 -11 -11 -11 -10 -8 -7 -7 -7 -8 -8 -8 -8 -9 -8 -8 -7 -6 -6 -6 -6 -7 -7 -7 -6 -6 -6 -6 -6 -7 -7 -6 -6 -6 -6 -6 -6
-13 -12 -11 -10 -10 -10 -9 -10 -10 -9 -11 -10 -10 -8 -7 -8 -8 -8 -9 -9 -8 -9 -9 -9 -7 -7 -6 -7 -7 -6 -7 -7 -6 -6 -6 -6 -7 -7 -6 -6 -6 -6 -6 -6
-13 -13 -11 -11 -11 -11 -10 -10 -10 -12 -11 -10 -11 -10 -7 -7 -8 -9 -9 -9 -9 -8 -8 -7 -7 -8 -7 -7 -7 -7 -7 -6 -6 -6 -6 -6 -6 -7 -7 -6 -6 -6 -6 -6
-15 -13 -13 -12 -11 -11 -11 -10 -10 -11 -10 -10 -11 -10 -8 -8 -8 -9 -9 -9 -9 -9 -9 -7 -8 -8 -7 -7 -7 -6 -6 -6 -6 -6 -6 -6 -6 -6 -6 -7 -6 -6 -6 -6
-15 -14 -14 -13 -12 -12 -11 -10 -10 -10 -11 -13 -12 -10 -8 -9 -9 -9 -9 -9 -9 -9 -9 -9 -9 -7 -7 -7 -7 -7 -6 -6 -6 -6 -6 -6 -6 -6 -6 -6 -6 -6 -6 -6
-16 -15 -15 -16 -15 -13 -11 -11 -11 -11 -12 -13 -13 -10 -9 -9 -9 -9 -9 -9 -9 -9 -9 -9 -9 -8 -8 -7 -7 -7 -7 -7 -7 -6 -6 -6 -6 -6 -6 -6 -6 -6 -6 -5
-16 -16 -15 -15 -14 -13 -13 -12 -12 -11 -11 -12 -13 -11 -9 -9 -9 -9 -9 -9 -9 -9 -9 -9 -9 -9 -8 -8 -7 -7 -7 -7 -7 -7 -7 -7 -7 -7 -7 -6 -6 -6 -6 -6
-16 -16 -16 -15 -14 -14 -13 -12 -12 -12 -12 -12 -12 -10 -11 -10 -10 -10 -9 -9 -9 -9 -9 -9 -9 -9 -10 -9 -9 -8 -8 -8 -8 -8 -7 -7 -7 -7 -7 -7 -7 -7 -6 -6
-16 -15 -15 -15 -14 -14 -14 -14 -13 -13 -12 -12 -13 -11 -11 -11 -11 -10 -10 -10 -9 -9 -9 -9 -9 -9 -9 -9 -9 -9 -9 -8 -8 -8 -8 -8 -7 -7 -7 -7 -7 -7 -7 -6
-16 -15 -16 -15 -15 -15 -14 -13 -14 -13 -13 -13 -13 -12 -12 -12 -11 -11 -10 -10 -10 -9 -9 -9 -9 -9 -9 -9 -9 -9 -9 -8 -8 -8 -8 -8 -8 -7 -7 -7 -7 -7 -7 -6
-15 -15 -15 -15 -16 -15 -15 -14 -14 -14 -13 -13 -13 -13 -13 -13 -13 -12 -12 -11 -10 -10 -10 -9 -9 -9 -8 -8 -9 -9 -9 -9 -9 -9 -8 -8 -8 -9 -8 -7 -7 -7 -7 -7
-16 -16 -16 -15 -15 -15 -14 -15 -15 -15 -14 -14 -13 -13 -13 -13 -13 -12 -12 -12 -11 -10 -10 -10 -9 -9 -9 -8 -8 -8 -9 -10 -9 -9 -9 -9 -9 -9 -9 -8 -7 -7 -7 -7
-16 -16 -16 -16 -16 -15 -15 -15 -15 -15 -14 -14 -14 -14 -14 -14 -13 -12 -13 -13 -12 -11 -10 -10 -10 -10 -9 -9 -9 -9 -8 -9 -9 -9 -10 -9 -9 -9 -9 -7 -7 -8 -7 -7
-17 -17 -16 -16 -16 -15 -15 -15 -15 -15 -15 -15 -15 -15 -14 -14 -14 -14 -14 -13 -13 -12 -12 -11 -11 -10 -10 -9 -9 -9 -9 -8 -9 -9 -9 -10 -9 -8 -8 -8 -7 -8 -7 -7
-17 -17 -17 -17 -17 -16 -16 -15 -15 -15 -15 -15 -15 -15 -15 -15 -15 -14 -14 -14 -14 -14 -13 -13 -12 -11 -11 -10 -10 -9 -9 -9 -8 -9 -9 -9 -10 -9 -9 -9 -8 -8 -7 -7
-18 -17 -17 -17 -17 -17 -17 -17 -16 -16 -16 -16 -16 -16 -16 -15 -15 -15 -15 -14 -14 -14 -14 -13 -13 -12 -12 -11 -10 -10 -10 -9 -9 -8 -9 -9 -9 -9 -10 -9 -9 -9 -8 -8
-18 -18 -18 -18 -18 -18 -18 -17 -17 -17 -17 -17 -17 -17 -17 -16 -16 -16 -15 -15 -15 -14 -14 -14 -14 -13 -12 -12 -11 -10 -10 -10 -9 -9 -9 -9 -9 -9 -9 -9 -9 -9 -8 -7
-18 -18 -18 -18 -18 -18 -18 -18 -18 -17 -17 -17 -17 -17 -17 -17 -17 -17 -16 -16 -16 -15 -15 -14 -14 -13 -13 -13 -12 -11 -11 -10 -10 -10 -9 -9 -9 -9 -10 -9 -9 -9 -8 -8

GFSCGP_500_temp_078.txt.gz
Temp
-7 -7 -6 -7 -7 -7 -7 -7 -7 -7 -7 -8 -7 -5 -4 -7 -6 -6 -5 -4 -5 -5 -5 -6 -6 -6 -5 -5 -5 -5 -5 -5 -5 -5 -6 -5 -6 -6 -6 -6 -6 -5 -5 -6
-8 -7 -7 -7 -7 -7 -7 -9 -8 -7 -6 -7 -7 -6 -6 -6 -6 -6 -5 -4 -5 -5 -5 -6 -5 -6 -6 -5 -5 -5 -5 -5 -5 -5 -6 -5 -5 -6 -6 -6 -5 -5 -5 -5
-8 -8 -8 -7 -7 -8 -7 -8 -8 -8 -7 -6 -7 -7 -6 -5 -6 -6 -6 -5 -4 -5 -5 -5 -6 -5 -5 -5 -5 -5 -5 -5 -5 -6 -5 -5 -6 -6 -5 -6 -5 -5 -5 -5
-9 -8 -8 -8 -7 -8 -7 -7 -9 -8 -8 -8 -8 -8 -8 -6 -5 -5 -5 -5 -5 -5 -5 -5 -5 -4 -5 -5 -5 -5 -5 -5 -5 -5 -5 -6 -6 -5 -6 -6 -5 -5 -5 -5
-9 -9 -8 -8 -8 -8 -8 -8 -9 -7 -8 -8 -7 -8 -8 -7 -6 -6 -6 -6 -5 -5 -5 -5 -5 -5 -5 -5 -5 -5 -5 -5 -5 -5 -5 -6 -6 -6 -6 -5 -5 -5 -5 -5
-10 -9 -9 -8 -8 -8 -9 -10 -9 -9 -8 -8 -8 -8 -8 -7 -7 -6 -7 -6 -6 -5 -6 -6 -5 -5 -5 -5 -5 -5 -5 -5 -5 -5 -5 -5 -6 -6 -6 -6 -6 -5 -5 -5
-10 -10 -10 -9 -8 -8 -9 -10 -10 -9 -9 -9 -9 -8 -8 -8 -7 -7 -8 -7 -6 -5 -6 -6 -6 -6 -5 -5 -5 -6 -5 -5 -5 -5 -5 -5 -6 -6 -6 -6 -6 -6 -5 -5
-13 -11 -10 -9 -9 -9 -10 -10 -10 -10 -9 -9 -8 -8 -8 -8 -6 -6 -8 -7 -7 -6 -7 -6 -6 -6 -6 -5 -5 -6 -6 -5 -5 -5 -5 -5 -5 -5 -6 -5 -6 -6 -5 -5
-12 -12 -12 -10 -9 -9 -11 -11 -10 -9 -9 -8 -8 -8 -8 -8 -8 -8 -7 -6 -5 -5 -5 -5 -5 -6 -7 -6 -6 -6 -5 -5 -5 -5 -5 -5 -5 -5 -5 -6 -6 -6 -5 -5
-12 -11 -12 -11 -10 -10 -10 -11 -10 -10 -10 -8 -8 -8 -8 -7 -7 -8 -7 -6 -6 -6 -6 -7 -4 -5 -5 -6 -7 -5 -6 -5 -5 -5 -5 -5 -4 -5 -5 -5 -6 -6 -5 -5
-12 -12 -12 -13 -10 -10 -10 -10 -11 -10 -10 -9 -9 -9 -9 -8 -7 -7 -7 -7 -7 -6 -7 -6 -7 -5 -6 -6 -5 -5 -5 -5 -5 -5 -5 -5 -5 -4 -5 -5 -5 -5 -5 -5
-13 -12 -12 -13 -12 -11 -12 -11 -10 -10 -9 -9 -9 -9 -7 -6 -7 -8 -7 -7 -6 -7 -7 -6 -6 -6 -6 -6 -6 -5 -6 -6 -5 -5 -5 -5 -5 -5 -5 -5 -5 -6 -5 -5
-13 -13 -12 -13 -13 -11 -11 -10 -11 -11 -10 -9 -10 -9 -9 -10 -9 -9 -9 -7 -7 -7 -7 -7 -7 -6 -6 -6 -6 -7 -6 -6 -6 -5 -5 -6 -6 -5 -5 -5 -6 -6 -6 -6
-14 -13 -14 -13 -13 -13 -11 -11 -11 -10 -11 -11 -10 -10 -9 -10 -10 -9 -10 -9 -7 -8 -8 -8 -7 -7 -7 -6 -6 -6 -6 -6 -6 -6 -6 -6 -6 -6 -6 -6 -6 -6 -6 -6
-14 -14 -15 -14 -13 -13 -13 -12 -12 -11 -10 -12 -11 -10 -10 -11 -10 -9 -9 -9 -9 -8 -9 -8 -8 -7 -7 -7 -8 -7 -6 -6 -6 -7 -6 -5 -7 -7 -7 -6 -7 -7 -6 -6
-15 -15 -15 -13 -13 -13 -12 -13 -14 -12 -11 -13 -11 -12 -9 -9 -9 -10 -9 -9 -9 -9 -9 -9 -9 -8 -8 -8 -8 -8 -7 -7 -7 -7 -7 -6 -8 -8 -6 -6 -6 -7 -7 -7
-16 -16 -15 -14 -14 -14 -13 -12 -13 -12 -12 -14 -12 -11 -9 -10 -10 -10 -10 -9 -9 -9 -9 -9 -9 -9 -9 -8 -8 -7 -7 -7 -7 -7 -7 -7 -6 -6 -7 -6 -6 -6 -6 -6
-16 -16 -16 -16 -15 -15 -14 -14 -12 -12 -15 -15 -12 -11 -10 -10 -10 -10 -10 -9 -9 -10 -9 -9 -9 -9 -9 -9 -9 -8 -7 -7 -7 -7 -7 -7 -7 -7 -7 -7 -6 -7 -6 -6
-16 -16 -16 -16 -15 -16 -15 -14 -15 -15 -16 -14 -13 -12 -11 -10 -11 -10 -10 -10 -10 -10 -10 -9 -9 -9 -9 -9 -9 -9 -8 -8 -8 -7 -7 -8 -8 -8 -8 -8 -7 -7 -6 -6
-16 -15 -16 -16 -16 -16 -16 -14 -15 -15 -15 -14 -14 -14 -13 -12 -12 -11 -10 -10 -10 -10 -10 -10 -10 -9 -10 -9 -9 -10 -9 -9 -9 -8 -8 -8 -8 -7 -8 -8 -8 -7 -7 -7
-16 -16 -16 -16 -16 -17 -15 -15 -15 -16 -16 -15 -15 -14 -14 -14 -14 -11 -10 -12 -11 -11 -10 -10 -10 -10 -10 -10 -10 -10 -10 -9 -9 -9 -9 -8 -8 -8 -8 -8 -8 -8 -7 -7
-16 -16 -16 -16 -17 -18 -16 -16 -16 -15 -15 -15 -15 -15 -15 -15 -14 -13 -12 -12 -12 -12 -11 -11 -10 -10 -10 -10 -10 -9 -9 -9 -9 -9 -9 -9 -9 -8 -8 -8 -7 -7 -7 -7
-16 -16 -16 -17 -17 -16 -15 -15 -16 -16 -16 -15 -15 -15 -15 -15 -16 -14 -14 -13 -13 -12 -12 -12 -11 -11 -10 -10 -10 -10 -10 -9 -10 -9 -9 -9 -9 -9 -9 -8 -8 -7 -7 -7
-17 -17 -17 -17 -17 -17 -16 -16 -17 -16 -16 -16 -15 -15 -15 -15 -15 -14 -14 -13 -13 -13 -12 -12 -12 -12 -12 -11 -10 -10 -10 -10 -10 -10 -9 -9 -9 -9 -9 -9 -9 -8 -7 -7
-18 -18 -18 -18 -17 -17 -17 -17 -17 -16 -16 -16 -16 -16 -15 -15 -15 -14 -14 -14 -14 -14 -13 -13 -12 -12 -12 -12 -12 -11 -11 -10 -10 -10 -10 -10 -9 -9 -9 -8 -8 -8 -8 -8
-18 -18 -18 -18 -18 -18 -17 -17 -17 -17 -17 -17 -16 -16 -16 -16 -15 -15 -15 -15 -15 -15 -14 -14 -14 -13 -13 -12 -12 -12 -12 -12 -11 -11 -10 -10 -10 -10 -9 -9 -8 -8 -8 -9

GFSCGP_500_temp_081.txt.gz
Temp
-6 -7 -6 -7 -7 -7 -7 -7 -7 -7 -8 -7 -5 -6 -6 -5 -6 -5 -4 -5 -5 -5 -5 -5 -4 -5 -5 -5 -5 -5 -5 -5 -5 -5 -6 -5 -6 -6 -6 -6 -6 -6 -7 -6
-7 -7 -7 -7 -7 -7 -7 -8 -9 -8 -8 -6 -6 -6 -6 -5 -6 -5 -5 -5 -4 -5 -5 -5 -4 -5 -5 -5 -5 -5 -5 -5 -5 -5 -5 -6 -6 -6 -6 -6 -5 -6 -6 -6
-7 -8 -8 -7 -7 -7 -7 -7 -9 -9 -8 -8 -7 -6 -6 -5 -6 -5 -5 -5 -5 -4 -5 -5 -5 -5 -5 -5 -5 -5 -5 -5 -5 -5 -6 -5 -6 -6 -6 -6 -5 -6 -6 -6
-8 -8 -8 -8 -7 -7 -8 -7 -9 -9 -9 -8 -7 -7 -6 -6 -6 -6 -5 -5 -5 -5 -5 -5 -5 -5 -5 -5 -5 -5 -5 -5 -5 -5 -5 -6 -5 -5 -6 -5 -5 -6 -6 -6
-8 -8 -8 -8 -8 -8 -8 -9 -10 -9 -8 -8 -8 -8 -6 -6 -7 -6 -6 -6 -6 -5 -5 -5 -5 -5 -5 -5 -5 -5 -5 -5 -5 -5 -5 -5 -5 -5 -5 -6 -6 -6 -6 -6
-9 -9 -9 -8 -8 -8 -8 -9 -9 -8 -8 -8 -8 -9 -8 -7 -6 -7 -5 -6 -7 -6 -6 -6 -5 -5 -4 -5 -5 -5 -5 -5 -5 -5 -5 -5 -5 -5 -5 -6 -6 -6 -6 -6
-10 -9 -9 -9 -8 -9 -9 -9 -9 -9 -9 -8 -8 -8 -8 -7 -7 -8 -8 -7 -7 -6 -6 -6 -6 -6 -5 -5 -6 -5 -5 -5 -5 -6 -5 -5 -5 -5 -6 -6 -6 -6 -6 -6
-11 -10 -10 -10 -9 -8 -8 -9 -10 -10 -9 -8 -9 -9 -9 -8 -8 -9 -7 -8 -7 -6 -6 -6 -6 -6 -5 -6 -6 -6 -6 -5 -5 -6 -5 -5 -5 -6 -6 -6 -6 -6 -6 -6
-13 -11 -11 -10 -9 -9 -10 -9 -9 -10 -9 -9 -9 -8 -7 -7 -7 -6 -7 -6 -6 -6 -7 -6 -6 -6 -5 -5 -6 -6 -6 -6 -5 -6 -6 -5 -5 -6 -6 -6 -6 -6 -6 -5
-12 -11 -11 -11 -11 -10 -10 -10 -10 -9 -10 -9 -9 -8 -8 -8 -7 -7 -7 -6 -6 -7 -7 -7 -6 -6 -6 -5 -6 -7 -6 -6 -6 -6 -6 -6 -5 -5 -6 -6 -6 -6 -6 -6
-12 -12 -12 -12 -10 -10 -10 -11 -10 -9 -9 -9 -10 -8 -8 -8 -7 -7 -7 -6 -6 -6 -7 -7 -7 -6 -6 -6 -5 -6 -6 -6 -6 -6 -6 -6 -6 -6 -6 -6 -7 -6 -6 -6
-12 -12 -11 -12 -13 -11 -12 -12 -11 -10 -9 -10 -9 -9 -8 -8 -8 -7 -7 -7 -7 -7 -7 -7 -7 -7 -7 -6 -6 -6 -4 -6 -6 -6 -6 -6 -6 -6 -6 -6 -6 -7 -6 -6
-13 -12 -12 -12 -13 -12 -12 -12 -10 -10 -10 -10 -9 -9 -9 -10 -9 -9 -8 -8 -8 -8 -8 -7 -7 -7 -7 -6 -6 -7 -6 -6 -7 -7 -6 -7 -6 -6 -7 -6 -6 -6 -7 -6
-14 -13 -12 -12 -12 -12 -12 -12 -10 -10 -10 -11 -10 -9 -9 -10 -10 -9 -9 -8 -8 -8 -8 -8 -7 -7 -7 -7 -6 -6 -6 -6 -6 -6 -6 -6 -7 -7 -7 -7 -7 -7 -7 -7
-14 -14 -14 -12 -13 -12 -11 -12 -11 -11 -10 -11 -11 -10 -10 -10 -10 -9 -9 -9 -9 -8 -8 -8 -7 -8 -8 -8 -7 -7 -7 -7 -6 -6 -6 -7 -7 -7 -7 -7 -7 -7 -8 -7
-15 -15 -14 -14 -13 -13 -12 -11 -11 -12 -13 -12 -11 -9 -9 -10 -10 -10 -9 -9 -9 -9 -9 -8 -8 -8 -8 -8 -8 -7 -8 -8 -7 -7 -6 -6 -7 -7 -8 -6 -7 -7 -8 -8
-15 -15 -15 -14 -13 -13 -13 -13 -13 -13 -14 -12 -11 -9 -8 -10 -10 -10 -9 -10 -10 -10 -9 -9 -9 -9 -9 -9 -8 -8 -8 -7 -8 -7 -7 -7 -7 -7 -7 -7 -7 -8 -7 -8
-15 -14 -15 -15 -15 -14 -14 -13 -14 -14 -14 -12 -11 -11 -10 -9 -10 -10 -11 -10 -10 -10 -10 -10 -10 -10 -10 -9 -9 -8 -8 -7 -7 -7 -7 -7 -7 -7 -8 -7 -8 -8 -8 -7
-16 -16 -15 -15 -15 -15 -15 -14 -14 -15 -13 -13 -11 -11 -11 -10 -10 -10 -10 -10 -10 -10 -10 -10 -10 -10 -10 -10 -10 -10 -9 -9 -8 -8 -7 -9 -8 -7 -7 -7 -8 -7 -8 -7
-16 -15 -15 -16 -15 -15 -15 -14 -14 -15 -13 -14 -13 -12 -11 -11 -10 -10 -10 -10 -10 -10 -11 -10 -10 -10 -10 -10 -10 -10 -10 -9 -9 -9 -8 -8 -8 -8 -9 -9 -8 -7 -7 -7
-15 -15 -15 -16 -16 -16 -15 -15 -15 -15 -14 -13 -14 -14 -13 -12 -12 -11 -10 -11 -11 -11 -11 -10 -10 -10 -10 -10 -10 -10 -10 -10 -10 -10 -9 -9 -8 -7 -7 -8 -8 -8 -9 -8
-16 -16 -15 -16 -16 -16 -14 -14 -15 -15 -15 -15 -15 -14 -14 -13 -13 -12 -12 -11 -12 -11 -11 -11 -11 -11 -11 -11 -10 -10 -10 -10 -10 -10 -10 -10 -9 -9 -8 -8 -8 -8 -8 -8
-16 -15 -16 -16 -16 -16 -16 -16 -15 -15 -16 -16 -16 -16 -15 -15 -15 -14 -13 -13 -12 -12 -12 -11 -12 -11 -11 -11 -11 -10 -10 -10 -10 -10 -10 -10 -9 -9 -9 -8 -8 -8 -8 -8
-16 -16 -16 -17 -16 -17 -17 -16 -17 -16 -16 -16 -16 -16 -16 -16 -15 -15 -14 -14 -14 -14 -13 -13 -12 -12 -11 -11 -11 -11 -11 -11 -11 -10 -10 -10 -10 -9 -9 -9 -9 -9 -8 -8
-16 -16 -16 -17 -17 -17 -17 -17 -17 -18 -17 -16 -16 -16 -16 -16 -16 -15 -15 -14 -14 -14 -14 -13 -13 -13 -12 -12 -11 -11 -11 -11 -11 -11 -11 -10 -10 -10 -10 -9 -9 -9 -9 -9
-16 -16 -16 -17 -18 -18 -18 -18 -18 -18 -18 -17 -17 -16 -16 -16 -15 -15 -15 -14 -15 -14 -14 -14 -14 -13 -13 -13 -13 -12 -12 -12 -12 -12 -11 -11 -11 -11 -10 -10 -9 -9 -9 -9

GFSCGP_500_temp_084.txt.gz
Temp
-7 -7 -7 -7 -7 -7 -7 -7 -8 -7 -7 -7 -6 -6 -7 -6 -6 -5 -6 -5 -5 -4 -4 -5 -5 -6 -6 -6 -6 -5 -6 -5 -6 -6 -6 -6 -7 -7 -7 -7 -7 -7 -7 -7
-7 -7 -8 -8 -8 -8 -8 -8 -8 -9 -7 -8 -7 -7 -6 -6 -6 -5 -6 -5 -5 -5 -5 -5 -6 -6 -6 -6 -7 -6 -5 -5 -6 -6 -6 -6 -6 -6 -6 -7 -7 -7 -7 -7
-7 -8 -8 -8 -8 -8 -8 -8 -8 -8 -8 -8 -7 -7 -7 -6 -5 -6 -6 -6 -5 -5 -5 -5 -6 -7 -6 -6 -6 -6 -6 -6 -6 -6 -6 -6 -6 -6 -6 -7 -7 -7 -7 -7
-8 -8 -8 -8 -8 -8 -8 -9 -8 -9 -9 -9 -8 -7 -7 -6 -7 -6 -6 -6 -6 -6 -6 -6 -6 -6 -6 -6 -6 -6 -6 -6 -6 -6 -6 -6 -6 -6 -6 -7 -7 -6 -6 -7
-9 -8 -8 -8 -8 -8 -8 -9 -9 -9 -9 -9 -8 -8 -8 -7 -7 -6 -6 -6 -6 -6 -6 -7 -6 -7 -7 -6 -6 -6 -6 -6 -6 -6 -6 -7 -7 -7 -7 -6 -6 -6 -6 -7
-9 -10 -8 -9 -8 -8 -9 -10 -10 -10 -10 -8 -8 -8 -7 -7 -8 -7 -6 -7 -7 -6 -6 -6 -6 -6 -6 -6 -6 -6 -6 -6 -6 -6 -6 -7 -6 -6 -6 -6 -6 -7 -7 -7
-9 -9 -9 -9 -9 -8 -9 -10 -10 -9 -9 -8 -9 -8 -8 -8 -7 -7 -8 -6 -6 -6 -7 -5 -5 -6 -6 -7 -7 -6 -6 -6 -6 -6 -6 -7 -6 -7 -7 -6 -6 -6 -6 -7
-10 -10 -9 -9 -8 -9 -9 -10 -10 -10 -10 -9 -8 -8 -8 -7 -7 -7 -7 -7 -7 -7 -6 -6 -5 -6 -6 -6 -6 -6 -7 -6 -6 -6 -6 -7 -6 -6 -7 -7 -7 -7 -6 -7
-11 -10 -10 -9 -9 -10 -9 -9 -10 -10 -10 -9 -8 -8 -8 -7 -6 -7 -7 -7 -7 -8 -8 -7 -6 -6 -6 -6 -6 -6 -6 -6 -7 -6 -6 -6 -6 -7 -7 -7 -7 -7 -6 -7
-11 -11 -10 -10 -10 -10 -9 -10 -10 -10 -10 -9 -8 -8 -7 -8 -7 -7 -7 -7 -7 -7 -7 -7 -7 -7 -6 -6 -6 -7 -6 -6 -6 -6 -6 -6 -6 -6 -7 -7 -6 -7 -7 -6
-12 -11 -11 -11 -10 -10 -10 -10 -10 -10 -10 -9 -9 -9 -8 -9 -8 -7 -7 -7 -7 -7 -7 -7 -6 -6 -6 -6 -6 -6 -6 -6 -6 -6 -6 -5 -6 -6 -7 -7 -7 -7 -7 -6
-13 -12 -12 -11 -11 -11 -10 -11 -11 -10 -10 -10 -10 -9 -9 -9 -8 -8 -8 -8 -7 -7 -8 -8 -7 -7 -7 -6 -7 -6 -6 -6 -7 -6 -7 -7 -6 -6 -7 -7 -7 -7 -7 -7
-14 -13 -12 -13 -13 -12 -12 -12 -11 -11 -10 -10 -10 -9 -8 -8 -9 -8 -8 -8 -8 -8 -8 -8 -7 -7 -7 -8 -8 -7 -6 -6 -7 -6 -6 -7 -7 -7 -7 -7 -7 -7 -7 -7
-14 -13 -13 -12 -12 -12 -12 -12 -12 -11 -11 -10 -10 -9 -9 -9 -9 -9 -8 -8 -8 -8 -8 -8 -8 -7 -7 -7 -7 -7 -7 -6 -7 -6 -6 -7 -7 -7 -7 -7 -7 -7 -7 -6
-15 -14 -13 -12 -12 -12 -12 -13 -12 -11 -11 -10 -10 -9 -9 -9 -9 -9 -9 -8 -8 -9 -9 -8 -8 -8 -7 -7 -7 -7 -8 -7 -7 -6 -6 -6 -7 -7 -7 -7 -7 -7 -7 -7
-14 -14 -14 -13 -12 -12 -12 -12 -13 -12 -12 -10 -9 -9 -9 -9 -9 -9 -9 -8 -8 -8 -8 -9 -8 -8 -8 -8 -7 -7 -7 -7 -7 -7 -7 -7 -7 -7 -7 -7 -7 -7 -8 -8
-15 -15 -14 -13 -13 -13 -13 -13 -13 -13 -12 -11 -10 -9 -9 -9 -10 -10 -10 -9 -9 -9 -9 -9 -9 -9 -8 -8 -8 -8 -8 -8 -8 -8 -8 -7 -7 -7 -7 -7 -7 -7 -7 -8
-15 -15 -14 -14 -13 -15 -14 -13 -14 -13 -12 -11 -10 -10 -9 -8 -9 -10 -10 -10 -9 -10 -10 -10 -10 -10 -10 -9 -8 -8 -8 -8 -8 -9 -9 -9 -8 -8 -7 -7 -7 -7 -7 -7
-14 -14 -14 -14 -14 -15 -15 -14 -13 -13 -12 -11 -11 -11 -10 -10 -10 -10 -11 -10 -11 -10 -10 -10 -10 -10 -10 -10 -9 -9 -9 -9 -9 -9 -8 -7 -8 -8 -9 -8 -7 -8 -8 -8
-15 -15 -15 -14 -14 -14 -15 -15 -15 -14 -14 -12 -11 -11 -11 -10 -10 -11 -11 -11 -11 -11 -11 -10 -10 -11 -10 -10 -10 -10 -10 -9 -9 -9 -9 -9 -9 -9 -8 -8 -7 -8 -8 -8
-15 -15 -15 -15 -15 -14 -14 -15 -15 -14 -13 -14 -13 -12 -12 -12 -11 -11 -11 -12 -12 -11 -11 -11 -11 -11 -10 -10 -10 -10 -10 -10 -9 -10 -10 -9 -9 -9 -8 -8 -8 -11 -10 -8
-15 -15 -15 -15 -15 -14 -14 -15 -16 -15 -14 -14 -14 -14 -13 -13 -12 -13 -12 -13 -13 -13 -12 -11 -12 -12 -11 -11 -11 -11 -11 -11 -11 -10 -10 -10 -9 -9 -9 -9 -8 -9 -8 -9
-15 -15 -15 -15 -15 -15 -15 -15 -16 -16 -16 -15 -15 -14 -14 -14 -14 -13 -13 -13 -13 -13 -13 -14 -14 -13 -12 -12 -11 -11 -11 -11 -11 -11 -11 -11 -11 -10 -10 -9 -9 -8 -9 -8
-15 -15 -15 -15 -15 -15 -15 -15 -15 -16 -16 -16 -16 -16 -16 -15 -15 -14 -13 -13 -13 -13 -13 -13 -12 -12 -13 -12 -12 -12 -11 -11 -11 -11 -11 -11 -11 -11 -10 -10 -10 -9 -8 -9
-15 -15 -16 -16 -16 -16 -16 -16 -17 -17 -17 -17 -17 -17 -17 -16 -16 -15 -15 -15 -15 -15 -14 -14 -13 -13 -13 -13 -13 -13 -12 -12 -12 -12 -11 -11 -11 -11 -11 -11 -10 -10 -10 -9
-14 -15 -15 -15 -16 -16 -16 -16 -17 -17 -18 -18 -18 -17 -17 -17 -16 -16 -16 -16 -16 -15 -15 -15 -14 -14 -14 -14 -14 -14 -13 -13 -13 -13 -12 -12 -12 -11 -11 -11 -11 -10 -10 -10

GFSCGP_500_temp_087.txt.gz
Temp
-8 -7 -7 -7 -8 -7 -8 -7 -7 -5 -6 -6 -5 -7 -5 -6 -6 -6 -6 -5 -5 -6 -5 -6 -6 -6 -6 -6 -6 -6 -6 -6 -6 -7 -7 -7 -6 -7 -7 -7 -7 -7 -7 -7
-8 -8 -8 -8 -8 -8 -8 -8 -7 -7 -7 -6 -7 -6 -6 -6 -6 -6 -5 -5 -5 -5 -6 -6 -6 -6 -6 -6 -6 -6 -6 -6 -6 -7 -7 -7 -6 -7 -7 -7 -8 -7 -7 -7
-8 -9 -9 -8 -8 -9 -8 -9 -7 -7 -7 -6 -6 -6 -7 -7 -7 -6 -6 -6 -5 -5 -6 -6 -6 -6 -7 -6 -5 -6 -6 -6 -6 -6 -6 -6 -6 -7 -7 -7 -7 -7 -7 -7
-9 -9 -9 -8 -8 -9 -9 -9 -9 -8 -7 -7 -7 -7 -7 -7 -6 -6 -6 -6 -6 -5 -5 -6 -6 -6 -7 -7 -6 -5 -6 -6 -7 -7 -6 -6 -6 -6 -7 -7 -7 -7 -7 -7
-9 -9 -9 -8 -8 -8 -9 -10 -9 -9 -9 -8 -7 -7 -7 -7 -6 -6 -7 -7 -6 -6 -6 -5 -7 -7 -6 -7 -7 -6 -6 -6 -7 -6 -7 -7 -6 -6 -6 -7 -7 -7 -7 -7
-9 -9 -8 -9 -9 -8 -10 -10 -10 -10 -9 -9 -8 -7 -7 -7 -8 -7 -7 -7 -7 -7 -7 -6 -7 -6 -7 -6 -6 -6 -6 -6 -7 -6 -7 -7 -6 -6 -6 -6 -7 -7 -7 -7
-9 -9 -9 -9 -9 -9 -9 -10 -10 -10 -9 -9 -8 -8 -7 -8 -8 -8 -8 -7 -6 -7 -7 -6 -6 -6 -6 -6 -6 -7 -6 -6 -6 -6 -6 -7 -7 -7 -6 -6 -7 -7 -7 -6
-10 -9 -9 -9 -9 -9 -9 -10 -10 -10 -10 -8 -9 -7 -7 -7 -7 -6 -6 -7 -7 -6 -6 -6 -6 -6 -6 -6 -6 -6 -6 -6 -6 -7 -6 -7 -7 -7 -7 -7 -6 -6 -7 -6
-11 -10 -10 -10 -10 -9 -9 -10 -10 -10 -10 -9 -9 -8 -8 -8 -7 -6 -7 -7 -7 -8 -7 -7 -7 -6 -6 -6 -7 -6 -6 -6 -6 -6 -6 -7 -7 -7 -7 -7 -6 -6 -6 -7
-11 -11 -11 -10 -10 -10 -10 -10 -10 -11 -11 -10 -9 -8 -8 -8 -7 -6 -7 -7 -8 -7 -8 -8 -7 -7 -6 -6 -7 -6 -6 -6 -6 -6 -6 -6 -6 -7 -7 -7 -7 -7 -7 -7
-12 -12 -12 -11 -11 -11 -10 -10 -11 -11 -10 -10 -10 -8 -8 -8 -7 -8 -8 -8 -8 -7 -7 -7 -7 -7 -7 -7 -7 -6 -6 -6 -6 -7 -6 -7 -7 -6 -7 -7 -7 -7 -7 -6
-13 -12 -13 -13 -12 -12 -11 -11 -11 -11 -11 -10 -10 -9 -9 -9 -8 -8 -8 -8 -8 -7 -7 -7 -7 -7 -7 -7 -7 -6 -7 -6 -6 -6 -6 -6 -6 -7 -7 -7 -7 -6 -6 -6
-14 -13 -13 -13 -13 -13 -12 -11 -11 -11 -11 -10 -10 -9 -9 -9 -9 -8 -8 -8 -8 -7 -8 -8 -7 -8 -8 -7 -7 -6 -6 -6 -6 -6 -7 -6 -7 -7 -7 -7 -7 -7 -7 -6
-14 -14 -14 -14 -13 -13 -12 -11 -11 -10 -11 -10 -10 -10 -9 -8 -8 -9 -8 -8 -8 -8 -8 -8 -8 -8 -9 -8 -8 -6 -6 -6 -6 -6 -6 -7 -7 -7 -6 -7 -7 -7 -7 -7
-15 -14 -14 -13 -13 -13 -12 -12 -11 -11 -10 -10 -10 -10 -10 -9 -9 -9 -8 -9 -9 -9 -8 -8 -8 -8 -8 -7 -8 -8 -8 -8 -7 -7 -6 -6 -6 -7 -7 -7 -8 -7 -7 -7
-15 -14 -14 -14 -13 -13 -13 -12 -11 -11 -11 -10 -10 -11 -11 -10 -10 -9 -9 -9 -9 -10 -9 -8 -7 -8 -8 -8 -7 -8 -7 -8 -7 -7 -7 -7 -7 -7 -8 -7 -8 -8 -7 -7
-14 -15 -14 -14 -13 -14 -13 -12 -12 -12 -11 -11 -11 -11 -11 -11 -10 -10 -10 -10 -10 -9 -9 -9 -8 -9 -8 -9 -8 -8 -8 -8 -8 -8 -7 -7 -7 -7 -7 -7 -7 -7 -7 -7
-14 -15 -15 -14 -14 -14 -13 -13 -12 -12 -12 -11 -11 -11 -11 -11 -10 -10 -10 -10 -10 -9 -9 -9 -9 -9 -9 -9 -9 -9 -9 -8 -8 -8 -8 -8 -7 -7 -7 -7 -7 -7 -7 -7
-14 -14 -15 -15 -15 -14 -14 -13 -13 -13 -13 -12 -12 -11 -11 -11 -11 -11 -11 -11 -11 -11 -10 -10 -10 -9 -9 -9 -9 -9 -9 -9 -8 -8 -8 -8 -8 -8 -8 -11 -10 -7 -7 -7
-16 -15 -15 -15 -15 -15 -14 -14 -13 -15 -14 -13 -12 -12 -11 -11 -11 -11 -11 -12 -12 -12 -12 -12 -11 -11 -10 -10 -10 -10 -9 -9 -9 -8 -8 -8 -8 -8 -8 -8 -9 -9 -9 -8
-15 -15 -15 -15 -14 -14 -14 -14 -14 -14 -13 -14 -14 -13 -13 -12 -12 -12 -12 -12 -13 -13 -12 -12 -12 -11 -10 -10 -9 -10 -10 -10 -9 -9 -9 -9 -8 -8 -8 -8 -8 -8 -9 -8
-15 -15 -15 -15 -15 -14 -14 -14 -14 -14 -14 -14 -14 -13 -13 -14 -14 -13 -13 -14 -14 -13 -13 -13 -12 -12 -12 -12 -11 -11 -10 -10 -10 -10 -10 -9 -9 -9 -9 -9 -9 -9 -9 -8
-15 -15 -15 -15 -15 -14 -14 -15 -15 -15 -15 -14 -14 -14 -14 -13 -14 -14 -14 -14 -14 -14 -14 -13 -13 -13 -13 -13 -12 -12 -11 -11 -11 -11 -11 -10 -10 -10 -10 -9 -9 -9 -9 -9
-15 -15 -15 -15 -15 -15 -15 -15 -15 -15 -15 -15 -15 -15 -14 -14 -14 -14 -14 -14 -14 -14 -15 -14 -14 -13 -14 -13 -13 -13 -12 -11 -11 -11 -12 -11 -11 -11 -10 -10 -10 -10 -10 -10
-14 -14 -15 -15 -15 -15 -15 -15 -15 -15 -15 -15 -15 -15 -15 -15 -15 -15 -15 -15 -15 -15 -14 -14 -14 -14 -14 -14 -14 -13 -13 -13 -13 -13 -12 -12 -12 -11 -11 -11 -11 -11 -10 -10
-14 -14 -14 -14 -14 -14 -14 -15 -15 -15 -15 -16 -16 -16 -16 -16 -16 -16 -16 -15 -16 -16 -16 -15 -15 -15 -14 -14 -13 -13 -13 -13 -13 -13 -13 -13 -12 -12 -12 -11 -11 -11 -11 -11

GFSCGP_500_temp_090.txt.gz
Temp
-8 -7 -7 -7 -7 -7 -7 -7 -7 -7 -6 -6 -6 -6 -6 -6 -6 -6 -6 -6 -6 -6 -6 -6 -6 -6 -6 -6 -7 -6 -6 -6 -7 -6 -7 -7 -7 -7 -7 -7 -7 -7 -7 -8
-8 -8 -8 -8 -8 -8 -8 -8 -8 -7 -7 -6 -6 -6 -6 -5 -6 -5 -6 -6 -6 -6 -7 -6 -6 -6 -6 -6 -6 -6 -7 -7 -6 -6 -7 -8 -8 -8 -7 -8 -7 -7 -7 -8
-8 -9 -9 -8 -8 -8 -8 -8 -8 -8 -8 -7 -7 -6 -7 -6 -6 -5 -6 -6 -6 -6 -6 -6 -6 -6 -6 -6 -6 -6 -6 -6 -7 -7 -6 -7 -7 -7 -7 -7 -7 -7 -7 -7
-9 -9 -9 -9 -9 -9 -9 -9 -9 -8 -8 -8 -7 -6 -7 -6 -5 -5 -5 -7 -6 -6 -6 -6 -6 -6 -6 -6 -6 -6 -6 -6 -6 -7 -7 -7 -7 -7 -7 -7 -7 -7 -7 -7
-9 -9 -9 -9 -8 -9 -9 -10 -10 -9 -8 -9 -7 -7 -7 -6 -6 -6 -6 -6 -6 -6 -6 -6 -6 -6 -6 -5 -6 -6 -6 -6 -6 -6 -6 -7 -7 -7 -7 -7 -7 -7 -7 -7
-10 -9 -9 -9 -9 -9 -9 -9 -10 -8 -9 -9 -9 -7 -7 -7 -6 -5 -6 -6 -6 -6 -7 -7 -6 -6 -6 -6 -6 -6 -6 -6 -6 -6 -6 -6 -7 -7 -7 -7 -7 -7 -7 -7
-10 -9 -9 -9 -9 -9 -9 -9 -10 -9 -9 -9 -9 -8 -8 -7 -7 -6 -5 -6 -6 -6 -6 -6 -6 -6 -6 -6 -6 -5 -6 -6 -6 -6 -6 -6 -6 -6 -7 -7 -7 -6 -7 -7
-10 -10 -9 -9 -9 -9 -9 -9 -9 -9 -9 -9 -9 -7 -7 -8 -7 -6 -6 -6 -6 -6 -7 -6 -6 -6 -6 -6 -6 -6 -5 -6 -6 -6 -6 -6 -6 -6 -6 -6 -7 -7 -7 -6
-11 -11 -10 -10 -10 -10 -9 -9 -10 -10 -10 -9 -9 -8 -8 -8 -8 -7 -7 -7 -7 -6 -6 -7 -7 -7 -6 -6 -7 -6 -6 -6 -6 -6 -6 -6 -6 -6 -6 -6 -6 -7 -7 -6
-11 -11 -11 -11 -10 -10 -10 -10 -10 -10 -10 -10 -9 -8 -8 -8 -8 -7 -7 -8 -7 -7 -6 -6 -6 -6 -6 -6 -6 -6 -6 -6 -6 -6 -6 -6 -7 -6 -6 -6 -6 -7 -7 -6
-12 -12 -12 -12 -11 -11 -10 -10 -10 -10 -10 -10 -9 -8 -8 -8 -8 -8 -7 -8 -8 -8 -8 -7 -7 -6 -6 -7 -7 -7 -6 -6 -6 -5 -6 -6 -6 -7 -7 -7 -7 -7 -7 -6
-14 -13 -13 -12 -12 -12 -11 -11 -10 -10 -10 -10 -10 -8 -8 -8 -8 -8 -8 -7 -8 -8 -7 -7 -7 -7 -7 -7 -7 -6 -7 -6 -6 -7 -7 -7 -7 -7 -7 -7 -7 -6 -6 -7
-14 -14 -14 -13 -13 -12 -12 -11 -11 -10 -10 -10 -10 -9 -9 -9 -8 -8 -8 -8 -8 -8 -7 -7 -8 -7 -7 -7 -7 -6 -6 -6 -6 -6 -6 -6 -7 -6 -7 -6 -7 -7 -7 -7
-14 -14 -14 -14 -13 -13 -12 -12 -11 -11 -10 -10 -10 -10 -10 -9 -9 -9 -8 -8 -8 -8 -8 -8 -8 -8 -8 -7 -7 -7 -7 -7 -6 -6 -6 -6 -7 -6 -6 -6 -6 -7 -7 -7
-15 -14 -14 -14 -14 -13 -13 -12 -12 -11 -11 -10 -11 -11 -10 -11 -10 -9 -9 -9 -9 -8 -8 -8 -8 -8 -8 -8 -8 -8 -8 -7 -6 -7 -7 -7 -6 -7 -6 -7 -6 -7 -7 -7
-15 -14 -14 -14 -14 -14 -13 -13 -12 -11 -11 -11 -11 -11 -11 -11 -11 -10 -9 -10 -9 -9 -9 -9 -9 -9 -9 -8 -8 -8 -8 -8 -8 -8 -7 -7 -7 -7 -7 -7 -7 -7 -7 -7
-15 -15 -14 -14 -14 -14 -14 -13 -13 -12 -12 -11 -11 -11 -11 -11 -11 -11 -10 -10 -10 -10 -10 -10 -10 -10 -9 -9 -9 -8 -8 -8 -8 -8 -7 -6 -7 -7 -7 -7 -7 -8 -8 -8
-16 -15 -15 -15 -14 -14 -13 -13 -13 -13 -13 -12 -12 -11 -11 -11 -11 -11 -11 -11 -11 -10 -10 -10 -10 -9 -10 -9 -9 -9 -9 -8 -8 -8 -8 -8 -8 -7 -7 -8 -7 -7 -8 -8
-15 -15 -15 -14 -14 -14 -13 -13 -13 -13 -13 -13 -13 -12 -12 -12 -11 -12 -11 -11 -11 -11 -11 -11 -10 -10 -10 -9 -9 -9 -9 -9 -9 -9 -9 -8 -8 -8 -8 -7 -7 -8 -8 -7
-15 -15 -15 -15 -14 -14 -14 -13 -14 -14 -13 -13 -14 -13 -13 -13 -13 -13 -12 -11 -11 -11 -11 -11 -11 -11 -10 -10 -10 -10 -10 -10 -9 -9 -9 -9 -9 -8 -8 -8 -8 -8 -9 -9
-15 -15 -15 -15 -15 -14 -15 -14 -14 -14 -13 -14 -14 -14 -14 -14 -13 -13 -13 -13 -12 -12 -12 -12 -11 -11 -11 -11 -11 -10 -10 -10 -10 -9 -9 -9 -9 -9 -9 -8 -8 -8 -8 -9
-15 -15 -15 -15 -15 -15 -15 -15 -14 -14 -14 -14 -14 -14 -15 -14 -13 -13 -14 -14 -13 -13 -13 -13 -12 -12 -12 -12 -11 -11 -11 -10 -10 -10 -10 -9 -9 -9 -9 -9 -9 -8 -9 -9
-15 -15 -15 -15 -15 -15 -15 -15 -15 -14 -14 -14 -14 -14 -14 -14 -13 -14 -14 -14 -14 -13 -14 -13 -13 -13 -13 -12 -12 -12 -12 -11 -11 -11 -10 -10 -10 -10 -9 -9 -9 -9 -9 -9
-15 -15 -15 -15 -15 -15 -15 -15 -14 -14 -14 -14 -14 -14 -14 -14 -14 -14 -14 -14 -15 -15 -14 -14 -14 -14 -14 -14 -13 -13 -13 -13 -12 -12 -12 -11 -11 -11 -10 -10 -10 -10 -10 -10
-15 -15 -15 -15 -15 -15 -15 -14 -15 -15 -15 -14 -14 -14 -14 -14 -14 -15 -15 -15 -15 -15 -15 -15 -15 -15 -14 -14 -14 -14 -14 -14 -13 -13 -13 -12 -12 -12 -11 -11 -11 -11 -11 -11
-14 -14 -15 -15 -14 -14 -15 -15 -15 -15 -15 -15 -15 -15 -15 -15 -15 -15 -15 -16 -15 -16 -15 -16 -15 -15 -15 -15 -15 -14 -14 -14 -14 -14 -14 -13 -13 -13 -12 -12 -12 -12 -12 -11

GFSCGP_500_temp_093.txt.gz
Temp
-8 -8 -8 -8 -7 -7 -7 -7 -7 -6 -6 -6 -6 -6 -6 -6 -6 -6 -6 -6 -6 -6 -5 -6 -5 -5 -5 -6 -6 -6 -6 -6 -7 -6 -7 -7 -7 -7 -7 -7 -8 -8 -7 -7
-8 -8 -8 -8 -8 -8 -7 -7 -7 -7 -7 -7 -6 -6 -6 -6 -6 -7 -6 -6 -6 -6 -5 -6 -6 -5 -5 -5 -6 -6 -6 -6 -6 -6 -6 -6 -7 -7 -7 -7 -7 -8 -7 -7
-8 -9 -8 -8 -8 -8 -8 -8 -8 -8 -7 -7 -7 -6 -6 -6 -6 -7 -7 -6 -6 -6 -5 -6 -6 -6 -5 -5 -6 -6 -6 -6 -6 -6 -7 -7 -7 -7 -7 -7 -7 -7 -7 -7
-9 -9 -8 -8 -8 -9 -9 -9 -8 -8 -8 -7 -7 -7 -7 -7 -7 -7 -7 -7 -7 -6 -6 -5 -6 -6 -6 -6 -6 -6 -6 -6 -6 -6 -6 -6 -7 -7 -8 -7 -7 -7 -7 -7
-9 -9 -9 -9 -9 -9 -9 -9 -9 -9 -8 -8 -7 -7 -7 -7 -7 -7 -7 -7 -7 -6 -6 -7 -6 -6 -6 -6 -6 -6 -6 -6 -6 -6 -6 -6 -6 -7 -7 -7 -7 -7 -7 -7
-10 -10 -9 -9 -9 -9 -10 -9 -9 -9 -8 -8 -8 -8 -7 -7 -7 -7 -7 -7 -6 -6 -6 -6 -6 -6 -6 -6 -6 -6 -6 -6 -6 -6 -6 -6 -6 -6 -6 -7 -7 -7 -7 -7
-10 -10 -10 -9 -9 -9 -10 -10 -10 -10 -9 -9 -8 -8 -8 -7 -7 -6 -6 -6 -6 -6 -6 -5 -6 -6 -6 -6 -6 -6 -6 -6 -6 -6 -6 -6 -6 -6 -6 -7 -7 -7 -7 -7
-10 -10 -10 -10 -9 -9 -9 -10 -10 -9 -9 -8 -9 -8 -8 -8 -8 -7 -6 -6 -5 -6 -6 -6 -6 -6 -6 -6 -6 -6 -6 -6 -5 -6 -6 -6 -6 -6 -6 -6 -6 -6 -7 -7
-11 -11 -11 -11 -10 -10 -9 -9 -10 -10 -9 -9 -9 -8 -8 -9 -8 -8 -7 -7 -7 -7 -7 -6 -6 -6 -7 -6 -6 -6 -6 -6 -5 -6 -6 -6 -6 -6 -6 -6 -6 -6 -6 -6
-12 -11 -11 -11 -11 -11 -10 -10 -10 -10 -10 -9 -8 -8 -7 -8 -9 -8 -8 -8 -8 -7 -7 -7 -7 -7 -6 -6 -6 -6 -6 -7 -6 -5 -6 -6 -6 -6 -6 -6 -6 -6 -6 -6
-13 -12 -12 -12 -11 -11 -10 -10 -10 -10 -10 -10 -9 -8 -8 -8 -8 -8 -8 -8 -8 -8 -7 -7 -7 -7 -7 -6 -6 -6 -6 -6 -7 -6 -6 -6 -6 -6 -6 -6 -6 -7 -7 -7
-13 -13 -13 -12 -11 -12 -11 -11 -10 -10 -10 -9 -9 -8 -8 -8 -8 -8 -8 -8 -8 -8 -8 -8 -7 -7 -7 -7 -7 -6 -6 -6 -7 -7 -6 -6 -7 -6 -6 -6 -6 -6 -7 -7
-15 -14 -14 -13 -12 -12 -11 -11 -10 -10 -10 -10 -10 -10 -8 -8 -9 -8 -8 -8 -9 -8 -8 -7 -8 -7 -7 -7 -7 -6 -6 -6 -6 -6 -6 -6 -6 -6 -7 -6 -6 -6 -6 -6
-15 -15 -14 -14 -12 -12 -11 -11 -11 -11 -11 -10 -10 -10 -10 -9 -9 -9 -9 -9 -9 -8 -9 -9 -8 -9 -9 -8 -8 -7 -7 -7 -7 -7 -7 -6 -6 -6 -6 -7 -7 -6 -6 -6
-15 -15 -14 -14 -14 -13 -12 -12 -11 -11 -11 -11 -11 -11 -11 -10 -9 -9 -9 -9 -9 -9 -8 -8 -8 -9 -8 -8 -8 -8 -8 -7 -7 -7 -6 -6 -6 -6 -6 -6 -6 -7 -7 -6
-15 -15 -14 -14 -14 -13 -13 -13 -12 -12 -11 -11 -11 -11 -11 -11 -11 -10 -10 -10 -10 -9 -9 -9 -9 -9 -8 -8 -8 -8 -8 -8 -7 -7 -7 -7 -8 -7 -6 -6 -7 -7 -7 -7
-15 -14 -15 -15 -14 -14 -14 -13 -13 -12 -12 -12 -12 -11 -11 -11 -11 -11 -11 -10 -10 -10 -10 -10 -10 -9 -9 -9 -9 -9 -9 -8 -8 -8 -8 -8 -8 -7 -7 -7 -7 -7 -7 -7
-15 -15 -15 -14 -15 -14 -13 -13 -13 -13 -12 -12 -12 -12 -12 -11 -11 -11 -11 -11 -11 -10 -10 -10 -10 -10 -9 -9 -9 -9 -9 -9 -8 -8 -8 -9 -9 -7 -7 -7 -7 -7 -7 -8
-15 -15 -14 -14 -14 -14 -14 -14 -13 -13 -13 -13 -13 -13 -13 -12 -12 -12 -12 -11 -11 -11 -11 -11 -11 -11 -10 -10 -10 -9 -9 -9 -9 -9 -9 -9 -9 -8 -8 -8 -7 -7 -6 -6
-15 -15 -15 -15 -14 -14 -14 -14 -14 -14 -13 -13 -13 -13 -13 -13 -13 -13 -12 -12 -11 -11 -11 -11 -11 -11 -11 -10 -10 -10 -9 -9 -9 -9 -9 -9 -9 -9 -9 -8 -8 -8 -7 -7
-15 -15 -15 -15 -14 -14 -14 -14 -14 -13 -13 -14 -14 -13 -13 -13 -13 -13 -13 -13 -12 -12 -12 -12 -11 -11 -11 -11 -11 -11 -10 -10 -10 -10 -10 -10 -9 -9 -9 -8 -9 -9 -8 -8
-15 -15 -15 -15 -15 -15 -14 -14 -14 -14 -14 -14 -14 -13 -13 -13 -13 -13 -13 -13 -13 -13 -12 -12 -13 -12 -12 -11 -11 -11 -11 -10 -10 -10 -10 -10 -10 -9 -9 -9 -9 -9 -9 -9
-15 -15 -15 -15 -15 -15 -14 -14 -14 -14 -14 -14 -14 -14 -14 -14 -14 -13 -13 -14 -14 -13 -13 -12 -12 -12 -13 -12 -12 -12 -11 -11 -11 -10 -10 -10 -10 -10 -10 -9 -9 -9 -9 -9
-15 -15 -15 -15 -15 -15 -14 -14 -14 -14 -14 -14 -14 -14 -14 -14 -14 -14 -14 -14 -14 -14 -13 -13 -13 -13 -13 -13 -13 -12 -12 -12 -12 -12 -12 -11 -11 -11 -11 -10 -10 -10 -10 -10
-15 -15 -15 -15 -15 -15 -14 -14 -14 -14 -14 -14 -14 -15 -15 -14 -14 -15 -14 -14 -15 -15 -14 -14 -14 -13 -13 -13 -13 -13 -13 -13 -13 -13 -13 -13 -12 -12 -12 -11 -11 -11 -11 -10
-14 -15 -15 -15 -15 -15 -15 -15 -15 -15 -15 -15 -15 -15 -15 -15 -15 -15 -15 -15 -15 -15 -15 -15 -15 -15 -14 -14 -14 -14 -14 -14 -14 -13 -13 -13 -13 -13 -13 -13 -12 -12 -12 -12

GFSCGP_500_temp_096.txt.gz
Temp
-8 -8 -8 -8 -8 -7 -7 -6 -6 -6 -6 -5 -5 -5 -5 -5 -5 -5 -5 -5 -5 -5 -5 -5 -5 -5 -5 -5 -5 -5 -6 -6 -6 -7 -7 -7 -7 -7 -7 -7 -7 -7 -7 -7
-8 -8 -8 -8 -8 -8 -7 -7 -7 -7 -7 -6 -6 -6 -6 -5 -6 -6 -5 -5 -5 -5 -6 -6 -6 -6 -6 -5 -5 -5 -5 -6 -6 -6 -6 -6 -6 -6 -7 -7 -7 -7 -7 -7
-9 -9 -8 -8 -8 -8 -8 -8 -8 -8 -7 -7 -6 -7 -6 -6 -6 -5 -5 -5 -6 -6 -6 -6 -6 -6 -6 -6 -5 -5 -5 -5 -5 -6 -7 -7 -7 -7 -6 -7 -7 -7 -7 -7
-9 -9 -9 -8 -9 -9 -9 -8 -8 -8 -7 -7 -7 -7 -6 -6 -5 -6 -6 -6 -6 -6 -5 -5 -5 -6 -6 -6 -6 -5 -5 -5 -5 -5 -6 -6 -7 -6 -6 -7 -7 -7 -7 -7
-9 -9 -9 -9 -9 -10 -9 -9 -9 -8 -8 -7 -7 -7 -7 -6 -6 -6 -6 -6 -6 -6 -6 -6 -5 -5 -6 -6 -6 -6 -6 -6 -6 -6 -6 -6 -6 -6 -6 -6 -7 -7 -6 -6
-10 -9 -10 -10 -9 -9 -10 -9 -9 -9 -9 -8 -8 -8 -7 -7 -6 -7 -6 -6 -6 -6 -6 -6 -6 -5 -6 -6 -6 -6 -5 -5 -6 -6 -6 -6 -6 -6 -7 -7 -6 -7 -6 -6
-10 -10 -10 -10 -9 -9 -10 -10 -9 -9 -10 -9 -9 -8 -7 -7 -7 -7 -7 -7 -7 -6 -5 -5 -6 -6 -6 -6 -6 -6 -6 -5 -5 -6 -6 -6 -6 -6 -6 -6 -7 -6 -7 -6
-11 -10 -10 -10 -10 -9 -9 -10 -11 -10 -10 -9 -9 -8 -8 -8 -7 -7 -8 -7 -7 -6 -6 -6 -6 -6 -6 -6 -6 -6 -5 -5 -5 -6 -6 -6 -6 -6 -6 -6 -6 -6 -6 -6
-11 -12 -10 -10 -10 -10 -10 -10 -10 -11 -9 -10 -9 -9 -8 -8 -7 -7 -8 -7 -7 -7 -7 -6 -6 -7 -6 -6 -6 -6 -7 -5 -5 -6 -6 -6 -6 -6 -6 -6 -6 -6 -7 -7
-12 -12 -11 -10 -11 -10 -10 -10 -11 -10 -11 -10 -9 -10 -9 -8 -8 -8 -8 -8 -8 -8 -7 -7 -7 -7 -6 -7 -6 -6 -6 -6 -6 -5 -6 -6 -6 -6 -6 -6 -6 -6 -7 -7
-13 -12 -12 -11 -10 -11 -10 -10 -10 -11 -11 -10 -10 -10 -9 -8 -8 -8 -8 -8 -9 -8 -8 -7 -7 -7 -6 -6 -6 -6 -6 -6 -6 -6 -6 -6 -6 -6 -6 -6 -6 -6 -6 -7
-13 -14 -14 -12 -11 -11 -10 -11 -10 -11 -11 -11 -10 -9 -10 -9 -9 -8 -8 -8 -9 -8 -8 -8 -7 -7 -7 -6 -6 -6 -6 -6 -6 -6 -6 -6 -6 -6 -6 -6 -6 -6 -6 -7
-15 -14 -14 -13 -12 -11 -11 -11 -11 -12 -12 -11 -11 -10 -10 -9 -9 -9 -9 -9 -9 -9 -9 -8 -8 -7 -7 -7 -7 -7 -6 -6 -6 -6 -6 -6 -6 -6 -6 -6 -6 -6 -6 -6
-15 -15 -14 -13 -13 -13 -11 -10 -11 -11 -12 -11 -11 -11 -11 -9 -9 -9 -9 -9 -9 -9 -9 -8 -8 -8 -8 -7 -7 -7 -6 -6 -6 -6 -6 -7 -6 -6 -6 -6 -6 -6 -6 -6
-15 -15 -15 -13 -13 -13 -12 -11 -11 -11 -12 -12 -11 -12 -12 -10 -9 -10 -9 -9 -9 -9 -9 -9 -9 -9 -8 -8 -8 -7 -8 -7 -7 -7 -7 -7 -6 -6 -6 -5 -6 -6 -6 -6
-15 -14 -14 -14 -13 -13 -13 -13 -12 -12 -11 -12 -12 -12 -12 -11 -10 -10 -10 -10 -10 -10 -10 -9 -9 -9 -9 -9 -9 -9 -9 -8 -8 -8 -7 -7 -7 -7 -6 -5 -5 -6 -6 -6
-15 -14 -14 -15 -14 -14 -14 -13 -13 -12 -12 -13 -12 -12 -11 -11 -11 -11 -10 -10 -10 -10 -10 -10 -9 -9 -9 -9 -9 -8 -8 -8 -8 -8 -8 -7 -7 -7 -7 -7 -6 -6 -6 -6
-15 -15 -15 -14 -14 -14 -14 -14 -13 -13 -13 -12 -12 -12 -11 -11 -11 -11 -11 -11 -10 -10 -10 -10 -10 -10 -9 -9 -9 -9 -8 -8 -9 -8 -7 -8 -8 -7 -8 -7 -7 -7 -6 -7
-15 -15 -15 -15 -14 -14 -14 -14 -13 -13 -13 -13 -12 -12 -12 -12 -11 -11 -11 -11 -11 -10 -10 -10 -10 -10 -10 -9 -9 -9 -9 -9 -9 -9 -9 -9 -9 -8 -9 -9 -8 -7 -7 -7
-15 -15 -15 -15 -15 -15 -14 -14 -14 -14 -14 -13 -12 -12 -12 -12 -12 -11 -11 -11 -10 -10 -10 -10 -10 -10 -10 -10 -10 -9 -9 -9 -9 -9 -9 -9 -9 -9 -8 -8 -8 -8 -7 -7
-16 -15 -15 -15 -15 -15 -14 -14 -14 -14 -14 -13 -13 -13 -13 -13 -12 -12 -12 -11 -11 -11 -11 -11 -10 -10 -10 -10 -11 -11 -10 -10 -10 -10 -9 -9 -9 -9 -8 -8 -8 -8 -8 -8
-15 -15 -15 -15 -15 -14 -14 -14 -14 -14 -14 -14 -13 -13 -13 -13 -13 -13 -12 -12 -12 -12 -11 -11 -11 -10 -10 -10 -10 -11 -11 -11 -10 -10 -10 -10 -10 -10 -9 -9 -9 -9 -8 -9
-15 -15 -15 -15 -14 -14 -14 -14 -14 -14 -14 -14 -14 -14 -14 -14 -13 -13 -13 -13 -12 -12 -12 -12 -12 -11 -11 -11 -11 -10 -11 -11 -11 -11 -11 -11 -10 -10 -10 -10 -10 -10 -9 -9
-15 -15 -15 -15 -15 -14 -14 -14 -14 -14 -14 -14 -14 -14 -14 -14 -14 -14 -14 -13 -13 -13 -13 -13 -13 -12 -12 -12 -12 -12 -12 -11 -11 -11 -11 -11 -11 -10 -11 -11 -11 -10 -10 -10
-15 -15 -15 -15 -14 -14 -14 -14 -14 -14 -14 -14 -14 -14 -14 -14 -14 -14 -14 -14 -14 -14 -14 -13 -13 -13 -13 -13 -13 -13 -12 -12 -12 -12 -12 -12 -11 -11 -11 -11 -12 -11 -11 -11
-14 -14 -14 -14 -14 -14 -14 -14 -14 -14 -14 -14 -14 -14 -14 -14 -14 -14 -15 -15 -15 -14 -14 -14 -14 -14 -14 -14 -14 -14 -14 -14 -13 -13 -12 -12 -12 -13 -12 -12 -12 -12 -12 -12

GFSCGP_500_temp_099.txt.gz
Temp
-8 -8 -7 -7 -7 -6 -6 -5 -4 -5 -5 -5 -6 -5 -5 -5 -6 -5 -5 -5 -5 -5 -5 -5 -5 -5 -5 -5 -6 -6 -6 -6 -6 -6 -6 -6 -6 -7 -7 -7 -7 -7 -7 -7
-8 -8 -8 -8 -8 -7 -7 -6 -5 -4 -6 -5 -5 -5 -5 -5 -5 -6 -5 -5 -5 -5 -5 -5 -5 -5 -5 -5 -6 -6 -6 -6 -6 -6 -6 -6 -6 -7 -7 -7 -7 -7 -6 -6
-9 -9 -8 -8 -8 -7 -8 -7 -6 -5 -5 -6 -5 -5 -5 -5 -6 -6 -6 -5 -5 -5 -5 -5 -5 -5 -5 -5 -6 -6 -5 -6 -6 -6 -6 -6 -7 -7 -7 -7 -7 -7 -6 -6
-9 -9 -9 -8 -7 -8 -9 -6 -6 -4 -7 -6 -6 -6 -6 -6 -6 -6 -6 -5 -6 -5 -5 -5 -5 -5 -5 -5 -5 -6 -5 -6 -6 -6 -6 -7 -7 -7 -7 -7 -7 -7 -7 -6
-9 -10 -9 -8 -8 -8 -8 -8 -8 -6 -6 -7 -7 -7 -6 -6 -6 -5 -6 -6 -7 -5 -5 -6 -5 -5 -5 -5 -6 -6 -6 -6 -6 -6 -6 -7 -7 -7 -7 -7 -7 -6 -7 -7
-11 -10 -9 -9 -9 -9 -9 -9 -9 -9 -8 -7 -7 -7 -6 -7 -6 -6 -7 -7 -6 -6 -6 -6 -5 -5 -5 -5 -6 -6 -6 -6 -6 -6 -6 -6 -7 -7 -6 -7 -7 -6 -6 -7
-10 -9 -9 -9 -9 -9 -9 -9 -9 -9 -7 -7 -7 -7 -7 -8 -7 -6 -7 -8 -7 -6 -6 -6 -5 -5 -6 -6 -6 -6 -6 -6 -6 -6 -6 -6 -6 -7 -7 -7 -6 -6 -6 -7
-11 -10 -10 -9 -9 -9 -9 -9 -10 -9 -8 -8 -7 -8 -7 -7 -8 -8 -7 -7 -7 -7 -7 -6 -6 -5 -5 -6 -6 -6 -6 -6 -6 -6 -6 -6 -6 -6 -6 -6 -6 -6 -6 -6
-13 -12 -11 -10 -10 -10 -9 -10 -10 -9 -9 -7 -8 -8 -7 -8 -8 -8 -7 -7 -7 -7 -7 -6 -6 -5 -5 -6 -6 -5 -5 -6 -6 -6 -6 -6 -6 -6 -6 -6 -6 -6 -6 -7
-12 -12 -13 -11 -10 -10 -10 -11 -11 -10 -9 -8 -7 -8 -8 -8 -8 -7 -7 -7 -7 -6 -7 -7 -6 -6 -5 -6 -6 -6 -6 -6 -6 -6 -6 -6 -6 -6 -6 -6 -6 -6 -6 -7
-13 -13 -12 -12 -9 -10 -9 -10 -11 -10 -9 -9 -8 -8 -8 -9 -8 -8 -8 -8 -7 -6 -7 -7 -7 -7 -6 -6 -7 -6 -6 -6 -5 -6 -6 -6 -6 -6 -6 -6 -6 -6 -5 -5
-13 -13 -12 -13 -12 -10 -12 -11 -11 -11 -10 -9 -9 -8 -9 -9 -10 -9 -9 -8 -8 -7 -7 -7 -7 -6 -7 -6 -7 -6 -6 -6 -6 -6 -6 -6 -6 -6 -6 -6 -6 -6 -6 -6
-15 -14 -13 -12 -12 -12 -12 -11 -10 -11 -10 -10 -9 -9 -9 -9 -10 -9 -9 -9 -9 -8 -8 -7 -7 -7 -7 -7 -7 -7 -6 -6 -6 -6 -5 -6 -5 -6 -6 -6 -6 -6 -6 -6
-14 -14 -13 -12 -12 -12 -12 -11 -11 -11 -11 -10 -10 -10 -9 -9 -9 -9 -9 -9 -9 -9 -9 -8 -8 -8 -8 -8 -8 -8 -7 -6 -7 -7 -6 -6 -6 -6 -6 -5 -6 -6 -6 -6
-15 -14 -13 -12 -12 -12 -12 -11 -12 -12 -11 -10 -9 -10 -9 -9 -9 -9 -9 -9 -9 -9 -9 -9 -8 -8 -8 -8 -8 -7 -7 -7 -7 -6 -6 -7 -6 -6 -6 -6 -6 -6 -6 -6
-15 -15 -13 -13 -12 -12 -12 -12 -12 -12 -12 -11 -11 -10 -6 -9 -9 -9 -9 -9 -9 -9 -9 -9 -9 -9 -9 -9 -8 -8 -8 -8 -7 -7 -8 -8 -7 -6 -6 -6 -6 -6 -6 -6
-15 -13 -12 -12 -13 -12 -12 -12 -12 -12 -12 -12 -11 -10 -9 -10 -10 -10 -10 -10 -9 -9 -9 -9 -9 -10 -9 -9 -9 -8 -8 -8 -8 -8 -9 -9 -9 -7 -7 -7 -7 -6 -6 -6
-14 -14 -13 -13 -13 -13 -13 -12 -11 -11 -12 -13 -12 -11 -11 -12 -11 -10 -10 -10 -10 -10 -10 -10 -10 -10 -10 -9 -9 -9 -9 -9 -8 -8 -8 -9 -8 -8 -7 -7 -7 -7 -7 -7
-15 -15 -14 -14 -13 -13 -13 -13 -13 -12 -13 -13 -12 -12 -11 -11 -10 -10 -10 -10 -9 -9 -10 -10 -10 -10 -10 -10 -9 -9 -9 -9 -9 -9 -8 -9 -9 -8 -8 -7 -7 -7 -7 -7
-15 -14 -14 -15 -13 -14 -13 -13 -13 -13 -14 -13 -12 -12 -12 -12 -12 -11 -10 -10 -10 -9 -9 -9 -10 -10 -9 -9 -9 -9 -10 -10 -9 -9 -9 -9 -8 -9 -9 -8 -8 -8 -7 -7
-16 -15 -14 -16 -15 -14 -13 -14 -14 -14 -14 -13 -13 -12 -12 -12 -12 -11 -11 -11 -11 -10 -10 -10 -9 -10 -9 -9 -9 -9 -9 -9 -9 -10 -9 -9 -9 -9 -9 -9 -8 -8 -8 -8
-15 -15 -16 -16 -14 -15 -14 -15 -14 -13 -14 -13 -13 -13 -13 -13 -13 -12 -12 -12 -11 -11 -11 -11 -10 -10 -10 -10 -10 -10 -10 -10 -9 -10 -10 -10 -9 -9 -9 -9 -9 -8 -8 -8
-14 -14 -15 -16 -14 -14 -14 -15 -15 -14 -14 -14 -14 -14 -13 -13 -13 -13 -13 -12 -12 -12 -12 -12 -12 -11 -11 -11 -11 -10 -10 -10 -10 -10 -10 -10 -11 -10 -10 -10 -10 -9 -9 -9
-14 -14 -14 -14 -14 -14 -14 -14 -14 -14 -14 -14 -14 -13 -13 -13 -13 -13 -13 -13 -13 -13 -12 -12 -12 -12 -12 -12 -12 -12 -12 -12 -11 -11 -11 -10 -10 -10 -10 -10 -10 -10 -10 -10
-15 -15 -15 -15 -14 -14 -14 -14 -14 -14 -14 -14 -14 -14 -13 -13 -13 -13 -13 -13 -13 -13 -13 -13 -13 -13 -13 -13 -12 -12 -12 -12 -12 -12 -12 -12 -12 -11 -11 -11 -11 -11 -11 -10
-15 -15 -15 -15 -14 -14 -14 -14 -14 -14 -14 -14 -14 -14 -14 -14 -14 -14 -14 -14 -14 -14 -13 -13 -14 -13 -13 -14 -14 -13 -13 -13 -13 -13 -12 -12 -12 -13 -12 -12 -11 -11 -11 -11

GFSCGP_500_temp_102.txt.gz
Temp
-7 -7 -7 -7 -7 -6 -6 -5 -5 -4 -5 -5 -5 -5 -5 -5 -5 -5 -5 -5 -5 -5 -5 -5 -5 -5 -5 -5 -6 -6 -6 -6 -6 -6 -6 -6 -6 -6 -6 -6 -6 -5 -6 -6
-8 -7 -8 -8 -8 -7 -6 -6 -6 -6 -5 -5 -5 -5 -5 -5 -5 -5 -6 -6 -5 -5 -5 -5 -5 -5 -5 -5 -5 -5 -6 -6 -6 -6 -6 -6 -6 -6 -6 -6 -6 -6 -5 -6
-8 -8 -8 -8 -7 -7 -6 -7 -7 -5 -5 -5 -5 -5 -5 -5 -6 -6 -5 -5 -5 -5 -5 -5 -5 -5 -5 -5 -5 -5 -6 -6 -6 -6 -6 -6 -6 -6 -6 -7 -7 -6 -6 -6
-9 -9 -9 -9 -9 -8 -9 -7 -6 -6 -6 -6 -6 -5 -6 -5 -5 -6 -6 -5 -5 -6 -5 -5 -5 -5 -5 -5 -5 -5 -5 -6 -6 -6 -6 -6 -6 -6 -7 -7 -6 -6 -6 -6
-9 -9 -10 -10 -10 -9 -8 -7 -8 -8 -6 -6 -6 -6 -6 -6 -6 -5 -6 -5 -5 -6 -5 -6 -5 -5 -5 -5 -5 -5 -5 -5 -5 -6 -6 -6 -6 -7 -7 -7 -7 -7 -7 -6
-9 -9 -9 -11 -11 -9 -8 -8 -8 -8 -7 -7 -7 -7 -6 -6 -6 -6 -6 -5 -5 -6 -5 -5 -6 -5 -5 -5 -5 -5 -5 -5 -5 -5 -5 -6 -6 -6 -7 -7 -7 -7 -6 -6
-9 -9 -11 -11 -11 -10 -10 -9 -8 -8 -7 -7 -7 -7 -5 -7 -7 -7 -6 -7 -6 -5 -6 -6 -5 -5 -5 -5 -6 -5 -5 -5 -5 -5 -5 -6 -6 -6 -7 -6 -7 -6 -6 -6
-10 -10 -9 -9 -9 -11 -10 -9 -9 -8 -8 -7 -7 -7 -7 -6 -5 -5 -5 -6 -6 -6 -5 -5 -5 -6 -5 -6 -5 -5 -5 -5 -6 -5 -5 -5 -6 -6 -6 -6 -7 -6 -6 -5
-12 -12 -12 -10 -9 -10 -10 -9 -9 -9 -8 -7 -7 -7 -7 -7 -7 -5 -7 -7 -6 -6 -6 -6 -6 -6 -5 -5 -5 -5 -5 -5 -5 -5 -5 -5 -5 -6 -6 -6 -6 -6 -6 -6
-12 -11 -11 -12 -10 -10 -11 -10 -9 -8 -8 -8 -7 -7 -6 -8 -8 -8 -8 -6 -6 -7 -6 -6 -5 -6 -6 -5 -5 -5 -6 -5 -6 -5 -5 -5 -5 -6 -6 -6 -5 -5 -6 -7
-12 -12 -11 -12 -11 -10 -10 -10 -10 -10 -9 -8 -8 -8 -7 -8 -9 -9 -8 -7 -6 -6 -7 -6 -5 -7 -5 -5 -6 -6 -6 -6 -6 -6 -6 -5 -5 -6 -6 -6 -6 -5 -5 -6
-12 -12 -12 -12 -12 -11 -11 -11 -11 -10 -9 -9 -9 -8 -8 -8 -9 -9 -9 -7 -6 -5 -5 -6 -6 -4 -5 -6 -5 -6 -6 -6 -6 -6 -5 -5 -6 -6 -6 -6 -6 -6 -5 -5
-12 -11 -11 -12 -11 -12 -11 -11 -11 -11 -10 -9 -9 -9 -9 -9 -9 -9 -9 -8 -7 -6 -5 -5 -5 -6 -6 -7 -7 -7 -7 -6 -6 -5 -5 -6 -6 -6 -5 -6 -6 -5 -6 -5
-12 -12 -12 -12 -11 -11 -12 -11 -11 -11 -10 -9 -9 -10 -9 -9 -9 -9 -8 -9 -8 -6 -7 -5 -5 -6 -7 -7 -7 -8 -7 -7 -6 -6 -5 -5 -6 -6 -6 -5 -6 -6 -6 -6
-13 -13 -12 -12 -11 -11 -11 -12 -11 -11 -10 -10 -9 -10 -9 -8 -8 -7 -8 -8 -8 -8 -8 -7 -6 -7 -7 -8 -7 -7 -7 -7 -7 -6 -5 -5 -5 -5 -6 -6 -5 -6 -6 -6
-13 -13 -13 -12 -11 -11 -11 -11 -11 -11 -11 -10 -10 -10 -9 -7 -7 -11 -10 -9 -9 -9 -8 -8 -7 -7 -7 -8 -8 -8 -8 -7 -7 -6 -6 -7 -6 -6 -6 -6 -6 -6 -5 -5
-14 -13 -13 -12 -11 -12 -11 -12 -12 -11 -11 -11 -11 -9 -9 -7 -9 -10 -10 -10 -10 -9 -9 -9 -8 -9 -8 -8 -8 -8 -8 -8 -8 -8 -7 -7 -6 -7 -8 -6 -6 -7 -6 -6
-14 -14 -13 -12 -12 -11 -11 -11 -10 -11 -12 -11 -11 -9 -8 -8 -9 -9 -10 -9 -9 -10 -10 -10 -9 -8 -9 -9 -9 -9 -9 -8 -8 -8 -8 -8 -8 -7 -7 -7 -7 -7 -6 -6
-13 -14 -13 -12 -12 -11 -12 -11 -11 -11 -12 -11 -10 -10 -10 -9 -11 -12 -11 -9 -9 -9 -10 -10 -10 -10 -10 -10 -10 -10 -9 -8 -8 -9 -9 -9 -8 -8 -7 -7 -7 -7 -6 -7
-15 -14 -14 -13 -13 -14 -12 -12 -12 -11 -11 -12 -10 -11 -10 -10 -12 -10 -9 -9 -9 -9 -9 -10 -10 -10 -10 -10 -10 -10 -9 -9 -9 -9 -9 -9 -9 -8 -9 -8 -8 -7 -8 -7
-14 -14 -14 -14 -12 -12 -13 -12 -13 -13 -12 -12 -13 -12 -11 -11 -11 -11 -9 -10 -10 -10 -10 -9 -9 -9 -10 -10 -10 -10 -9 -9 -10 -10 -10 -10 -9 -9 -9 -9 -9 -8 -8 -8
-15 -15 -15 -15 -13 -14 -14 -13 -13 -13 -13 -13 -13 -12 -12 -12 -12 -12 -11 -10 -10 -11 -10 -10 -10 -10 -10 -10 -10 -9 -9 -9 -9 -10 -10 -10 -10 -10 -9 -9 -9 -9 -9 -8
-14 -14 -14 -13 -13 -14 -14 -14 -14 -14 -14 -13 -13 -13 -13 -13 -13 -12 -12 -11 -11 -11 -11 -11 -11 -11 -11 -11 -11 -10 -10 -10 -10 -10 -9 -10 -10 -10 -11 -10 -10 -10 -10 -9
-14 -14 -14 -14 -13 -14 -14 -14 -14 -14 -13 -14 -14 -13 -13 -13 -13 -13 -13 -12 -12 -11 -11 -12 -12 -11 -11 -11 -11 -11 -11 -11 -11 -11 -11 -10 -10 -10 -10 -11 -11 -10 -10 -10
-14 -14 -14 -14 -14 -14 -14 -14 -14 -14 -14 -14 -13 -13 -13 -13 -13 -13 -13 -13 -13 -12 -12 -12 -12 -12 -12 -12 -12 -11 -11 -12 -12 -12 -12 -11 -11 -11 -11 -11 -11 -11 -10 -10
-14 -14 -14 -14 -13 -14 -13 -14 -14 -14 -14 -14 -14 -14 -13 -14 -13 -13 -13 -13 -13 -13 -13 -13 -13 -13 -13 -13 -13 -13 -13 -12 -12 -12 -12 -12 -12 -12 -12 -12 -12 -11 -11 -11

GFSCGP_500_temp_105.txt.gz
Temp
-8 -7 -7 -8 -7 -7 -6 -6 -6 -5 -4 -5 -6 -7 -5 -5 -4 -4 -4 -4 -4 -5 -4 -5 -5 -5 -5 -5 -5 -6 -6 -6 -6 -6 -6 -6 -6 -6 -6 -6 -6 -6 -6 -6
-8 -7 -8 -8 -9 -8 -6 -7 -7 -6 -5 -6 -6 -6 -6 -6 -5 -5 -5 -4 -4 -4 -4 -4 -5 -5 -5 -5 -5 -6 -6 -6 -6 -6 -6 -6 -6 -6 -6 -6 -6 -6 -6 -6
-9 -9 -9 -9 -9 -9 -7 -7 -7 -7 -6 -6 -5 -5 -6 -6 -6 -6 -5 -4 -4 -3 -4 -4 -5 -5 -5 -5 -5 -5 -6 -6 -6 -6 -6 -6 -6 -6 -6 -6 -6 -7 -6 -6
-9 -10 -9 -10 -10 -9 -7 -7 -7 -7 -6 -6 -6 -6 -6 -5 -6 -5 -6 -4 -3 -4 -4 -4 -4 -6 -5 -5 -5 -5 -6 -6 -6 -6 -6 -6 -7 -7 -7 -7 -6 -6 -6 -7
-10 -10 -9 -10 -11 -9 -9 -8 -7 -7 -7 -6 -6 -6 -5 -6 -5 -5 -6 -5 -4 -4 -5 -4 -4 -5 -6 -6 -5 -5 -5 -6 -6 -6 -6 -6 -6 -7 -7 -7 -6 -7 -6 -7
-10 -10 -11 -11 -12 -11 -9 -8 -8 -9 -7 -6 -7 -6 -6 -6 -6 -6 -5 -6 -5 -5 -5 -5 -4 -5 -5 -6 -6 -6 -6 -6 -6 -6 -6 -6 -6 -7 -7 -7 -7 -7 -7 -6
-10 -10 -11 -12 -12 -12 -9 -9 -8 -8 -8 -7 -8 -6 -6 -7 -7 -7 -6 -5 -5 -4 -5 -5 -4 -4 -5 -6 -6 -6 -6 -6 -6 -6 -6 -6 -6 -6 -7 -7 -7 -7 -7 -7
-11 -11 -10 -11 -11 -11 -8 -10 -9 -9 -8 -8 -7 -7 -7 -7 -7 -6 -6 -5 -5 -5 -5 -6 -4 -4 -6 -5 -5 -6 -6 -5 -6 -6 -6 -6 -6 -7 -7 -7 -7 -7 -7 -7
-12 -12 -12 -11 -11 -10 -10 -10 -9 -10 -8 -7 -7 -7 -7 -7 -7 -5 -6 -6 -6 -5 -5 -6 -6 -5 -5 -6 -6 -5 -6 -6 -6 -6 -6 -6 -6 -6 -7 -6 -7 -6 -7 -7
-12 -11 -12 -12 -12 -10 -11 -10 -9 -10 -7 -8 -8 -7 -7 -8 -8 -7 -5 -5 -6 -6 -5 -5 -6 -6 -5 -4 -6 -7 -6 -6 -6 -6 -6 -6 -6 -6 -6 -6 -7 -6 -6 -7
-12 -11 -12 -12 -12 -11 -11 -9 -10 -10 -8 -9 -8 -8 -8 -8 -8 -9 -7 -7 -6 -6 -6 -5 -6 -6 -6 -6 -6 -6 -6 -7 -6 -6 -6 -7 -6 -6 -6 -6 -6 -6 -7 -7
-12 -12 -12 -12 -12 -12 -11 -10 -10 -10 -9 -10 -9 -9 -9 -8 -8 -7 -7 -7 -6 -7 -6 -5 -6 -6 -6 -6 -6 -6 -6 -7 -6 -6 -6 -6 -6 -6 -6 -5 -6 -6 -6 -6
-12 -12 -12 -12 -12 -12 -12 -11 -10 -10 -9 -9 -10 -9 -9 -9 -8 -7 -7 -7 -6 -6 -6 -6 -6 -6 -6 -7 -7 -6 -6 -6 -6 -6 -6 -6 -6 -6 -6 -5 -5 -5 -6 -6
-13 -13 -12 -12 -11 -11 -12 -12 -11 -10 -9 -9 -10 -10 -9 -10 -9 -8 -7 -7 -7 -6 -6 -6 -7 -7 -7 -6 -6 -7 -7 -7 -6 -5 -5 -5 -6 -5 -5 -5 -5 -5 -6 -6
-13 -13 -13 -12 -11 -11 -11 -12 -12 -11 -9 -10 -10 -10 -9 -8 -8 -8 -8 -7 -7 -7 -7 -7 -7 -7 -5 -5 -7 -7 -7 -7 -6 -6 -6 -6 -5 -5 -5 -5 -5 -5 -6 -6
-13 -13 -13 -12 -11 -11 -11 -12 -12 -12 -10 -11 -10 -10 -9 -9 -8 -8 -8 -7 -7 -7 -7 -7 -7 -7 -4 -7 -7 -8 -8 -8 -8 -7 -7 -6 -5 -4 -5 -5 -5 -6 -5 -6
-13 -13 -13 -13 -12 -11 -12 -11 -12 -12 -11 -12 -12 -11 -10 -9 -7 -8 -9 -9 -9 -9 -7 -8 -8 -8 -8 -8 -8 -8 -8 -9 -9 -8 -7 -7 -6 -6 -6 -6 -6 -6 -6 -6
-14 -13 -12 -12 -12 -12 -11 -11 -11 -11 -11 -11 -10 -9 -9 -9 -8 -7 -9 -9 -9 -8 -8 -8 -9 -9 -8 -8 -9 -9 -8 -9 -9 -8 -8 -7 -7 -7 -7 -6 -6 -6 -7 -7
-14 -13 -13 -13 -13 -12 -12 -11 -11 -11 -11 -10 -10 -9 -9 -9 -8 -7 -9 -9 -10 -9 -9 -9 -9 -9 -9 -8 -9 -9 -9 -9 -9 -9 -8 -8 -8 -8 -8 -7 -7 -7 -7 -7
-14 -13 -14 -14 -14 -13 -12 -11 -12 -11 -11 -9 -10 -10 -9 -9 -8 -8 -8 -8 -9 -10 -10 -11 -10 -10 -10 -9 -9 -9 -9 -9 -9 -9 -9 -9 -9 -9 -9 -8 -8 -7 -7 -7
-15 -14 -15 -14 -15 -13 -13 -12 -11 -12 -11 -10 -10 -10 -10 -8 -9 -11 -10 -10 -10 -10 -10 -10 -10 -10 -10 -10 -10 -10 -10 -9 -10 -10 -9 -9 -9 -9 -9 -9 -9 -8 -8 -8
-14 -14 -15 -14 -14 -14 -13 -13 -12 -12 -12 -11 -10 -10 -11 -10 -11 -12 -11 -12 -11 -11 -9 -10 -10 -10 -10 -10 -10 -10 -10 -10 -10 -10 -10 -10 -9 -10 -10 -9 -9 -9 -9 -8
-14 -14 -14 -13 -13 -14 -14 -14 -14 -13 -12 -12 -12 -12 -11 -13 -13 -13 -12 -11 -10 -11 -11 -10 -11 -10 -10 -10 -10 -10 -10 -10 -10 -10 -10 -10 -10 -10 -10 -10 -10 -10 -9 -9
-14 -14 -14 -14 -13 -13 -14 -14 -14 -14 -13 -13 -12 -12 -13 -13 -13 -12 -12 -12 -12 -12 -12 -11 -11 -11 -10 -10 -10 -10 -10 -10 -10 -10 -10 -10 -10 -10 -10 -10 -10 -10 -10 -10
-14 -14 -14 -14 -13 -14 -14 -14 -13 -13 -13 -13 -13 -12 -12 -12 -13 -13 -12 -12 -13 -12 -12 -12 -12 -12 -12 -11 -11 -12 -12 -12 -11 -11 -11 -11 -11 -11 -11 -10 -10 -10 -10 -10
-14 -14 -14 -14 -14 -14 -14 -14 -14 -13 -13 -13 -13 -13 -13 -12 -12 -12 -12 -12 -12 -12 -12 -12 -12 -12 -12 -12 -12 -12 -12 -12 -12 -12 -12 -12 -11 -11 -11 -11 -11 -11 -11 -10

GFSCGP_500_temp_108.txt.gz
Temp
-8 -8 -8 -9 -9 -8 -7 -7 -6 -6 -5 -5 -5 -6 -6 -6 -6 -5 -6 -4 -5 -4 -5 -6 -6 -6 -6 -6 -6 -6 -6 -7 -6 -7 -7 -7 -7 -7 -7 -6 -6 -6 -6 -6
-9 -8 -9 -10 -10 -9 -7 -7 -7 -7 -7 -6 -6 -6 -6 -6 -6 -5 -6 -5 -4 -4 -5 -6 -6 -6 -6 -6 -6 -6 -7 -6 -6 -7 -6 -6 -7 -7 -7 -7 -7 -7 -6 -6
-9 -10 -10 -10 -10 -9 -8 -8 -8 -8 -7 -6 -6 -6 -6 -6 -6 -5 -6 -6 -5 -4 -4 -6 -5 -5 -6 -6 -6 -6 -6 -7 -6 -6 -6 -6 -6 -7 -7 -6 -6 -6 -6 -6
-10 -11 -10 -10 -10 -10 -9 -9 -8 -7 -7 -6 -6 -6 -5 -6 -5 -6 -6 -7 -5 -4 -5 -5 -5 -5 -5 -6 -6 -6 -6 -7 -7 -7 -7 -7 -7 -7 -7 -7 -7 -6 -6 -7
-11 -11 -12 -11 -11 -10 -10 -9 -8 -7 -7 -7 -6 -7 -6 -5 -5 -5 -6 -6 -5 -4 -5 -5 -6 -5 -5 -5 -5 -6 -6 -6 -7 -7 -7 -7 -7 -7 -7 -7 -7 -7 -6 -6
-11 -11 -11 -11 -11 -11 -10 -9 -8 -8 -8 -7 -6 -6 -6 -5 -5 -6 -6 -5 -5 -6 -5 -5 -5 -6 -4 -5 -5 -6 -6 -6 -6 -7 -7 -7 -7 -7 -7 -7 -7 -7 -7 -7
-11 -11 -12 -11 -11 -11 -11 -10 -9 -8 -8 -8 -8 -6 -7 -6 -5 -5 -6 -6 -6 -6 -6 -5 -6 -6 -5 -5 -5 -5 -6 -6 -6 -6 -6 -7 -7 -7 -7 -7 -7 -7 -7 -6
-11 -11 -12 -12 -12 -11 -10 -11 -10 -10 -9 -8 -8 -7 -7 -6 -6 -6 -5 -5 -6 -4 -6 -5 -5 -6 -6 -5 -5 -5 -6 -6 -6 -6 -6 -6 -6 -7 -7 -6 -6 -7 -6 -6
-12 -12 -12 -13 -12 -12 -11 -10 -10 -9 -9 -8 -7 -7 -6 -7 -6 -7 -5 -5 -5 -6 -7 -6 -6 -6 -6 -5 -5 -5 -5 -6 -6 -6 -6 -6 -6 -6 -7 -7 -6 -6 -7 -6
-12 -12 -12 -12 -12 -12 -11 -11 -10 -10 -9 -8 -7 -8 -7 -7 -7 -6 -5 -5 -5 -6 -6 -6 -6 -6 -7 -6 -6 -5 -6 -6 -6 -6 -5 -6 -6 -6 -6 -6 -7 -7 -7 -7
-13 -12 -12 -12 -12 -11 -11 -10 -10 -10 -9 -8 -9 -9 -9 -8 -7 -7 -6 -5 -5 -6 -7 -6 -6 -6 -7 -7 -6 -6 -6 -6 -6 -6 -6 -5 -6 -6 -6 -6 -6 -6 -6 -6
-13 -12 -12 -12 -12 -11 -11 -11 -11 -10 -10 -10 -10 -8 -9 -9 -8 -8 -8 -6 -6 -7 -7 -7 -7 -7 -6 -6 -7 -7 -6 -6 -5 -5 -6 -6 -6 -6 -6 -6 -6 -6 -6 -6
-13 -12 -12 -13 -12 -12 -12 -12 -11 -10 -11 -10 -10 -9 -7 -8 -7 -7 -7 -7 -7 -7 -6 -7 -6 -6 -7 -6 -6 -6 -7 -6 -6 -6 -6 -6 -6 -6 -6 -6 -6 -6 -6 -6
-13 -13 -12 -12 -12 -11 -12 -12 -12 -11 -11 -11 -11 -10 -9 -7 -7 -7 -8 -7 -7 -8 -8 -6 -7 -6 -6 -6 -6 -6 -6 -6 -6 -6 -6 -6 -6 -6 -6 -5 -6 -6 -6 -6
-13 -13 -13 -12 -12 -11 -11 -11 -11 -11 -10 -10 -10 -9 -8 -8 -7 -7 -8 -7 -7 -7 -7 -7 -7 -7 -7 -6 -6 -6 -7 -7 -6 -6 -6 -7 -6 -6 -6 -6 -6 -6 -6 -6
-14 -13 -13 -12 -12 -12 -12 -11 -11 -11 -10 -9 -9 -9 -6 -8 -7 -6 -6 -7 -8 -8 -8 -8 -7 -7 -7 -6 -7 -7 -6 -7 -7 -7 -7 -7 -6 -5 -5 -6 -6 -6 -6 -6
-14 -14 -13 -12 -12 -12 -12 -12 -11 -11 -10 -10 -9 -9 -8 -8 -9 -8 -8 -7 -8 -9 -9 -8 -8 -7 -7 -6 -7 -6 -7 -7 -7 -8 -8 -7 -7 -6 -6 -6 -6 -6 -6 -6
-13 -13 -13 -13 -13 -13 -13 -12 -12 -11 -10 -10 -9 -9 -9 -9 -8 -8 -9 -9 -8 -8 -9 -9 -8 -8 -7 -8 -7 -7 -5 -7 -8 -8 -8 -8 -7 -7 -7 -7 -6 -6 -7 -7
-13 -13 -13 -13 -13 -12 -12 -12 -12 -11 -11 -11 -10 -10 -9 -9 -9 -9 -8 -9 -9 -8 -8 -8 -8 -8 -8 -8 -9 -8 -8 -7 -8 -8 -8 -8 -8 -8 -8 -7 -7 -7 -7 -7
-13 -13 -13 -13 -13 -13 -13 -12 -12 -12 -12 -11 -10 -10 -9 -9 -9 -9 -10 -10 -10 -11 -9 -9 -9 -8 -8 -9 -9 -9 -9 -8 -9 -9 -8 -9 -9 -9 -9 -8 -8 -8 -8 -8
-14 -14 -13 -13 -13 -13 -13 -13 -12 -12 -11 -11 -11 -10 -10 -10 -10 -10 -10 -10 -10 -11 -11 -11 -10 -10 -10 -9 -9 -9 -10 -10 -9 -9 -9 -9 -10 -9 -9 -9 -9 -9 -9 -8
-14 -14 -14 -14 -14 -14 -14 -13 -13 -12 -12 -12 -11 -11 -11 -11 -10 -10 -10 -11 -11 -11 -12 -12 -11 -11 -10 -10 -10 -10 -10 -10 -10 -10 -10 -10 -9 -9 -9 -9 -9 -9 -9 -9
-14 -14 -14 -15 -15 -14 -14 -14 -13 -13 -12 -12 -12 -12 -11 -11 -10 -11 -11 -11 -11 -12 -12 -12 -11 -11 -10 -10 -10 -10 -10 -10 -10 -10 -10 -10 -10 -10 -10 -10 -9 -9 -9 -9
-13 -14 -14 -14 -15 -14 -14 -15 -14 -13 -13 -12 -12 -11 -12 -12 -12 -12 -13 -13 -12 -12 -12 -12 -11 -11 -10 -10 -10 -10 -10 -11 -11 -11 -10 -10 -10 -10 -10 -10 -10 -10 -10 -10
-14 -14 -14 -14 -14 -14 -14 -14 -14 -14 -13 -13 -11 -12 -12 -12 -13 -13 -13 -13 -12 -12 -12 -11 -11 -11 -12 -12 -11 -11 -11 -11 -11 -11 -11 -11 -11 -11 -11 -11 -11 -10 -10 -10
-14 -14 -14 -14 -14 -14 -14 -14 -14 -14 -13 -13 -13 -12 -11 -12 -13 -13 -13 -13 -13 -12 -12 -12 -12 -12 -12 -12 -12 -12 -12 -12 -12 -12 -12 -12 -12 -12 -12 -12 -12 -12 -11 -11

GFSCGP_500_temp_111.txt.gz
Temp
-8 -8 -8 -8 -8 -9 -8 -7 -7 -7 -7 -6 -6 -6 -6 -6 -6 -6 -5 -5 -6 -6 -6 -5 -6 -6 -6 -6 -6 -7 -7 -7 -7 -7 -7 -7 -7 -7 -7 -7 -7 -7 -7 -7
-9 -9 -9 -9 -9 -10 -8 -9 -8 -8 -7 -6 -6 -5 -5 -6 -6 -6 -5 -6 -5 -6 -5 -5 -6 -6 -6 -6 -6 -7 -7 -7 -7 -7 -7 -7 -6 -6 -6 -6 -6 -7 -7 -7
-9 -10 -10 -10 -9 -10 -9 -9 -8 -8 -8 -7 -7 -6 -5 -6 -5 -6 -6 -6 -5 -6 -6 -6 -5 -6 -5 -6 -6 -7 -6 -6 -7 -7 -7 -7 -7 -7 -7 -6 -6 -7 -6 -7
-10 -11 -10 -10 -10 -11 -9 -10 -9 -9 -8 -8 -7 -6 -5 -5 -6 -6 -7 -7 -6 -6 -6 -6 -5 -6 -5 -6 -6 -6 -7 -6 -7 -7 -7 -7 -7 -7 -7 -7 -7 -7 -7 -7
-11 -11 -11 -10 -11 -11 -10 -10 -10 -9 -8 -8 -7 -7 -6 -5 -5 -6 -7 -6 -6 -6 -6 -6 -6 -6 -6 -5 -6 -6 -6 -7 -6 -7 -7 -7 -7 -7 -7 -7 -7 -7 -7 -6
-12 -11 -11 -11 -12 -11 -11 -11 -10 -9 -8 -7 -6 -6 -6 -6 -6 -6 -6 -6 -7 -5 -7 -6 -5 -5 -6 -6 -5 -6 -6 -6 -6 -7 -7 -7 -7 -8 -7 -7 -7 -7 -7 -6
-12 -12 -12 -12 -12 -11 -11 -10 -10 -9 -9 -8 -7 -6 -6 -5 -6 -5 -6 -6 -6 -6 -7 -6 -5 -6 -5 -6 -6 -6 -5 -6 -6 -6 -7 -7 -7 -7 -7 -7 -7 -7 -7 -7
-12 -12 -12 -12 -12 -12 -11 -10 -10 -9 -9 -8 -8 -7 -6 -5 -5 -5 -6 -6 -6 -6 -6 -7 -7 -6 -5 -6 -6 -6 -5 -5 -5 -6 -6 -6 -7 -7 -7 -7 -7 -7 -7 -7
-13 -13 -12 -12 -13 -12 -12 -11 -11 -10 -9 -8 -8 -8 -6 -6 -6 -6 -6 -6 -6 -5 -7 -6 -7 -6 -5 -5 -6 -6 -6 -5 -5 -5 -6 -6 -6 -6 -7 -7 -7 -7 -7 -7
-13 -13 -13 -12 -12 -12 -12 -12 -11 -11 -9 -8 -9 -9 -8 -6 -6 -6 -6 -6 -6 -6 -6 -6 -7 -7 -6 -6 -6 -6 -6 -6 -5 -5 -6 -6 -6 -6 -6 -6 -7 -7 -7 -7
-13 -13 -13 -13 -12 -12 -11 -11 -11 -11 -10 -8 -9 -9 -9 -8 -8 -8 -8 -7 -6 -6 -6 -6 -6 -8 -8 -7 -6 -6 -7 -6 -6 -6 -5 -6 -6 -5 -6 -6 -6 -6 -6 -6
-13 -13 -13 -13 -13 -12 -12 -12 -12 -12 -10 -9 -9 -8 -9 -9 -8 -8 -8 -7 -6 -5 -5 -7 -7 -7 -8 -8 -6 -6 -7 -7 -6 -6 -6 -5 -5 -6 -6 -5 -6 -6 -6 -6
-13 -13 -13 -13 -13 -12 -13 -12 -11 -11 -10 -9 -8 -8 -8 -8 -8 -8 -8 -7 -7 -5 -6 -6 -6 -6 -8 -8 -7 -6 -7 -7 -6 -6 -6 -6 -6 -6 -6 -6 -6 -6 -6 -6
-14 -13 -13 -13 -12 -12 -12 -12 -12 -11 -11 -9 -7 -8 -7 -9 -7 -7 -7 -8 -7 -7 -7 -6 -6 -7 -7 -6 -7 -6 -6 -7 -6 -6 -6 -6 -6 -6 -6 -6 -6 -6 -6 -6
-14 -13 -13 -13 -12 -12 -12 -12 -12 -11 -11 -9 -8 -8 -9 -9 -9 -8 -7 -8 -9 -7 -7 -7 -7 -7 -6 -6 -6 -6 -6 -6 -6 -6 -6 -6 -6 -6 -6 -6 -6 -6 -6 -6
-14 -14 -13 -13 -12 -12 -12 -11 -11 -10 -10 -9 -9 -9 -10 -9 -9 -9 -9 -7 -7 -7 -6 -7 -7 -7 -7 -7 -7 -6 -5 -6 -6 -7 -6 -6 -6 -6 -6 -7 -6 -7 -7 -7
-14 -13 -14 -13 -12 -12 -11 -11 -11 -10 -10 -10 -9 -9 -10 -10 -9 -9 -9 -8 -7 -7 -7 -7 -5 -6 -8 -7 -7 -7 -7 -7 -6 -7 -7 -6 -6 -7 -8 -8 -7 -7 -7 -6
-15 -15 -14 -13 -13 -12 -12 -11 -11 -11 -10 -10 -10 -9 -10 -10 -11 -9 -9 -9 -8 -8 -8 -7 -7 -8 -7 -7 -7 -7 -7 -7 -7 -7 -7 -7 -7 -8 -8 -8 -8 -7 -7 -7
-14 -14 -14 -13 -14 -12 -12 -12 -11 -12 -10 -10 -11 -10 -10 -10 -10 -10 -9 -8 -8 -9 -8 -7 -7 -7 -7 -7 -7 -7 -7 -7 -7 -7 -7 -8 -8 -8 -8 -9 -8 -7 -7 -7
-14 -14 -14 -14 -13 -12 -12 -13 -13 -12 -12 -11 -11 -11 -11 -10 -11 -11 -10 -9 -9 -9 -8 -8 -8 -8 -8 -8 -8 -7 -7 -7 -7 -7 -7 -8 -8 -8 -9 -8 -8 -8 -9 -8
-14 -13 -14 -14 -13 -13 -12 -12 -12 -12 -12 -12 -12 -11 -11 -11 -11 -11 -10 -10 -10 -10 -9 -9 -9 -9 -9 -9 -9 -9 -9 -9 -8 -8 -8 -8 -9 -9 -9 -9 -9 -9 -9 -9
-15 -14 -14 -14 -14 -13 -13 -13 -12 -12 -12 -12 -12 -12 -12 -12 -12 -11 -11 -10 -10 -10 -10 -10 -10 -10 -10 -10 -10 -10 -10 -10 -9 -9 -9 -9 -10 -10 -10 -10 -10 -10 -10 -9
-15 -14 -14 -15 -14 -14 -14 -13 -13 -13 -13 -13 -13 -12 -12 -12 -12 -11 -11 -11 -11 -11 -11 -11 -10 -11 -11 -11 -11 -10 -10 -10 -10 -10 -11 -11 -11 -11 -10 -10 -10 -10 -10 -10
-14 -14 -14 -14 -14 -14 -14 -14 -14 -14 -13 -13 -12 -13 -12 -12 -12 -12 -11 -11 -12 -11 -11 -11 -11 -11 -11 -11 -10 -10 -10 -10 -10 -10 -11 -11 -11 -10 -10 -10 -10 -10 -10 -10
-14 -14 -14 -14 -14 -15 -15 -15 -14 -14 -13 -12 -12 -13 -12 -12 -12 -12 -12 -12 -12 -12 -12 -12 -11 -11 -11 -10 -10 -11 -11 -11 -12 -12 -12 -11 -11 -11 -11 -11 -10 -10 -10 -10
-14 -14 -14 -14 -14 -14 -14 -14 -13 -13 -14 -13 -13 -13 -13 -13 -12 -13 -13 -12 -12 -12 -12 -12 -12 -12 -11 -11 -11 -11 -11 -11 -11 -11 -12 -12 -12 -12 -12 -12 -12 -12 -11 -11

GFSCGP_500_temp_114.txt.gz
Temp
-6 -7 -8 -8 -8 -8 -7 -6 -6 -6 -6 -7 -5 -6 -6 -6 -6 -5 -6 -7 -7 -7 -7 -7 -7 -6 -7 -7 -7 -7 -7 -7 -8 -7 -7 -7 -7 -7 -7 -7 -7 -7 -7 -7
-8 -8 -9 -9 -9 -9 -8 -7 -6 -6 -7 -6 -6 -6 -6 -6 -6 -4 -6 -6 -7 -7 -7 -7 -7 -6 -6 -7 -7 -7 -7 -7 -7 -7 -7 -7 -7 -6 -6 -7 -7 -7 -7 -7
-9 -10 -10 -10 -9 -10 -9 -8 -7 -7 -7 -7 -6 -6 -6 -6 -6 -5 -6 -6 -6 -7 -7 -7 -6 -6 -6 -6 -6 -6 -6 -7 -7 -7 -7 -7 -7 -7 -7 -7 -7 -7 -7 -7
-10 -10 -10 -10 -10 -10 -10 -9 -9 -8 -8 -8 -7 -7 -6 -6 -6 -6 -7 -6 -6 -6 -6 -6 -6 -6 -6 -6 -6 -6 -6 -7 -6 -7 -7 -7 -7 -7 -7 -7 -7 -7 -7 -7
-10 -10 -10 -10 -10 -11 -10 -10 -9 -9 -9 -9 -8 -7 -7 -6 -6 -6 -6 -6 -6 -7 -6 -6 -6 -6 -6 -6 -6 -6 -6 -6 -6 -6 -7 -7 -7 -7 -7 -7 -7 -7 -7 -7
-11 -11 -11 -11 -11 -11 -11 -10 -10 -11 -9 -9 -8 -7 -7 -6 -6 -6 -6 -6 -7 -7 -6 -5 -6 -5 -6 -6 -6 -6 -6 -6 -6 -6 -6 -7 -7 -8 -7 -7 -7 -7 -7 -6
-12 -12 -12 -12 -12 -11 -11 -10 -10 -10 -9 -9 -8 -7 -7 -6 -6 -5 -6 -6 -7 -6 -6 -5 -5 -6 -6 -6 -6 -6 -7 -6 -6 -6 -6 -7 -7 -7 -7 -7 -7 -7 -7 -7
-13 -13 -12 -12 -12 -12 -12 -12 -11 -11 -10 -8 -8 -8 -8 -8 -5 -6 -4 -4 -6 -6 -7 -6 -6 -6 -6 -6 -6 -6 -6 -6 -7 -6 -6 -7 -7 -6 -7 -7 -8 -7 -7 -7
-13 -13 -13 -13 -13 -13 -12 -11 -11 -11 -9 -9 -9 -8 -8 -7 -6 -5 -3 -4 -5 -6 -6 -6 -6 -6 -5 -6 -6 -6 -7 -6 -6 -6 -6 -6 -6 -6 -6 -7 -7 -7 -7 -7
-13 -13 -13 -13 -13 -12 -12 -12 -11 -11 -10 -10 -9 -8 -8 -6 -6 -5 -3 -4 -6 -7 -6 -6 -6 -6 -5 -6 -7 -6 -7 -6 -6 -6 -6 -6 -6 -6 -6 -6 -6 -7 -7 -7
-13 -13 -13 -13 -13 -13 -12 -12 -11 -11 -11 -10 -9 -9 -8 -8 -7 -6 -6 -6 -6 -6 -6 -6 -6 -6 -7 -6 -6 -6 -6 -6 -6 -7 -6 -6 -6 -5 -6 -6 -6 -6 -6 -6
-14 -14 -14 -14 -13 -13 -13 -12 -12 -11 -11 -10 -9 -9 -10 -8 -9 -8 -8 -7 -6 -6 -6 -6 -6 -6 -7 -7 -6 -6 -6 -6 -6 -7 -6 -6 -6 -6 -6 -6 -6 -6 -6 -6
-14 -14 -14 -14 -13 -13 -13 -12 -12 -11 -11 -10 -10 -10 -10 -9 -9 -9 -9 -9 -8 -8 -6 -6 -6 -6 -6 -7 -6 -6 -6 -6 -6 -6 -7 -7 -7 -6 -6 -6 -6 -6 -6 -6
-14 -14 -14 -14 -13 -13 -13 -12 -12 -11 -11 -11 -11 -11 -10 -10 -9 -9 -9 -9 -9 -7 -7 -6 -7 -7 -7 -7 -7 -7 -6 -6 -6 -5 -6 -7 -7 -7 -6 -6 -6 -6 -6 -6
-14 -14 -14 -14 -14 -13 -12 -12 -12 -11 -11 -12 -12 -11 -10 -10 -9 -8 -8 -8 -8 -8 -7 -7 -7 -7 -6 -6 -7 -6 -7 -7 -7 -6 -6 -7 -6 -7 -7 -7 -6 -6 -6 -6
-15 -15 -14 -14 -14 -13 -13 -12 -12 -11 -10 -11 -12 -12 -11 -10 -10 -9 -8 -8 -8 -7 -7 -7 -7 -7 -7 -6 -7 -7 -7 -7 -6 -6 -6 -6 -6 -6 -7 -6 -6 -7 -6 -6
-16 -16 -15 -14 -14 -14 -12 -13 -12 -11 -11 -11 -11 -12 -12 -11 -10 -9 -9 -8 -8 -8 -7 -8 -7 -7 -7 -7 -7 -7 -7 -7 -6 -6 -6 -6 -7 -6 -6 -6 -6 -6 -6 -6
-16 -15 -15 -14 -14 -14 -13 -13 -12 -12 -11 -11 -11 -12 -12 -12 -11 -10 -10 -9 -9 -9 -8 -8 -8 -7 -8 -8 -7 -7 -7 -6 -6 -7 -6 -6 -7 -7 -6 -6 -6 -6 -7 -7
-15 -15 -15 -14 -14 -13 -13 -13 -12 -12 -11 -11 -11 -11 -12 -12 -11 -11 -11 -10 -10 -9 -9 -9 -8 -9 -8 -8 -7 -7 -7 -7 -6 -7 -7 -7 -6 -6 -7 -7 -7 -7 -8 -7
-15 -15 -14 -15 -14 -13 -13 -12 -13 -12 -12 -12 -12 -12 -12 -11 -11 -11 -11 -11 -10 -10 -10 -9 -9 -9 -8 -8 -8 -7 -7 -7 -7 -7 -7 -7 -7 -7 -7 -7 -7 -7 -8 -8
-14 -14 -14 -14 -14 -14 -14 -13 -13 -13 -13 -12 -12 -13 -12 -12 -12 -12 -11 -11 -11 -10 -10 -10 -9 -9 -8 -8 -8 -8 -8 -7 -7 -7 -7 -7 -7 -7 -7 -7 -7 -8 -9 -9
-14 -14 -14 -14 -14 -14 -14 -14 -14 -14 -13 -13 -12 -12 -12 -12 -12 -12 -12 -12 -12 -11 -10 -10 -9 -9 -9 -9 -8 -9 -8 -8 -8 -8 -8 -7 -7 -6 -8 -8 -8 -9 -8 -9
-14 -14 -14 -14 -14 -14 -14 -14 -13 -14 -14 -13 -13 -12 -12 -12 -12 -12 -12 -11 -11 -11 -11 -11 -10 -11 -9 -9 -10 -9 -10 -9 -9 -9 -8 -8 -8 -8 -9 -9 -10 -10 -10 -10
-14 -14 -14 -14 -14 -14 -14 -14 -14 -14 -13 -13 -13 -13 -13 -12 -12 -12 -12 -12 -11 -11 -12 -11 -11 -11 -11 -11 -10 -11 -10 -10 -10 -10 -9 -9 -10 -10 -11 -10 -10 -10 -10 -10
-14 -14 -14 -14 -14 -15 -15 -15 -15 -14 -13 -13 -13 -13 -13 -13 -12 -13 -12 -12 -12 -12 -11 -11 -10 -10 -11 -10 -11 -11 -11 -10 -10 -10 -10 -10 -10 -10 -11 -10 -10 -10 -10 -10
-14 -14 -14 -14 -14 -14 -15 -15 -15 -15 -14 -15 -14 -14 -13 -13 -13 -13 -13 -13 -13 -12 -11 -11 -11 -11 -11 -11 -12 -12 -11 -10 -10 -10 -10 -11 -11 -11 -11 -11 -11 -11 -11 -11

GFSCGP_500_temp_117.txt.gz
Temp
-5 -6 -7 -7 -7 -7 -7 -6 -6 -6 -5 -6 -6 -6 -6 -6 -6 -7 -6 -6 -5 -6 -6 -7 -7 -7 -6 -6 -6 -6 -7 -7 -7 -7 -7 -7 -7 -7 -7 -7 -8 -8 -7 -7
-6 -7 -7 -7 -8 -8 -8 -8 -7 -7 -6 -6 -6 -6 -6 -6 -6 -6 -6 -6 -5 -5 -6 -6 -7 -7 -6 -6 -6 -6 -7 -7 -7 -7 -7 -7 -7 -7 -7 -7 -7 -8 -7 -7
-7 -8 -7 -7 -7 -9 -9 -9 -8 -8 -7 -7 -6 -6 -6 -6 -6 -6 -6 -6 -6 -6 -6 -6 -7 -7 -7 -6 -6 -6 -7 -7 -6 -7 -7 -7 -7 -7 -7 -7 -7 -7 -7 -7
-8 -8 -8 -8 -8 -9 -9 -9 -9 -9 -8 -8 -8 -7 -7 -6 -6 -6 -6 -6 -6 -6 -5 -5 -6 -7 -7 -6 -6 -6 -6 -6 -6 -6 -6 -7 -7 -7 -7 -7 -7 -6 -7 -7
-9 -9 -9 -9 -10 -10 -10 -10 -9 -9 -9 -9 -8 -8 -7 -6 -6 -6 -6 -6 -6 -6 -6 -6 -6 -6 -7 -6 -6 -6 -6 -6 -6 -6 -6 -7 -7 -7 -7 -7 -7 -7 -7 -6
-9 -9 -9 -10 -11 -10 -11 -10 -10 -10 -10 -9 -9 -8 -8 -7 -6 -6 -6 -6 -6 -6 -5 -5 -6 -6 -6 -6 -6 -7 -6 -6 -6 -6 -6 -6 -6 -6 -7 -7 -6 -6 -7 -7
-9 -9 -10 -11 -11 -11 -11 -11 -10 -11 -10 -10 -10 -9 -8 -7 -6 -7 -7 -6 -6 -6 -4 -4 -5 -5 -6 -6 -6 -7 -7 -7 -7 -6 -6 -6 -6 -6 -6 -6 -7 -7 -7 -7
-11 -11 -11 -11 -11 -11 -12 -11 -11 -11 -11 -10 -9 -9 -8 -7 -6 -5 -6 -6 -6 -6 -5 -4 -5 -6 -6 -6 -6 -6 -7 -7 -7 -6 -7 -7 -7 -7 -6 -6 -6 -7 -6 -6
-11 -12 -12 -12 -12 -12 -12 -11 -12 -12 -11 -10 -9 -9 -9 -9 -7 -6 -6 -6 -6 -6 -6 -5 -4 -5 -5 -5 -6 -6 -6 -7 -7 -7 -7 -7 -7 -7 -6 -6 -7 -6 -6 -6
-12 -12 -12 -13 -12 -13 -12 -12 -12 -12 -11 -11 -10 -10 -10 -9 -7 -7 -7 -6 -6 -7 -6 -5 -5 -5 -6 -6 -6 -5 -6 -6 -6 -7 -7 -7 -7 -7 -7 -7 -7 -7 -6 -6
-13 -13 -13 -13 -13 -13 -13 -12 -12 -12 -11 -11 -10 -10 -10 -9 -9 -7 -7 -5 -7 -6 -7 -6 -6 -6 -6 -6 -6 -5 -6 -5 -6 -7 -7 -7 -7 -7 -7 -7 -7 -7 -7 -7
-13 -13 -13 -13 -13 -13 -13 -13 -12 -12 -12 -11 -11 -10 -10 -10 -10 -9 -8 -6 -5 -5 -6 -7 -6 -6 -6 -6 -6 -6 -5 -6 -5 -6 -6 -6 -7 -7 -6 -6 -6 -7 -7 -7
-13 -14 -13 -14 -14 -14 -13 -13 -13 -12 -12 -12 -11 -11 -10 -10 -10 -9 -9 -8 -7 -6 -6 -6 -6 -7 -7 -6 -6 -6 -6 -6 -5 -5 -5 -6 -6 -6 -7 -6 -6 -6 -6 -6
-13 -14 -14 -14 -14 -14 -14 -13 -13 -12 -12 -12 -11 -11 -11 -10 -10 -10 -10 -9 -8 -8 -7 -6 -7 -7 -6 -6 -7 -6 -6 -6 -5 -5 -6 -5 -6 -6 -6 -6 -6 -6 -6 -6
-14 -14 -14 -14 -14 -14 -14 -13 -13 -12 -12 -12 -12 -11 -12 -11 -11 -10 -10 -9 -9 -9 -8 -7 -6 -6 -7 -6 -6 -6 -6 -7 -6 -6 -6 -6 -6 -6 -6 -6 -6 -6 -6 -7
-14 -15 -15 -15 -15 -14 -14 -14 -13 -13 -13 -12 -12 -11 -12 -12 -11 -11 -10 -9 -9 -9 -9 -7 -7 -7 -6 -6 -7 -7 -7 -7 -7 -6 -6 -6 -6 -7 -7 -7 -6 -6 -6 -6
-15 -15 -15 -15 -15 -14 -14 -13 -13 -13 -13 -13 -12 -11 -12 -12 -11 -11 -11 -10 -10 -9 -9 -8 -9 -7 -7 -7 -7 -7 -7 -7 -6 -6 -7 -7 -6 -6 -6 -6 -6 -6 -6 -6
-15 -15 -15 -15 -16 -14 -14 -14 -14 -13 -13 -13 -12 -12 -11 -11 -11 -11 -11 -10 -10 -9 -8 -8 -8 -8 -7 -7 -7 -7 -6 -7 -7 -7 -6 -6 -7 -6 -6 -6 -6 -6 -6 -6
-15 -15 -15 -15 -15 -14 -13 -14 -13 -14 -14 -13 -13 -12 -11 -11 -11 -11 -11 -10 -10 -10 -9 -8 -8 -8 -9 -8 -8 -7 -7 -7 -7 -7 -7 -6 -6 -6 -7 -6 -7 -7 -6 -6
-14 -14 -15 -15 -15 -14 -13 -14 -14 -13 -13 -13 -13 -13 -13 -12 -11 -11 -11 -11 -11 -11 -10 -10 -10 -10 -9 -9 -8 -8 -8 -7 -7 -7 -7 -6 -6 -6 -7 -7 -6 -7 -7 -7
-15 -15 -14 -14 -14 -14 -15 -14 -13 -13 -13 -13 -13 -13 -13 -12 -12 -12 -11 -11 -12 -11 -10 -10 -10 -9 -9 -9 -9 -9 -8 -8 -8 -7 -7 -7 -7 -7 -7 -7 -7 -7 -7 -7
-14 -14 -14 -14 -14 -14 -14 -14 -13 -13 -13 -13 -13 -13 -12 -11 -12 -12 -12 -12 -11 -11 -11 -11 -10 -10 -9 -9 -9 -9 -8 -8 -8 -8 -7 -7 -7 -7 -7 -7 -7 -7 -7 -7
-14 -14 -14 -14 -14 -14 -13 -13 -13 -13 -13 -12 -13 -13 -12 -12 -12 -12 -12 -12 -11 -11 -12 -11 -11 -10 -10 -9 -9 -9 -9 -9 -9 -8 -9 -8 -8 -8 -8 -7 -8 -8 -8 -8
-14 -14 -14 -14 -14 -14 -14 -14 -14 -14 -14 -13 -13 -13 -13 -13 -13 -13 -12 -12 -12 -12 -11 -11 -11 -10 -10 -10 -10 -10 -10 -10 -9 -9 -9 -9 -8 -8 -8 -9 -8 -9 -9 -9
-14 -14 -14 -14 -14 -14 -14 -15 -15 -14 -14 -14 -13 -13 -13 -13 -13 -12 -12 -12 -12 -12 -11 -11 -11 -10 -10 -10 -11 -10 -10 -10 -10 -11 -10 -10 -9 -9 -9 -9 -9 -10 -10 -11
-14 -14 -14 -14 -14 -14 -14 -15 -15 -15 -15 -14 -14 -13 -13 -13 -13 -13 -13 -13 -12 -12 -11 -11 -11 -10 -10 -10 -10 -10 -10 -10 -11 -11 -11 -11 -11 -11 -10 -10 -11 -11 -11 -11

GFSCGP_500_temp_120.txt.gz
Temp
-5 -5 -6 -5 -6 -6 -6 -6 -6 -6 -6 -6 -5 -5 -6 -6 -6 -6 -6 -6 -6 -6 -5 -6 -6 -7 -7 -7 -6 -6 -6 -7 -7 -7 -7 -7 -7 -8 -8 -8 -8 -8 -7 -7
-5 -6 -5 -5 -6 -7 -7 -7 -7 -7 -6 -6 -6 -6 -6 -6 -6 -6 -6 -6 -6 -5 -5 -5 -6 -6 -7 -7 -6 -6 -6 -6 -7 -7 -7 -7 -7 -7 -7 -8 -7 -7 -7 -7
-5 -5 -5 -6 -7 -7 -7 -7 -7 -7 -7 -6 -7 -6 -6 -6 -6 -6 -6 -6 -5 -6 -6 -5 -5 -5 -7 -7 -6 -6 -6 -6 -6 -7 -7 -7 -7 -7 -7 -7 -7 -7 -7 -7
-6 -6 -6 -7 -7 -8 -8 -8 -8 -8 -8 -7 -7 -7 -7 -6 -6 -5 -6 -5 -5 -6 -6 -5 -5 -5 -6 -7 -7 -6 -6 -6 -6 -6 -7 -7 -7 -7 -7 -7 -7 -7 -7 -7
-6 -7 -7 -7 -8 -8 -9 -9 -9 -8 -8 -8 -8 -8 -7 -7 -7 -6 -6 -6 -6 -6 -5 -6 -5 -5 -5 -6 -6 -6 -6 -6 -6 -6 -6 -6 -6 -7 -7 -7 -7 -7 -7 -6
-7 -7 -7 -8 -8 -9 -9 -10 -10 -9 -8 -9 -10 -9 -8 -8 -7 -7 -6 -6 -6 -7 -5 -6 -6 -5 -5 -5 -6 -6 -6 -6 -6 -6 -6 -6 -6 -6 -6 -6 -7 -7 -7 -7
-8 -8 -8 -9 -9 -10 -10 -10 -11 -10 -10 -9 -10 -9 -9 -9 -8 -7 -5 -6 -7 -6 -6 -5 -6 -6 -5 -5 -5 -6 -6 -6 -6 -6 -6 -6 -6 -6 -6 -6 -6 -6 -6 -6
-9 -9 -9 -9 -10 -10 -11 -11 -12 -11 -10 -10 -10 -9 -10 -9 -8 -7 -6 -7 -6 -6 -6 -5 -5 -6 -6 -6 -5 -5 -6 -6 -6 -7 -6 -6 -6 -6 -6 -6 -6 -6 -6 -6
-10 -11 -10 -10 -11 -11 -12 -11 -12 -12 -11 -12 -11 -10 -10 -10 -9 -7 -6 -7 -7 -7 -6 -5 -6 -6 -6 -6 -5 -5 -5 -6 -6 -6 -7 -7 -6 -6 -6 -6 -6 -6 -6 -6
-10 -11 -11 -11 -11 -11 -12 -12 -12 -11 -12 -11 -11 -11 -10 -9 -9 -8 -6 -7 -7 -6 -6 -6 -6 -6 -6 -6 -6 -5 -5 -5 -5 -6 -6 -7 -7 -7 -7 -7 -7 -7 -7 -7
-11 -12 -13 -12 -12 -13 -13 -12 -12 -12 -12 -11 -10 -10 -10 -9 -9 -9 -8 -7 -6 -7 -6 -6 -6 -7 -7 -6 -6 -6 -5 -5 -5 -6 -6 -6 -6 -7 -7 -7 -7 -7 -7 -7
-11 -12 -14 -14 -13 -13 -12 -13 -12 -12 -12 -12 -11 -10 -10 -9 -9 -10 -8 -7 -7 -6 -6 -7 -6 -6 -6 -6 -5 -6 -5 -5 -5 -5 -5 -5 -6 -6 -6 -7 -7 -7 -7 -6
-12 -13 -13 -14 -14 -13 -13 -13 -13 -13 -12 -12 -11 -10 -9 -10 -9 -10 -9 -9 -7 -8 -7 -7 -6 -6 -6 -6 -6 -5 -6 -5 -5 -5 -5 -5 -5 -6 -6 -6 -6 -6 -7 -6
-12 -13 -13 -14 -13 -12 -12 -13 -13 -13 -13 -12 -12 -11 -11 -11 -9 -10 -10 -9 -8 -8 -7 -7 -6 -6 -6 -6 -6 -6 -6 -6 -5 -5 -5 -5 -5 -5 -5 -5 -5 -6 -6 -6
-13 -13 -14 -14 -14 -13 -13 -14 -13 -13 -13 -13 -12 -12 -12 -12 -11 -11 -10 -10 -10 -9 -7 -7 -7 -7 -6 -6 -6 -6 -6 -6 -5 -5 -5 -6 -5 -6 -6 -6 -6 -5 -6 -6
-14 -14 -14 -14 -15 -14 -15 -14 -13 -13 -13 -13 -13 -12 -11 -12 -12 -10 -10 -10 -10 -11 -9 -8 -7 -6 -6 -6 -6 -6 -6 -6 -6 -6 -6 -6 -6 -6 -6 -6 -6 -6 -6 -6
-14 -14 -14 -16 -16 -16 -16 -15 -15 -14 -14 -13 -13 -12 -12 -12 -12 -11 -10 -10 -10 -11 -11 -8 -7 -6 -6 -6 -6 -6 -6 -6 -6 -5 -6 -7 -6 -6 -6 -6 -6 -6 -6 -6
-14 -14 -14 -15 -14 -14 -16 -15 -14 -14 -14 -13 -13 -12 -12 -13 -12 -11 -10 -10 -10 -10 -10 -9 -8 -8 -7 -6 -6 -6 -6 -6 -6 -6 -7 -7 -7 -6 -6 -6 -6 -6 -6 -6
-14 -14 -15 -15 -15 -15 -15 -15 -14 -13 -13 -13 -12 -12 -12 -12 -12 -11 -11 -10 -10 -10 -10 -9 -8 -8 -7 -7 -7 -7 -6 -6 -6 -7 -7 -6 -7 -6 -6 -6 -6 -6 -6 -6
-13 -13 -14 -16 -15 -15 -14 -14 -13 -14 -13 -13 -13 -13 -12 -12 -12 -11 -11 -9 -10 -10 -11 -9 -9 -8 -8 -8 -8 -8 -7 -7 -7 -7 -7 -7 -7 -7 -6 -6 -6 -6 -6 -6
-13 -14 -14 -15 -14 -15 -15 -14 -14 -13 -14 -14 -14 -13 -13 -12 -12 -11 -11 -11 -11 -11 -12 -11 -11 -10 -10 -10 -9 -9 -8 -8 -8 -7 -7 -7 -7 -7 -6 -6 -6 -6 -6 -6
-13 -14 -14 -14 -15 -14 -14 -14 -14 -13 -13 -13 -13 -12 -12 -12 -11 -12 -12 -12 -12 -12 -11 -11 -11 -11 -10 -10 -10 -10 -9 -9 -8 -8 -8 -8 -7 -7 -7 -6 -7 -6 -7 -7
-13 -14 -14 -14 -14 -14 -14 -14 -14 -13 -13 -13 -13 -13 -13 -12 -12 -12 -12 -12 -12 -12 -12 -12 -11 -11 -10 -10 -9 -9 -10 -9 -9 -9 -9 -9 -8 -8 -8 -8 -7 -7 -7 -7
-13 -14 -14 -14 -14 -14 -14 -14 -13 -13 -13 -13 -14 -13 -13 -12 -12 -11 -11 -12 -12 -12 -12 -11 -11 -10 -10 -10 -9 -10 -9 -9 -9 -10 -10 -10 -9 -9 -9 -9 -9 -9 -8 -8
-13 -13 -13 -14 -14 -14 -14 -14 -14 -14 -13 -13 -14 -14 -13 -13 -13 -13 -12 -12 -12 -12 -11 -11 -11 -10 -10 -10 -10 -10 -10 -10 -9 -9 -10 -10 -10 -10 -9 -9 -9 -8 -9 -8
-13 -13 -13 -14 -14 -14 -15 -15 -15 -14 -14 -14 -14 -14 -14 -13 -13 -13 -12 -12 -12 -11 -11 -11 -11 -11 -10 -10 -10 -10 -10 -10 -10 -10 -10 -10 -11 -11 -11 -10 -10 -10 -9 -10

GFSCGP_500_temp_123.txt.gz
Temp
-5 -5 -6 -6 -6 -9 -7 -9 -7 -6 -6 -6 -6 -6 -6 -5 -5 -5 -5 -6 -5 -6 -6 -5 -5 -6 -6 -7 -6 -6 -6 -7 -7 -7 -7 -7 -7 -8 -8 -8 -8 -7 -7 -7
-5 -6 -6 -6 -6 -6 -7 -7 -8 -6 -6 -6 -6 -6 -6 -6 -6 -6 -6 -6 -5 -6 -5 -5 -5 -5 -6 -6 -6 -6 -6 -6 -6 -7 -7 -7 -7 -7 -7 -8 -7 -7 -7 -7
-6 -8 -6 -5 -6 -7 -7 -8 -10 -9 -6 -7 -6 -6 -6 -6 -6 -6 -6 -6 -5 -5 -6 -5 -5 -5 -5 -6 -6 -6 -6 -6 -6 -6 -7 -7 -7 -7 -7 -7 -7 -7 -7 -6
-7 -6 -6 -6 -7 -7 -8 -8 -8 -7 -7 -8 -8 -7 -7 -7 -6 -5 -6 -6 -6 -5 -6 -5 -5 -5 -5 -5 -6 -6 -6 -6 -6 -6 -7 -7 -7 -7 -7 -7 -6 -6 -6 -6
-8 -6 -6 -6 -7 -7 -8 -8 -7 -7 -8 -9 -10 -7 -8 -8 -7 -6 -6 -5 -6 -6 -6 -5 -5 -6 -5 -5 -5 -6 -6 -6 -6 -6 -7 -7 -7 -7 -6 -6 -6 -6 -6 -6
-6 -6 -6 -7 -7 -7 -8 -7 -8 -9 -10 -10 -9 -9 -9 -8 -7 -7 -6 -6 -5 -6 -7 -6 -5 -5 -5 -5 -5 -6 -6 -6 -6 -6 -6 -6 -6 -6 -6 -6 -6 -6 -6 -6
-7 -7 -7 -7 -7 -7 -8 -9 -10 -10 -10 -9 -9 -9 -9 -7 -6 -8 -6 -6 -6 -6 -6 -6 -6 -5 -6 -5 -6 -5 -6 -6 -6 -6 -6 -6 -6 -6 -6 -6 -6 -6 -6 -6
-10 -10 -8 -8 -8 -9 -8 -9 -10 -9 -8 -9 -8 -9 -9 -7 -7 -8 -7 -6 -5 -5 -4 -6 -6 -5 -6 -6 -6 -6 -6 -6 -6 -6 -6 -6 -7 -6 -6 -6 -6 -6 -6 -6
-11 -11 -8 -8 -8 -9 -11 -10 -11 -10 -9 -9 -9 -9 -9 -7 -9 -8 -7 -7 -5 -5 -6 -7 -6 -5 -5 -6 -6 -6 -6 -6 -5 -6 -6 -6 -6 -7 -7 -6 -6 -6 -6 -6
-10 -10 -11 -10 -9 -9 -10 -10 -10 -11 -10 -10 -9 -9 -9 -8 -9 -7 -8 -7 -6 -7 -7 -6 -6 -6 -5 -5 -6 -6 -6 -6 -5 -5 -6 -6 -6 -6 -7 -6 -6 -6 -6 -6
-10 -10 -12 -11 -10 -11 -12 -11 -10 -10 -10 -10 -9 -9 -9 -9 -7 -8 -8 -7 -8 -7 -7 -7 -5 -6 -6 -6 -5 -5 -6 -6 -6 -5 -6 -6 -6 -6 -6 -7 -7 -7 -7 -6
-11 -10 -12 -12 -12 -12 -12 -10 -12 -11 -10 -10 -9 -9 -9 -9 -9 -10 -9 -8 -7 -7 -6 -5 -6 -6 -6 -6 -5 -5 -6 -6 -6 -6 -5 -5 -5 -6 -6 -6 -6 -7 -6 -6
-10 -11 -12 -13 -12 -12 -12 -12 -12 -11 -11 -9 -10 -10 -10 -10 -10 -9 -9 -9 -7 -6 -7 -7 -6 -6 -6 -6 -6 -5 -6 -6 -5 -6 -6 -5 -5 -5 -5 -5 -6 -6 -6 -6
-11 -11 -11 -12 -12 -12 -12 -11 -11 -12 -11 -10 -11 -11 -10 -9 -10 -9 -9 -9 -7 -6 -7 -7 -7 -6 -7 -6 -6 -5 -5 -5 -5 -5 -5 -5 -5 -6 -5 -5 -6 -6 -6 -6
-11 -11 -12 -12 -11 -13 -13 -11 -12 -12 -12 -11 -11 -10 -10 -9 -10 -11 -11 -9 -8 -7 -7 -6 -6 -6 -6 -6 -6 -6 -5 -5 -5 -5 -5 -6 -5 -6 -6 -6 -6 -6 -6 -6
-12 -12 -12 -13 -13 -13 -14 -13 -11 -11 -11 -12 -11 -11 -10 -11 -12 -10 -10 -9 -8 -9 -9 -6 -8 -7 -7 -6 -6 -6 -6 -6 -6 -6 -5 -5 -6 -6 -6 -6 -6 -6 -6 -6
-12 -13 -15 -14 -14 -14 -14 -14 -14 -14 -13 -12 -11 -11 -10 -11 -12 -10 -10 -9 -8 -8 -9 -8 -7 -7 -6 -6 -6 -6 -6 -6 -6 -6 -6 -6 -6 -6 -6 -6 -6 -6 -6 -6
-13 -13 -13 -13 -14 -14 -14 -13 -14 -13 -13 -11 -11 -12 -12 -12 -12 -11 -10 -10 -8 -7 -9 -8 -7 -7 -7 -6 -6 -6 -6 -6 -6 -6 -6 -6 -6 -6 -6 -6 -6 -6 -6 -6
-13 -13 -13 -15 -14 -14 -15 -14 -14 -15 -13 -13 -13 -11 -11 -12 -12 -11 -10 -10 -9 -9 -8 -8 -8 -8 -7 -6 -6 -6 -6 -6 -6 -6 -6 -6 -6 -7 -7 -7 -6 -6 -6 -6
-13 -13 -13 -14 -14 -13 -13 -14 -14 -13 -15 -13 -13 -12 -12 -12 -12 -11 -10 -11 -11 -10 -9 -8 -8 -8 -8 -7 -7 -6 -6 -6 -6 -6 -6 -6 -6 -7 -7 -6 -7 -7 -7 -6
-14 -13 -13 -15 -15 -13 -14 -14 -14 -14 -14 -12 -12 -12 -11 -12 -12 -11 -11 -11 -11 -11 -9 -9 -9 -9 -8 -8 -7 -7 -7 -7 -6 -6 -6 -6 -6 -7 -7 -6 -7 -6 -6 -6
-13 -15 -15 -14 -14 -14 -14 -13 -13 -13 -13 -10 -12 -11 -12 -13 -12 -12 -12 -12 -11 -11 -10 -11 -11 -10 -9 -9 -8 -8 -7 -7 -8 -7 -7 -7 -7 -7 -7 -7 -7 -6 -6 -6
-13 -14 -13 -14 -14 -13 -13 -13 -13 -13 -13 -13 -13 -13 -12 -13 -12 -12 -12 -12 -12 -11 -11 -11 -11 -11 -11 -10 -10 -9 -10 -9 -9 -8 -8 -8 -8 -8 -8 -8 -8 -7 -7 -7
-13 -13 -13 -13 -13 -13 -13 -13 -13 -14 -14 -13 -13 -13 -13 -13 -12 -12 -12 -12 -12 -11 -12 -12 -11 -11 -11 -11 -11 -10 -11 -10 -10 -10 -9 -9 -9 -9 -9 -9 -9 -9 -9 -9
-13 -14 -13 -13 -13 -13 -14 -13 -13 -13 -13 -13 -14 -14 -14 -13 -13 -12 -12 -11 -12 -12 -12 -12 -12 -11 -11 -11 -11 -10 -10 -10 -11 -11 -11 -9 -9 -9 -9 -9 -9 -9 -9 -9
-14 -14 -14 -13 -13 -14 -14 -13 -13 -14 -14 -14 -14 -14 -14 -14 -13 -12 -12 -12 -12 -12 -11 -11 -11 -11 -11 -10 -10 -10 -10 -10 -10 -10 -10 -10 -10 -10 -10 -10 -10 -10 -9 -9